[[{"header":{"parameterUnit":"m.s-1","parameterCategory":1,"la1":30.6,"la2":29.2853,"lo1":-89.7004,"lo2":-87.6739,"dy":0.0162,"dx":0.0183,"nx":112,"ny":82,"refTime":"2023-08-04T06:00:00:Z","depth":0,"parameterNumber":2,"parameterNumberName":"U-component_of_WINDS"},"data":[0.0,0.0,0.0,0.0,0.0,0.0,0.0,0.0,0.0,0.0,0.0,0.0,0.0,0.0,0.0,0.0,0.0,0.0,0.0,0.0,0.0,0.0,0.0,0.0,0.0,0.0,0.0,0.0,0.0,0.0,0.0,0.0,0.0,0.0,0.0,0.0,0.0,0.0,0.0,0.0,0.0,0.0,0.0,0.0,0.0,0.0,0.0,0.0,0.0,0.0,0.0,0.0,0.0,0.0,0.0,0.0,0.0,0.0,0.0,0.0,0.0,0.0,0.0,0.0,0.0,0.0,0.0,0.0,0.0,0.0,0.0,0.0,0.0,0.0,0.0,0.0,0.0,0.0,0.0,0.0,0.0,0.0,0.0,0.0,0.0,0.0,0.0,0.0,0.0,0.0,-0.6023,-0.6115,-0.6954,-0.7493,-0.7493,-0.8236,-0.8606,-0.8512,0.0,0.0,0.0,0.0,0.0,0.0,0.0,0.0,0.0,0.0,0.0,0.0,0.0,0.0,0.0,0.0,0.0,0.0,0.0,0.0,0.0,0.0,0.0,0.0,0.0,0.0,0.0,0.0,0.0,0.0,0.0,0.0,0.0,0.0,0.0,0.0,0.0,0.0,0.0,0.0,0.0,0.0,0.0,0.0,0.0,0.0,0.0,0.0,0.0,0.0,0.0,0.0,0.0,0.0,0.0,0.0,0.0,0.0,0.0,0.0,0.0,0.0,0.0,0.0,0.0,0.0,0.0,0.0,0.0,0.0,0.0,0.0,0.0,0.0,0.0,0.0,0.0,0.0,0.0,0.0,0.0,0.0,0.0,0.0,0.0,0.0,0.0,0.0,0.0,0.0,0.0,0.0,0.0,0.0,0.0,0.0,0.0,0.0,0.0,0.0,0.0,0.0,0.0,0.0,-0.6338,-0.6995,-0.7851,-0.8329,-0.8329,-0.8979,-0.9072,-0.8512,0.0,0.0,0.0,0.0,0.0,0.0,0.0,0.0,0.0,0.0,0.0,0.0,0.0,0.0,0.0,0.0,0.0,0.0,0.0,0.0,0.0,0.0,0.0,0.0,0.0,0.0,0.0,0.0,0.0,0.0,0.0,0.0,0.0,0.0,0.0,0.0,0.0,0.0,0.0,0.0,0.0,0.0,0.0,0.0,0.0,0.0,0.0,0.0,0.0,0.0,0.0,0.0,0.0,0.0,0.0,0.0,0.0,0.0,0.0,0.0,0.0,0.0,0.0,0.0,0.0,0.0,0.0,0.0,0.0,0.0,0.0,0.0,0.0,0.0,0.0,0.0,0.0,0.0,0.0,0.0,0.0,0.0,0.0,0.0,0.0,0.0,0.0,0.0,0.0,0.0,0.0,0.0,0.0,0.0,0.0,0.0,0.0,0.0,0.0,0.0,0.0,0.0,0.0,-0.6807,-0.7161,-0.8014,-0.8794,-0.9276,-0.9276,-1.004,-1.0327,-0.9944,-0.9772,0.0,0.0,0.0,0.0,0.0,0.0,0.0,0.0,0.0,0.0,0.0,0.0,0.0,0.0,0.0,0.0,0.0,0.0,0.0,0.0,0.0,0.0,0.0,0.0,0.0,0.0,0.0,0.0,0.0,0.0,0.0,0.0,0.0,0.0,0.0,0.0,0.0,0.0,0.0,0.0,0.0,0.0,0.0,0.0,0.0,0.0,0.0,0.0,0.0,0.0,0.0,0.0,0.0,0.0,0.0,0.0,0.0,0.0,0.0,0.0,0.0,0.0,0.0,0.0,0.0,0.0,0.0,0.0,0.0,0.0,0.0,0.0,0.0,0.0,0.0,0.0,0.0,0.0,0.0,0.0,0.0,0.0,0.0,0.0,0.0,0.0,0.0,0.0,0.0,0.0,0.0,0.0,0.0,0.0,0.0,0.0,0.0,0.0,0.0,0.0,0.0,0.0,-0.7855,-0.8391,-0.9008,-0.9817,-1.0314,-1.0314,-1.0806,-1.1194,-1.1194,-1.1052,0.0,0.0,0.0,0.0,0.0,0.0,0.0,0.0,0.0,0.0,0.0,0.0,0.0,0.0,0.0,0.0,0.0,0.0,0.0,0.0,0.0,0.0,0.0,0.0,0.0,0.0,0.0,0.0,0.0,0.0,0.0,0.0,0.0,0.0,0.0,0.0,0.0,0.0,0.0,0.0,0.0,0.0,0.0,0.0,0.0,0.0,0.0,0.0,0.0,0.0,0.0,0.0,0.0,0.0,0.0,0.0,0.0,0.0,0.0,0.0,0.0,0.0,0.0,0.0,0.0,0.0,0.0,0.0,0.0,0.0,0.0,0.0,0.0,0.0,0.0,0.0,0.0,0.0,0.0,0.0,0.0,0.0,0.0,0.0,0.0,0.0,0.0,0.0,0.0,0.0,0.0,0.0,0.0,0.0,0.0,0.0,0.0,0.0,0.0,0.0,0.0,0.0,-0.8905,-0.9809,-0.992,-1.0609,-1.1096,-1.1096,-1.1194,-1.1194,-1.1194,-1.1184,0.0,0.0,0.0,0.0,0.0,0.0,0.0,0.0,0.0,0.0,0.0,0.0,0.0,0.0,0.0,0.0,0.0,0.0,0.0,0.0,0.0,0.0,0.0,0.0,0.0,0.0,0.0,0.0,0.0,0.0,0.0,0.0,0.0,0.0,0.0,0.0,0.0,0.0,0.0,0.0,0.0,0.0,0.0,0.0,0.0,0.0,0.0,0.0,0.0,0.0,0.0,0.0,0.0,0.0,0.0,0.0,0.0,0.0,0.0,0.0,0.0,0.0,0.0,0.0,0.0,0.0,0.0,0.0,0.0,0.0,0.0,0.0,0.0,0.0,0.0,0.0,0.0,0.0,0.0,0.0,0.0,0.0,0.0,0.0,0.0,0.0,0.0,0.0,0.0,0.0,0.0,0.0,0.0,0.0,0.0,0.0,0.0,0.0,0.0,0.0,0.0,0.0,-0.932,-1.0216,-1.0708,-1.1002,-1.1194,-1.1194,-1.1194,-1.1194,-1.1194,0.0,0.0,0.0,0.0,0.0,0.0,0.0,0.0,0.0,0.0,0.0,0.0,0.0,0.0,0.0,0.0,0.0,0.0,0.0,0.0,0.0,0.0,0.0,0.0,0.0,0.0,0.0,0.0,0.0,0.0,0.0,0.0,0.0,0.0,0.0,0.0,0.0,0.0,0.0,0.0,0.0,0.0,0.0,0.0,0.0,0.0,0.0,0.0,0.0,0.0,0.0,0.0,0.0,0.0,0.0,0.0,0.0,0.0,0.0,0.0,0.0,0.0,0.0,0.0,0.0,0.0,0.0,0.0,0.0,0.0,0.0,0.0,0.0,0.0,0.0,0.0,0.0,0.0,0.0,0.0,0.0,0.0,0.0,0.0,0.0,0.0,0.0,0.0,0.0,0.0,0.0,0.0,0.0,0.0,0.0,0.0,0.0,0.0,0.0,0.0,0.0,0.0,-0.8726,-0.9719,-1.0605,-1.1096,-1.1194,-1.1194,-1.1194,-1.1194,-1.1194,-1.1194,0.0,0.0,0.0,0.0,0.0,0.0,0.0,0.0,0.0,0.0,0.0,0.0,0.0,0.0,0.0,0.0,0.0,0.0,0.0,0.0,0.0,0.0,0.0,0.0,0.0,0.0,0.0,0.0,0.0,0.0,0.0,0.0,0.0,0.0,0.0,0.0,0.0,0.0,0.0,0.0,0.0,0.0,0.0,0.0,0.0,0.0,0.0,0.0,0.0,0.0,0.0,0.0,0.0,0.0,0.0,0.0,0.0,0.0,0.0,0.0,0.0,0.0,0.0,0.0,0.0,0.0,0.0,0.0,0.0,0.0,0.0,0.0,0.0,0.0,0.0,0.0,0.0,0.0,0.0,0.0,0.0,0.0,0.0,0.0,0.0,0.0,0.0,0.0,0.0,0.0,0.0,0.0,0.0,0.0,0.0,0.0,0.0,0.0,0.0,0.0,0.0,0.0,-0.8829,-1.0212,-1.1198,-1.1203,-1.1203,-1.1203,-1.1203,-1.1203,-1.1203,0.0,0.0,0.0,0.0,0.0,0.0,0.0,0.0,0.0,0.0,0.0,0.0,0.0,0.0,0.0,0.0,0.0,0.0,0.0,0.0,0.0,0.0,0.0,0.0,0.0,0.0,0.0,0.0,0.0,0.0,0.0,0.0,0.0,0.0,0.0,0.0,0.0,0.0,0.0,0.0,0.0,0.0,0.0,0.0,0.0,0.0,0.0,0.0,0.0,0.0,0.0,0.0,0.0,0.0,0.0,0.0,0.0,0.0,0.0,0.0,0.0,0.0,0.0,0.0,0.0,0.0,0.0,0.0,0.0,0.0,0.0,0.0,0.0,0.0,0.0,0.0,0.0,0.0,0.0,0.0,0.0,0.0,0.0,0.0,0.0,0.0,0.0,0.0,0.0,0.0,0.0,0.0,0.0,0.0,0.0,0.0,0.0,0.0,0.0,0.0,0.0,0.0,0.0,-0.9965,-1.0804,-1.1477,-1.1619,-1.1633,-1.1633,-1.1633,-1.1633,-1.1633,-1.1633,0.0,0.0,0.0,0.0,0.0,0.0,0.0,0.0,0.0,0.0,0.0,0.0,0.0,0.0,0.0,0.0,0.0,0.0,0.0,0.0,0.0,0.0,0.0,0.0,0.0,0.0,0.0,0.0,0.0,0.0,0.0,0.0,0.0,0.0,0.0,0.0,0.0,0.0,0.0,0.0,0.0,0.0,0.0,0.0,0.0,0.0,0.0,0.0,0.0,0.0,0.0,0.0,0.0,0.0,0.0,0.0,0.0,0.0,0.0,0.0,0.0,0.0,0.0,0.0,0.0,0.0,0.0,0.0,0.0,0.0,0.0,0.0,0.0,0.0,0.0,0.0,0.0,0.0,0.0,0.0,0.0,0.0,0.0,0.0,0.0,0.0,0.0,0.0,0.0,0.0,0.0,0.0,0.0,0.0,0.0,0.0,0.0,0.0,0.0,0.0,0.0,0.0,-1.002,-1.099,-1.1685,-1.1803,-1.1817,-1.1817,-1.1817,-1.1817,-1.1817,-1.1817,0.0,0.0,0.0,0.0,0.0,0.0,0.0,0.0,0.0,0.0,0.0,0.0,0.0,0.0,0.0,0.0,0.0,0.0,0.0,0.0,0.0,0.0,0.0,0.0,0.0,0.0,0.0,0.0,0.0,0.0,0.0,0.0,0.0,0.0,0.0,0.0,0.0,0.0,0.0,0.0,0.0,0.0,0.0,0.0,0.0,0.0,0.0,0.0,0.0,0.0,0.0,0.0,0.0,0.0,0.0,0.0,0.0,0.0,0.0,0.0,0.0,0.0,0.0,0.0,0.0,0.0,0.0,0.0,0.0,0.0,0.0,0.0,0.0,0.0,0.0,0.0,0.0,0.0,0.0,0.0,0.0,0.0,0.0,0.0,0.0,0.0,0.0,0.0,0.0,0.0,0.0,0.0,0.0,0.0,0.0,0.0,0.0,0.0,0.0,0.0,0.0,0.0,-0.9459,-1.0811,-1.1855,-1.1869,-1.1874,-1.1874,-1.1874,-1.1874,-1.1874,-1.1874,0.0,0.0,0.0,0.0,0.0,0.0,0.0,0.0,0.0,0.0,0.0,0.0,0.0,0.0,0.0,0.0,0.0,0.0,0.0,0.0,0.0,0.0,0.0,0.0,0.0,0.0,0.0,0.0,0.0,0.0,0.0,0.0,0.0,0.0,0.0,0.0,0.0,0.0,0.0,0.0,0.0,0.0,0.0,0.0,0.0,0.0,0.0,0.0,0.0,0.0,0.0,0.0,0.0,0.0,0.0,0.0,0.0,0.0,0.0,0.0,-0.2952,-0.2946,0.0,0.0,0.0,0.0,0.0,0.0,0.0,0.0,0.0,0.0,0.0,0.0,0.0,0.0,0.0,0.0,0.0,0.0,0.0,0.0,0.0,0.0,0.0,0.0,0.0,0.0,0.0,0.0,0.0,0.0,0.0,0.0,0.0,0.0,0.0,0.0,0.0,0.0,0.0,0.0,-1.0642,-1.1527,-1.2134,-1.229,-1.2309,-1.2309,-1.2309,-1.2309,-1.2309,-1.2309,-1.2157,0.0,0.0,0.0,0.0,0.0,0.0,0.0,0.0,0.0,0.0,0.0,0.0,0.0,0.0,0.0,0.0,0.0,0.0,0.0,0.0,0.0,0.0,0.0,0.0,0.0,0.0,0.0,0.0,0.0,0.0,0.0,0.0,0.0,0.0,0.0,0.0,0.0,0.0,0.0,0.0,0.0,0.0,0.0,0.0,0.0,0.0,0.0,0.0,0.0,0.0,0.0,0.0,0.0,0.0,0.0,0.0,0.0,0.0,0.0,-0.3016,-0.3004,0.0,0.0,0.0,0.0,0.0,0.0,0.0,0.0,0.0,0.0,0.0,0.0,0.0,0.0,0.0,0.0,0.0,0.0,0.0,0.0,0.0,0.0,0.0,0.0,0.0,0.0,0.0,0.0,0.0,0.0,0.0,0.0,0.0,0.0,0.0,0.0,0.0,0.0,0.0,0.0,-1.0992,-1.1806,-1.2323,-1.2427,-1.2441,-1.2441,-1.2441,-1.2441,-1.2441,-1.2441,-1.2342,0.0,0.0,0.0,0.0,0.0,0.0,0.0,0.0,0.0,0.0,0.0,0.0,0.0,0.0,0.0,0.0,0.0,0.0,0.0,0.0,0.0,0.0,0.0,0.0,0.0,0.0,0.0,0.0,0.0,0.0,0.0,0.0,0.0,0.0,0.0,0.0,0.0,0.0,0.0,0.0,0.0,0.0,0.0,0.0,0.0,0.0,0.0,0.0,0.0,0.0,0.0,0.0,0.0,-0.3235,-0.3255,-0.3067,-0.3105,-0.3129,-0.3134,-0.3034,-0.3018,-0.3065,-0.3065,0.0,0.0,0.0,0.0,0.0,0.0,0.0,0.0,0.0,0.0,0.0,0.0,0.0,0.0,0.0,0.0,0.0,0.0,0.0,0.0,0.0,0.0,-0.6801,-0.6801,-0.682,-0.6806,-0.6706,0.0,0.0,0.0,0.0,0.0,0.0,0.0,0.0,0.0,0.0,0.0,-1.1017,-1.1891,-1.2441,-1.2441,-1.2441,-1.2441,-1.2441,-1.2441,-1.2441,-1.2441,-1.2441,-1.2441,0.0,0.0,0.0,0.0,0.0,0.0,0.0,0.0,0.0,0.0,0.0,0.0,0.0,0.0,0.0,0.0,0.0,0.0,0.0,0.0,0.0,0.0,0.0,0.0,0.0,0.0,0.0,0.0,0.0,0.0,0.0,0.0,-0.778,-0.7927,0.0,0.0,0.0,0.0,0.0,0.0,0.0,0.0,0.0,0.0,0.0,0.0,0.0,-0.3439,-0.3296,-0.4173,-0.4118,-0.3194,-0.4029,-0.4002,-0.3127,-0.308,-0.309,-0.3139,-0.3123,0.0,-0.3128,-0.3128,0.0,0.0,0.0,0.0,0.0,0.0,0.0,0.0,0.0,0.0,0.0,0.0,0.0,0.0,0.0,0.0,0.0,0.0,0.0,0.0,0.0,0.0,-0.6801,-0.6801,-0.6883,-0.6956,-0.694,-0.6866,-0.7012,-0.7737,-0.8049,-0.835,0.0,0.0,0.0,0.0,0.0,0.0,-1.1126,-1.1891,-1.2441,-1.2441,-1.2441,-1.2441,-1.2441,-1.2441,-1.2441,-1.2441,-1.2441,-1.2441,-1.2441,-1.2413,0.0,0.0,0.0,0.0,0.0,0.0,0.0,0.0,0.0,0.0,0.0,0.0,0.0,0.0,0.0,0.0,0.0,0.0,0.0,0.0,0.0,0.0,0.0,0.0,0.0,0.0,0.0,0.0,0.0,-0.7943,-0.8085,-0.8162,-0.8345,-0.7933,0.0,0.0,0.0,0.0,0.0,0.0,0.0,0.0,0.0,-0.3981,-0.4548,-0.4562,-0.4016,-0.4455,-0.4198,-0.3232,-0.3679,-0.3702,-0.3292,-0.3266,-0.3267,-0.3293,-0.3293,-0.3293,-0.329,-0.3256,-0.3245,-0.3253,0.0,0.0,0.0,0.0,-0.4163,-0.4669,-0.4669,-0.4997,-0.5344,-0.5182,0.0,0.0,0.0,0.0,0.0,0.0,0.0,-0.6904,-0.6904,-0.6953,-0.7002,-0.7002,-0.7043,-0.7081,-0.7081,-0.7474,-0.7868,-0.8294,-0.8346,-0.8716,-0.9584,-0.9753,0.0,0.0,0.0,-1.1236,-1.1782,-1.211,-1.2441,-1.2441,-1.2441,-1.2441,-1.2441,-1.2441,-1.2441,-1.2441,-1.2441,-1.2441,-1.2441,-1.2441,-1.2441,0.0,0.0,0.0,0.0,0.0,0.0,0.0,0.0,0.0,0.0,0.0,0.0,0.0,0.0,0.0,0.0,0.0,0.0,0.0,0.0,0.0,0.0,0.0,0.0,0.0,0.0,0.0,0.0,-0.8337,-0.8426,-0.8426,-0.8702,-0.8473,0.0,0.0,0.0,0.0,0.0,0.0,-0.5567,-0.5575,-0.5532,-0.5233,-0.6006,-0.6093,-0.5298,-0.4968,-0.4495,-0.3684,-0.3473,-0.3413,-0.3413,-0.3413,-0.3518,-0.3836,-0.3518,-0.374,-0.4279,-0.3578,-0.3476,-0.3624,-0.3624,-0.4048,-0.4579,-0.4579,-0.4896,-0.5426,-0.5426,-0.5744,-0.6172,-0.5776,-0.5801,-0.6034,-0.5605,0.0,0.0,0.0,0.0,-0.7029,-0.7029,-0.7092,-0.7154,-0.7154,-0.7154,-0.7265,-0.7487,-0.8042,-0.8595,-0.8813,-0.9034,-0.9475,-1.0351,-1.0457,0.0,-1.1345,-1.1455,-1.1673,-1.2332,-1.2441,-1.2441,-1.2441,-1.2441,-1.2441,-1.2441,-1.2441,-1.2441,-1.2441,-1.2441,-1.2441,-1.2441,-1.2441,-1.2441,-1.2441,0.0,0.0,0.0,0.0,0.0,0.0,0.0,0.0,0.0,0.0,0.0,0.0,0.0,0.0,0.0,0.0,0.0,0.0,0.0,0.0,0.0,0.0,0.0,0.0,0.0,0.0,0.0,0.0,0.0,-0.8792,-0.8966,0.0,0.0,0.0,0.0,-0.7977,-0.8646,-0.876,-0.7797,-0.7841,-0.7425,-0.6526,-0.6852,-0.6976,-0.6871,-0.5716,-0.5191,-0.5086,-0.3937,-0.3413,-0.3413,-0.3413,-0.4047,-0.4994,-0.394,-0.4723,-0.6727,-0.439,-0.3728,-0.4261,-0.4261,-0.4579,-0.511,-0.511,-0.5532,-0.5955,-0.5955,-0.6273,-0.682,-0.6829,-0.661,-0.6246,-0.6248,-0.6248,0.0,0.0,-0.6697,-0.7146,-0.7146,-0.7149,-0.7154,-0.7154,-0.7154,-0.7376,-0.8263,-0.8484,-0.8702,-0.9578,-1.0351,-1.1236,-1.211,0.0,-1.2327,-1.2332,-1.2332,-1.2327,-1.2436,-1.2441,-1.2441,-1.2441,-1.2441,-1.2441,-1.2441,-1.2441,-1.2441,-1.2441,-1.2441,-1.2441,-1.2441,-1.2441,-1.2441,-1.2441,-1.2441,0.0,0.0,0.0,0.0,0.0,0.0,0.0,0.0,0.0,0.0,0.0,0.0,0.0,0.0,0.0,0.0,0.0,0.0,0.0,0.0,0.0,0.0,0.0,0.0,0.0,0.0,0.0,0.0,-0.9011,-0.9259,0.0,-0.8791,-0.9227,-0.9359,-0.9019,-0.887,-0.8636,-0.8326,-0.7769,-0.7179,-0.6869,-0.6956,-0.7004,-0.7004,-0.6648,-0.6041,-0.5295,-0.4922,-0.4292,-0.3525,-0.3525,-0.3743,-0.4181,-0.3743,-0.4085,-0.4766,-0.3862,-0.4073,-0.4949,-0.4622,-0.4841,-0.5387,-0.5715,-0.6262,-0.6808,-0.6808,-0.692,-0.7035,-0.7081,-0.7011,-0.6932,-0.6932,-0.6932,-0.6932,-0.6932,-0.7043,-0.7154,-0.7154,-0.7154,-0.7154,-0.7154,-0.7598,-0.8152,-0.8484,-0.9364,-1.0249,-1.0574,-1.0907,-1.1345,-1.2219,-1.2441,-1.2441,-1.2441,-1.2441,-1.2441,-1.2441,-1.2441,-1.2441,-1.2441,-1.2441,-1.2441,-1.2441,-1.2441,-1.2441,-1.2441,-1.2441,-1.2441,-1.2441,-1.2441,-1.2441,-1.2441,-1.2441,-1.2441,0.0,0.0,0.0,0.0,0.0,0.0,0.0,0.0,0.0,0.0,0.0,0.0,0.0,0.0,0.0,0.0,0.0,0.0,0.0,0.0,0.0,0.0,0.0,0.0,0.0,0.0,-0.938,-0.9206,-0.9498,-0.9644,-0.9466,-0.9665,-0.9807,-0.9807,-0.9301,-0.8995,-0.9097,-0.8523,-0.8021,-0.7593,-0.7639,-0.7449,-0.7017,-0.666,-0.617,-0.5326,-0.5054,-0.4418,-0.3649,-0.3649,-0.3875,-0.4213,-0.3875,-0.4101,-0.4779,-0.444,-0.5119,-0.6127,-0.5168,-0.526,-0.604,-0.6485,-0.6821,-0.7154,-0.7154,-0.7154,-0.7154,-0.7154,-0.7154,-0.7154,-0.7154,-0.7154,-0.7154,-0.7154,-0.7154,-0.7165,-0.7203,-0.7217,-0.7337,-0.7714,-0.8289,-0.8851,-0.9412,-1.0532,-1.1428,-1.1762,-1.1656,-1.1673,-1.2327,-1.2441,-1.2441,-1.2441,-1.2441,-1.2441,-1.2441,-1.2441,-1.2441,-1.2441,-1.2441,-1.2441,-1.2441,-1.2441,-1.2441,-1.2441,-1.2441,-1.2441,-1.2441,-1.2441,-1.2441,-1.2441,-1.2441,-1.2441,-1.2441,0.0,0.0,0.0,0.0,0.0,0.0,0.0,0.0,0.0,0.0,0.0,0.0,0.0,0.0,0.0,0.0,0.0,0.0,0.0,0.0,0.0,0.0,0.0,-0.9388,-0.9522,-0.9567,-0.9393,-0.9681,-0.9827,-0.9661,-0.9961,-1.0172,-1.0172,-1.0176,-1.018,-1.018,-1.0241,-0.9789,-0.8699,-0.8739,-0.826,-0.7143,-0.6042,-0.5424,-0.5512,-0.4367,-0.3827,-0.3886,-0.3886,-0.4469,-0.5516,-0.4469,-0.517,-0.7267,-0.6217,-0.6679,-0.7927,-0.6231,-0.6272,-0.7276,-0.7276,-0.7276,-0.7276,-0.7276,-0.7276,-0.7276,-0.7276,-0.7276,-0.7276,-0.7276,-0.7276,-0.7276,-0.7276,-0.7276,-0.7304,-0.7423,-0.7339,-0.7712,-0.8759,-0.9023,-0.9599,-1.1335,-1.1684,-1.2029,-1.295,-1.2739,-1.246,-1.246,-1.246,-1.246,-1.246,-1.246,0.0,-1.246,-1.246,-1.246,-1.246,-1.246,-1.2455,-1.245,-1.245,-1.2446,-1.2441,-1.2441,-1.2441,-1.2441,-1.2441,-1.2441,-1.2441,-1.2441,-1.2441,-1.2441,0.0,0.0,0.0,0.0,0.0,0.0,0.0,0.0,0.0,0.0,0.0,0.0,0.0,0.0,0.0,0.0,0.0,0.0,0.0,0.0,0.0,0.0,-0.9754,-0.9579,-0.9701,-0.9795,-0.9746,-0.9945,-1.0067,-1.0018,-1.0225,-1.0359,-1.0359,-0.9715,-0.9236,-0.9236,-0.8504,-0.7862,-0.7532,-0.7656,-0.7497,-0.7156,-0.6901,-0.6383,-0.5482,-0.6179,-0.5962,-0.5169,-0.6217,-0.6798,-0.7145,-0.7029,-0.7378,-0.7959,-0.7837,-0.8302,-0.8993,-0.8344,-0.8431,-0.8889,-0.9353,-0.9467,-0.9467,-0.9467,-0.9467,-0.9467,-0.9467,-0.9467,-0.9467,-0.9467,-0.9467,-0.9467,-0.9467,-0.9467,-0.9478,-0.9523,-0.9533,-0.9655,-0.9932,-1.0524,-1.1105,-1.1569,-1.2259,-1.2836,-1.3065,-1.2975,-1.2895,-1.2895,-1.2895,-1.2895,-1.2895,-1.2895,-1.2895,-1.2895,-1.2895,-1.2895,-1.2895,-1.2895,-1.2838,-1.2687,-1.2677,-1.2606,-1.245,-1.2441,-1.2441,-1.2441,-1.2441,-1.2441,-1.2441,-1.2441,-1.2441,0.0,0.0,0.0,0.0,0.0,0.0,0.0,0.0,0.0,0.0,0.0,0.0,0.0,0.0,0.0,0.0,0.0,0.0,0.0,0.0,0.0,0.0,-0.9937,-0.9994,-0.9969,-0.9985,-1.0002,-1.0002,-1.0164,-1.0274,-1.0274,-1.044,-1.0542,-1.0542,-0.9975,-0.9695,-0.9695,-0.9089,-0.8447,-0.7997,-0.813,-0.797,-0.7394,-0.7464,-0.7171,-0.6514,-0.7223,-0.7246,-0.6698,-0.7409,-0.7884,-0.7999,-0.8118,-0.8352,-0.847,-0.9176,-0.9769,0.0,0.0,0.0,0.0,0.0,-1.0401,-1.0401,-1.0401,-1.0401,-1.0401,-1.0401,-1.0401,-1.0401,-1.0401,-1.0401,-1.0401,-1.0401,-1.0401,-1.0416,-1.0492,-1.0507,-1.0642,-1.1067,-1.1557,-1.203,-1.2502,-1.2975,-1.3329,-1.3329,-1.3329,0.0,-1.3329,-1.3183,-1.3065,-1.3065,-1.3065,-1.3065,-1.3065,-1.3065,-1.3065,-1.3065,-1.3065,-1.3017,-1.2904,-1.2895,0.0,0.0,0.0,-1.2535,-1.2446,-1.2441,0.0,0.0,0.0,-1.2441,-1.2441,-1.2441,0.0,0.0,-1.2384,-1.2375,0.0,0.0,0.0,0.0,0.0,0.0,0.0,0.0,0.0,0.0,0.0,0.0,0.0,0.0,0.0,0.0,-1.0193,-1.0257,-1.0436,-1.0322,-1.0221,-1.0221,-1.0363,-1.0465,-1.0465,-1.0603,-1.0692,-1.0692,-1.0598,-1.05,-1.05,0.0,0.0,0.0,0.0,-0.8803,-0.7749,-0.7763,-0.7715,-0.7837,-0.7957,-0.8142,-0.8142,-0.8386,-0.8628,-0.887,-0.887,-0.8992,-0.9355,-1.0579,-1.1312,-1.1518,-1.0461,-1.0334,-1.0809,-1.0809,-1.0809,-1.0809,-1.0809,0.0,0.0,-1.0809,-1.0809,-1.0809,-1.0809,-1.0809,-1.0809,-1.0809,-1.0809,-1.0841,-1.0882,-1.0921,-1.1197,-1.2196,-1.2359,-1.2599,-1.3569,-1.3688,-1.3688,-1.3688,-1.3688,-1.3688,-1.3688,-1.3381,-1.3136,-1.3136,-1.3136,-1.3136,-1.3136,-1.3136,-1.3136,-1.3136,-1.3136,0.0,-1.3102,-1.3102,-1.3093,-1.3069,-1.2899,-1.2715,-1.2517,-1.2488,-1.2479,-1.2479,-1.2559,-1.2654,-1.2654,-1.2762,-1.2762,-1.2762,-1.2654,-1.2654,0.0,0.0,0.0,0.0,0.0,0.0,0.0,0.0,0.0,0.0,0.0,0.0,0.0,0.0,0.0,-1.0355,-1.0383,-1.0444,-1.0619,-1.0611,-1.059,-1.059,-1.0623,-1.0643,-1.0643,-1.0672,-1.0692,-1.0692,-0.9924,-0.9546,-0.9546,-0.8775,-0.8271,-0.804,-0.8049,-0.7997,-0.776,-0.7859,-0.7969,-0.8094,0.0,0.0,-0.991,-1.1294,-1.1924,-1.1924,-1.2178,-1.2424,-1.2428,-1.3056,-1.3434,-1.3646,-1.312,-1.2962,-1.3086,-1.3086,-1.3086,-1.3086,-1.3086,-1.3086,-1.3086,-1.3086,-1.3086,-1.3086,-1.3086,-1.3086,0.0,-1.3086,-1.3086,-1.3095,-1.3136,-1.3145,-1.3154,-1.3315,-1.3449,-1.3449,-1.3688,-1.3688,-1.3688,-1.3688,-1.3688,-1.3688,-1.3688,-1.3622,-1.357,-1.357,-1.357,-1.357,-1.357,-1.357,-1.357,-1.357,-1.357,-1.3504,-1.3339,-1.3329,-1.3254,-1.3079,-1.3032,-1.2989,-1.2947,-1.2791,-1.2706,-1.2706,-1.351,-1.3846,-1.3846,-1.4798,-1.5221,-1.5221,-1.4266,-1.3846,0.0,0.0,0.0,0.0,0.0,0.0,0.0,0.0,0.0,0.0,0.0,-1.0217,0.0,0.0,-1.0456,-1.055,-1.0562,-1.0595,-1.068,-1.0692,-1.0692,-1.0692,-1.0692,-1.0692,-1.0692,-1.0773,-1.083,-1.083,-1.042,-1.0167,-1.0167,-0.9856,-0.959,-0.959,-0.9741,-0.9854,-0.993,-0.988,-0.9998,-1.0151,-1.1025,-1.1442,-1.1519,-1.241,-1.2918,-1.3044,-1.3052,-1.3178,-1.3551,-1.3931,-1.4182,-1.4288,-1.4081,-1.4,-1.4,-1.4,-1.4,-1.4,-1.4,-1.4,-1.4,-1.4,-1.4,-1.4,-1.4,-1.4,-1.4,-1.4,-1.4,-1.4,-1.4,-1.4,-1.4,-1.4,-1.4,-1.4,-1.4,-1.4,-1.4,-1.4,-1.4,-1.4,-1.4,-1.4,-1.3929,-1.3721,-1.3688,-1.3688,-1.3688,-1.3688,-1.3688,-1.3688,-1.3688,-1.3651,-1.3547,-1.3537,-1.3447,-1.324,-1.323,-1.3178,-1.3069,-1.297,-1.2918,-1.2918,-1.3261,-1.38,-1.4336,-1.486,-1.5334,-1.5861,-1.5867,-1.5553,0.0,0.0,0.0,0.0,0.0,0.0,0.0,0.0,-1.0213,-1.0396,-1.0436,-1.0489,-1.066,-1.0692,-1.0692,-1.0692,-1.0692,-1.0692,-1.0692,-1.0692,-1.0692,-1.0692,-1.0692,-1.0708,-1.0745,-1.0883,-1.098,-1.1017,-1.1179,-1.1277,-1.1277,-1.1451,-1.1569,-1.1721,-1.1748,-1.1906,-1.2201,-1.2205,-1.2299,-1.2484,-1.2855,-1.2995,-1.2902,-1.3029,-1.3156,-1.3409,-1.3169,-1.3422,-1.392,-1.4178,-1.4304,-1.4435,-1.4435,-1.4435,-1.4421,-1.434,-1.4312,-1.4312,-1.4312,-1.4312,-1.4312,-1.4312,-1.4312,-1.4312,-1.4312,-1.4312,-1.4312,-1.4312,-1.4312,-1.4312,-1.4312,-1.4312,-1.4312,-1.4312,-1.4312,-1.4312,-1.4312,-1.4312,-1.4312,-1.4312,-1.4312,-1.4312,-1.4312,-1.4312,-1.4194,-1.3859,-1.3811,-1.3797,-1.3755,-1.375,-1.3736,-1.3693,-1.3688,-1.3688,-1.3688,-1.3688,-1.3618,-1.3457,-1.3447,-1.3484,-1.3533,-1.3605,-1.3695,-1.3914,-1.3928,-1.4362,-1.5232,-1.5367,-1.5809,-1.6769,-1.7643,-1.747,-1.4555,-1.2323,-1.028,-0.9989,-0.9942,-0.9884,0.0,0.0,-1.0213,-1.0396,-1.0436,-1.0489,-1.066,-1.0692,-1.0692,-1.0692,-1.0692,-1.0692,-1.0692,-1.0692,-1.0692,-1.0692,-1.0692,-1.0757,-1.0923,-1.0956,-1.1033,-1.1183,-1.1366,-1.1468,-1.1468,-1.1646,-1.1938,-1.2462,-1.2114,-1.2209,-1.2762,-1.2762,-1.286,-1.305,-1.3306,-1.3397,-1.3308,-1.3687,-1.3813,-1.3813,-1.4074,-1.4209,-1.434,-1.4335,-1.46,-1.4865,-1.4865,-1.4865,-1.4818,-1.4449,-1.4312,-1.4312,-1.4312,-1.4312,-1.4312,-1.4312,-1.4312,-1.4312,-1.4312,-1.4312,-1.4312,-1.4312,-1.4312,-1.4312,-1.4312,-1.4312,-1.4312,-1.4312,-1.4312,-1.4312,-1.4312,-1.4312,-1.4312,-1.4312,-1.4312,-1.4312,-1.4312,-1.4312,-1.4293,-1.4251,-1.4241,-1.4175,-1.4,-1.3977,-1.3901,-1.3707,-1.3688,-1.3688,-1.3688,-1.3688,-1.3679,-1.3655,-1.3655,-1.4113,-1.5263,-1.5184,-1.5528,-1.6647,-1.7403,-1.7929,-1.8046,-1.9029,-1.9569,-1.9685,-1.9801,-1.9055,-1.2453,-1.1187,-1.0314,0.0,-1.0041,-1.0178,-1.0389,-1.0449,-1.0493,-1.0566,-1.0586,-1.0607,-1.068,-1.0692,-1.0692,0.0,-1.0692,-1.0692,-1.0692,-1.0692,-1.0733,-1.0842,-1.0854,-1.0883,-1.096,-1.1155,-1.1305,-1.1378,-1.1553,-1.1774,-1.1885,-1.2189,-1.2327,-1.2526,-1.2503,-1.2645,-1.2957,-1.2961,-1.3058,-1.3248,-1.3635,-1.3674,-1.3371,-1.3752,-1.3875,-1.3879,-1.4272,-1.4403,-1.4403,-1.467,-1.48,-1.4931,-1.4931,-1.4931,-1.4912,-1.4737,-1.4671,-1.4671,-1.4671,-1.4671,-1.4671,-1.4671,-1.4671,-1.4671,-1.4671,-1.4671,-1.4671,-1.4671,-1.4671,-1.4671,-1.4671,-1.4671,-1.4671,-1.4671,-1.4671,-1.4671,-1.4671,-1.4671,-1.4671,-1.4671,-1.4671,-1.4671,-1.4671,-1.4671,-1.4671,-1.4671,-1.4463,-1.4279,-1.4194,-1.4185,-1.4104,-1.3901,-1.3877,-1.3825,-1.3698,-1.3688,-1.3688,-1.3688,-1.3688,-1.3923,-1.4515,-1.5129,-1.5658,-1.6232,-1.7236,-1.8004,-1.8691,-1.9078,-1.9559,-2.0237,-2.0237,-1.9765,-1.0995,0.0,0.0,-1.0203,-1.028,-1.0485,-1.0728,-1.0679,-1.0692,-1.0692,-1.0692,-1.0692,-1.0692,-1.0692,-1.0692,-1.0692,-1.0692,-1.0692,-1.0692,-1.0802,-1.0871,-1.0948,-1.1235,-1.1284,-1.111,-1.135,-1.1516,-1.1684,-1.1815,-1.203,-1.2193,-1.2449,-1.2696,-1.2802,-1.2805,-1.3093,-1.3414,-1.3414,-1.3488,-1.363,-1.3884,-1.3879,-1.3625,-1.3884,-1.4006,-1.401,-1.4403,-1.4534,-1.4539,-1.48,-1.4931,-1.4931,-1.4931,-1.4931,-1.4931,-1.4931,-1.4931,-1.4931,-1.4931,-1.4931,-1.4931,-1.4931,-1.4931,-1.4931,-1.4931,-1.4931,-1.4931,-1.4931,-1.4931,-1.4931,-1.4931,-1.4931,-1.4931,-1.4931,-1.4931,-1.4931,-1.4931,-1.4931,-1.4931,-1.4931,-1.4931,-1.4931,-1.4931,-1.4931,-1.4931,-1.4931,-1.4676,-1.4463,-1.4407,-1.435,-1.4255,-1.4109,-1.4095,-1.4033,-1.3873,-1.3811,-1.3778,-1.3778,-1.4077,-1.4396,-1.4748,-1.5924,-1.6744,-1.7097,-1.7834,-1.865,-1.9467,-1.9353,-1.9703,-2.0501,-2.0501,-2.0501,0.0,0.0,-1.0905,-1.0399,-1.0581,-1.0753,-1.0543,-1.0566,-1.0692,-1.0692,-1.0692,-1.0692,-1.0692,-1.0692,-1.0692,-1.0692,-1.0692,-1.0692,-1.0692,-1.0907,-1.1088,-1.106,-1.1684,-1.1863,0.0,-1.1492,-1.1688,-1.2093,-1.2234,-1.2076,-1.2012,-1.2275,-1.2815,-1.3567,-1.3199,-1.3548,-1.4394,-1.3997,-1.4002,-1.4403,-1.4403,-1.4403,-1.4403,-1.4403,-1.4403,-1.4403,-1.48,-1.4931,-1.4931,-1.4931,-1.4931,-1.4931,-1.4931,-1.4931,-1.4931,-1.4931,-1.4931,-1.4931,-1.4931,-1.4931,-1.4931,-1.4931,-1.4931,-1.4931,-1.4931,-1.4931,-1.4931,-1.4931,-1.4931,-1.4931,-1.4931,-1.4931,-1.4931,-1.4931,-1.4931,-1.4931,-1.4931,-1.4931,-1.4931,-1.4931,-1.4931,-1.4931,-1.4931,-1.4931,-1.4931,-1.4931,-1.4922,-1.4841,-1.4648,-1.444,-1.4307,-1.4303,-1.4303,-1.4298,-1.4293,-1.4114,-1.4,-1.4,-1.4991,-1.6042,-1.7208,-1.85,-1.9795,-2.0974,-2.1081,-2.1074,-2.1081,-2.1067,-2.1181,-2.1181,-2.1181,-2.1181,-1.2439,0.0,-1.1078,-1.1032,-1.0877,-1.0898,-1.0904,-1.0866,-1.0911,-1.0692,-1.1021,-1.1131,-1.0802,-1.0802,-1.0911,-1.0692,-1.0692,-1.0802,-1.0911,-1.1019,-1.1164,-1.1456,-1.176,0.0,0.0,0.0,0.0,-1.223,-1.2234,-1.244,-1.3009,-1.3261,-1.3577,-1.3979,-1.398,-1.4074,-1.4403,-1.4272,-1.4272,-1.4403,-1.4141,-1.4141,-1.4403,-1.4403,-1.4539,-1.48,-1.48,-1.4931,-1.4931,-1.4931,-1.4931,-1.4931,-1.4931,-1.4931,-1.4931,-1.4931,-1.4931,-1.4931,-1.4931,-1.4931,-1.4931,-1.4931,-1.4931,-1.4931,-1.4931,-1.4931,-1.4931,-1.4931,-1.4931,-1.4931,-1.4931,-1.4931,-1.4931,-1.4931,-1.4931,-1.4931,-1.4931,-1.4931,-1.4931,-1.4931,-1.4931,-1.4931,-1.4931,-1.4931,-1.4931,-1.4931,-1.4931,-1.4907,-1.4841,-1.477,-1.5051,-1.5787,-1.5893,-1.6207,-1.6909,-1.6943,-1.6898,-1.6898,-1.7018,-1.7357,-1.7708,-1.8719,-1.9441,-1.991,-2.0737,-2.1211,-2.1211,-2.1211,-2.1211,-2.1211,-2.1211,-2.1211,-1.2636,-1.1764,-1.1196,-1.1314,-1.1233,-1.1095,-1.1101,-1.1189,-1.1142,-1.0816,-1.1146,-1.1359,-1.082,-1.1088,-1.1131,-1.0911,-1.0911,-1.1021,-1.1126,-1.1184,-1.1368,-1.1778,-1.2087,-1.2276,0.0,0.0,0.0,-1.2359,-1.2544,-1.2913,-1.3358,-1.3681,-1.4007,-1.4212,-1.434,-1.4403,-1.4534,-1.4403,-1.4403,-1.4403,-1.4272,-1.4403,-1.4534,-1.4534,-1.467,-1.4931,-1.4931,-1.4931,-1.4931,-1.4931,-1.4931,-1.4931,-1.4931,-1.4931,-1.4931,-1.4931,-1.4931,-1.4931,-1.4931,-1.4931,-1.4931,-1.4931,-1.4931,-1.4931,-1.4931,-1.4931,-1.4931,-1.4931,-1.4931,-1.4931,-1.4931,-1.4931,-1.4931,-1.4931,-1.4931,-1.4931,-1.4931,-1.4931,-1.4931,-1.4931,-1.5318,-1.5699,-1.5699,-1.6089,-1.6348,-1.6348,-1.6348,-1.6219,-1.5699,-1.6089,-1.6673,-1.7412,-1.7517,-1.7834,-1.8541,-1.8562,-1.8507,-1.8507,-1.8623,-1.8671,-1.8571,-1.9586,-2.0143,-2.0033,-2.0737,-2.1211,-2.1211,-2.1211,-2.1211,-2.1211,-2.1211,-2.1211,-1.2064,-1.1466,-1.1354,-1.1358,-1.1436,-1.1568,-1.1236,-1.1216,-1.1198,-1.0984,-1.1198,-1.1198,0.0,0.0,-1.1459,-1.1126,-1.135,-1.1459,-1.1236,-1.1522,-1.1942,0.0,0.0,0.0,0.0,0.0,0.0,-1.2733,0.0,-1.3477,-1.3412,-1.3875,-1.4203,-1.4399,-1.4403,-1.4534,-1.4931,-1.4534,-1.4403,-1.4403,-1.48,-1.4931,-1.4931,-1.4931,-1.4931,-1.4931,-1.4931,-1.4931,-1.4931,-1.4931,-1.4931,-1.4931,-1.4931,-1.4931,-1.4931,-1.4931,-1.4931,-1.4931,-1.4931,-1.4931,-1.4931,-1.4931,-1.4931,-1.4931,-1.4931,-1.4931,-1.4931,-1.4931,-1.4931,-1.4931,-1.4931,-1.4931,-1.4931,-1.4931,-1.4931,-1.4931,-1.4931,-1.4931,-1.4931,-1.4931,-1.6084,-1.6974,-1.7103,-1.8133,-1.9036,-1.9036,-1.9036,-1.8652,-1.7238,-1.8267,-1.9036,-1.9036,-1.9164,-1.9164,-1.9164,-1.9047,-1.8894,-1.8894,-1.9891,-2.0227,-1.9945,-2.1121,-2.1576,-2.1269,-2.1262,-2.1262,-2.1262,-2.1262,-2.1262,-2.1262,-2.1262,-2.1254,-1.2835,-1.1971,-1.1385,-1.1518,-1.1533,-1.1568,-1.1459,-1.1529,-1.1498,-1.1389,-1.1607,-1.1715,0.0,0.0,0.0,-1.1568,-1.1568,0.0,-1.1787,-1.197,0.0,-1.2483,0.0,-1.303,-1.2595,-1.3204,0.0,0.0,-1.336,-1.3601,-1.4048,-1.4261,-1.4594,-1.4796,-1.48,-1.48,-1.4931,-1.48,-1.48,-1.48,-1.48,-1.4931,-1.4931,-1.4931,-1.4931,-1.4931,-1.4931,-1.4931,-1.4931,-1.4931,-1.4931,-1.4931,-1.4931,-1.4931,-1.4931,-1.4931,-1.4931,-1.4931,-1.4931,-1.4931,-1.4931,-1.4931,-1.4931,-1.4931,-1.4931,-1.4931,-1.4931,-1.4931,-1.4931,-1.4931,-1.4931,-1.4931,-1.4931,-1.4931,-1.4931,-1.4931,-1.4931,-1.4931,-1.4931,-1.4931,-1.6084,-1.7361,-1.8262,-1.878,-1.9036,-1.9036,-1.9928,-2.0055,-1.8646,-1.878,-1.9419,-2.0443,-2.0569,-2.0949,-2.1964,-2.2013,-2.1971,-2.1971,-2.2053,-2.1976,-2.189,-2.2049,-2.2023,-2.1935,-2.1935,-2.1935,-2.1935,-2.1935,-2.1935,-2.1935,-2.1935,-2.1662,-1.2628,-1.1983,-1.1613,-1.1711,-1.1787,-1.1787,-1.1787,-1.1828,-1.1769,-1.1661,-1.1877,0.0,-1.1661,-1.1946,0.0,0.0,0.0,0.0,-1.2005,-1.2163,-1.2393,0.0,-1.3002,0.0,-1.2955,-1.3444,-1.3658,0.0,-1.372,-1.3983,-1.444,-1.4652,-1.4818,-1.4931,-1.4931,-1.4931,-1.4931,-1.4931,-1.4931,-1.4931,-1.4931,-1.4931,-1.4931,-1.4931,-1.4931,-1.4931,-1.4931,-1.4931,-1.4931,-1.4931,-1.4931,-1.4931,-1.4931,-1.4931,-1.4931,-1.4931,-1.4931,-1.4931,-1.4931,-1.4931,-1.4931,-1.4931,-1.4931,-1.4931,-1.4931,-1.4931,-1.4931,-1.4931,-1.4931,-1.4931,-1.4931,-1.4931,-1.4931,-1.4931,-1.4931,-1.4931,-1.4931,-1.4931,-1.5318,-1.6473,-1.7876,-1.9279,-2.0563,-2.0816,-2.0816,-2.0816,-2.1454,-2.1713,-2.0943,-2.0816,-2.1069,-2.1839,-2.1964,-2.2223,-2.2981,-2.3106,-2.3106,-2.3106,-2.2937,-2.2769,-2.263,-2.2462,-2.2315,-2.2184,-2.2184,-2.2184,-2.2184,-2.2184,-2.2184,-2.2184,-2.2184,-2.2035,-1.1961,-1.1764,-1.1759,-1.1955,-1.2005,-1.2005,-1.2005,-1.2089,-1.2075,-1.1861,0.0,-1.2075,-1.1861,-1.2107,-1.2332,-1.2114,0.0,-1.2332,-1.2114,-1.2183,-1.2501,-1.3041,-1.3022,-1.299,-1.3306,-1.3564,-1.3667,-1.366,-1.4088,-1.4407,-1.4619,-1.4822,-1.4931,-1.4931,-1.4931,-1.4931,-1.4931,-1.4931,-1.4931,-1.4931,-1.4931,-1.4931,-1.4931,-1.4931,-1.4931,-1.4931,-1.4931,-1.4931,-1.4931,-1.4931,-1.4931,-1.4931,-1.4931,-1.4931,-1.4931,-1.4931,-1.4931,-1.4931,-1.4931,-1.4931,-1.4931,-1.4931,-1.4931,-1.4931,-1.4931,-1.4931,-1.4931,-1.4931,-1.4931,-1.4931,-1.4931,-1.4931,-1.4931,-1.4931,-1.4931,-1.4931,-1.5187,-1.5318,-1.6219,-1.878,-2.0309,-2.1587,-2.2856,-2.3106,-2.3106,-2.3106,-2.3106,-2.3106,-2.3106,-2.3106,-2.3106,-2.3106,-2.3106,-2.3106,-2.3106,-2.3106,-2.3106,-2.3106,-2.3106,-2.2981,-2.2696,-2.2689,-2.2564,-2.2308,-2.2308,-2.2308,-2.2308,-2.2308,-2.2308,-2.2308,-2.2308,-2.2308,-1.1756,-1.1558,-1.1759,-1.1955,-1.2005,-1.2114,-1.2332,-1.2195,0.0,0.0,-1.2167,-1.2064,-1.2281,-1.2304,-1.2327,-1.2332,0.0,0.0,0.0,0.0,-1.2843,0.0,-1.3258,-1.3348,-1.355,-1.3688,0.0,0.0,-1.4293,-1.4407,-1.4619,-1.4822,-1.4931,-1.4931,-1.4931,-1.4931,-1.4931,-1.4931,-1.4931,-1.4931,-1.4931,-1.4931,-1.4931,-1.4931,-1.4931,-1.4931,-1.4931,0.0,-1.4931,-1.4931,-1.4931,-1.4931,-1.4931,-1.4931,-1.4931,-1.4931,-1.4931,-1.4931,-1.4931,-1.4931,-1.4931,-1.4931,-1.4931,-1.4931,-1.4931,-1.4931,-1.4931,-1.4931,-1.4931,-1.4931,-1.4931,-1.4931,-1.4931,-1.4931,-1.4931,-1.5187,-1.6338,-1.7496,-1.878,-2.0443,-2.0949,-2.1587,-2.2856,-2.3106,-2.3106,-2.3106,-2.3106,-2.3106,-2.3106,-2.3106,-2.3106,-2.3106,-2.3106,-2.3106,-2.3106,-2.3106,-2.3106,-2.3106,-2.3106,-2.3084,-2.3025,-2.3025,-2.3003,-2.2945,-2.2945,-2.2945,-2.2945,-2.2945,-2.2945,-2.2945,-2.2945,-2.2945,-1.1761,-1.1764,-1.1972,-1.2172,-1.2223,-1.2223,-1.2332,0.0,0.0,0.0,-1.2332,-1.2223,-1.2332,0.0,0.0,0.0,0.0,0.0,0.0,0.0,0.0,-1.3032,-1.3159,-1.3343,0.0,-1.3688,-1.3863,-1.4279,-1.4312,-1.4449,-1.4775,-1.4879,-1.4931,-1.4931,-1.4931,-1.4931,-1.4931,-1.4931,-1.4931,-1.4931,-1.4931,-1.4931,-1.4931,-1.4931,-1.4931,-1.4931,-1.4931,-1.4931,-1.4931,-1.4931,-1.4931,-1.4931,-1.4931,-1.4931,-1.4931,-1.4931,-1.4931,-1.4931,-1.4931,-1.4931,-1.4931,-1.4931,-1.4931,-1.4931,-1.4931,-1.4931,-1.4931,-1.4931,-1.4931,-1.4931,-1.4931,-1.4931,-1.4931,-1.4931,-1.5443,-1.6343,-1.7748,-1.9158,-2.0309,-2.0949,-2.1713,-2.2348,-2.2981,-2.3106,-2.3106,-2.3106,-2.3106,-2.3106,-2.3106,-2.3106,-2.3106,-2.3106,-2.3106,-2.3106,-2.3106,-2.3106,-2.3106,-2.3106,-2.3106,-2.3106,-2.3106,-2.3106,-2.3106,-2.3106,-2.3106,-2.3106,-2.3106,-2.3106,-2.3106,-2.3106,-2.3106,-2.3106,-1.1699,-1.194,-1.2186,-1.2389,-1.2441,-1.2441,-1.2441,-1.2441,0.0,0.0,-1.2441,-1.2441,-1.2441,0.0,-1.2441,0.0,0.0,0.0,0.0,0.0,0.0,0.0,-1.3065,0.0,-1.3651,-1.3688,0.0,-1.4279,-1.4392,-1.4586,-1.4917,-1.4931,-1.4931,-1.4931,-1.4931,-1.4931,-1.4931,-1.4931,-1.4931,-1.4931,-1.4931,-1.4931,-1.4931,-1.4931,-1.4931,-1.4931,-1.4931,-1.4931,-1.4931,-1.4931,-1.4931,-1.4931,-1.4931,-1.4931,-1.4931,-1.4931,-1.4931,-1.4931,-1.4931,-1.4931,-1.4931,-1.4931,-1.4931,-1.4931,-1.4931,-1.4931,-1.4931,-1.4931,-1.4931,-1.4931,-1.4931,-1.5062,-1.5443,-1.5704,-1.685,-1.8127,-1.9164,-2.0563,-2.1587,-2.1587,-2.2348,-2.3106,-2.3106,-2.3106,-2.3106,-2.3106,-2.3106,-2.3106,-2.3106,-2.3106,-2.3106,-2.3106,-2.3106,-2.3106,-2.3106,-2.3106,-2.3106,-2.3106,-2.3106,-2.3106,-2.3106,-2.3106,-2.3106,-2.3106,-2.3106,-2.3106,-2.3106,-2.3106,-2.3106,-2.3106,-2.3106,-2.3106,-1.1487,-1.1836,-1.2186,-1.2389,-1.2441,-1.2441,-1.2441,0.0,0.0,-1.2441,-1.2441,-1.2441,-1.2441,-1.2441,-1.2441,0.0,0.0,0.0,0.0,0.0,0.0,0.0,0.0,0.0,-1.3651,-1.3688,-1.3863,-1.4279,-1.4662,-1.4893,-1.4931,-1.4931,-1.4931,-1.4931,-1.4931,-1.4931,-1.4931,-1.4931,-1.4931,-1.4931,-1.4931,-1.4931,-1.4931,-1.4931,-1.4931,-1.4931,-1.4931,-1.4931,0.0,-1.4931,-1.4931,-1.4931,-1.4931,-1.4931,-1.4931,-1.4931,-1.4931,-1.4931,-1.4931,-1.4931,-1.4931,-1.4931,-1.4931,-1.4931,-1.4931,-1.4931,-1.4931,-1.4931,-1.4931,-1.4931,-1.4931,-1.5829,-1.7109,-1.8267,-1.9674,-2.0823,-2.0823,-2.1964,-2.2981,-2.2981,-2.2981,-2.3106,-2.3106,-2.3106,-2.3106,-2.3106,-2.3106,-2.3106,-2.3106,-2.3106,-2.3106,-2.3106,-2.3106,-2.3106,-2.3106,-2.3106,-2.3106,-2.3106,-2.3106,-2.3106,-2.3106,-2.3106,-2.3106,-2.3106,-2.3106,-2.3106,-2.3106,-2.3106,-2.3106,-2.3106,-2.3106,-2.3106,-1.1264,-1.1628,-1.1997,-1.2209,-1.2351,-1.2441,-1.2441,0.0,-1.2441,-1.2441,-1.2441,-1.2441,-1.2441,-1.2441,-1.2441,0.0,0.0,0.0,0.0,0.0,0.0,0.0,-1.2994,0.0,0.0,0.0,-1.3863,-1.4279,-1.4695,-1.4931,-1.4931,-1.4931,-1.4931,-1.4931,-1.4931,-1.4931,-1.4931,-1.4931,-1.4931,-1.4931,-1.4931,-1.4931,-1.4931,-1.4931,-1.4931,-1.4931,-1.4931,-1.4931,0.0,-1.4931,-1.4931,-1.4931,-1.4931,-1.4931,-1.4931,-1.4931,-1.4931,-1.4931,-1.4931,-1.4931,-1.4931,-1.4931,-1.4931,-1.4931,-1.4931,-1.4931,-1.4931,-1.4931,-1.4931,-1.5057,-1.5954,-1.7238,-1.8518,-1.9928,-2.0696,-2.1328,-2.209,-2.2724,-2.3106,-2.3106,-2.3106,-2.3106,-2.3106,-2.3106,-2.3106,-2.3106,-2.3106,-2.3106,-2.3106,-2.3106,-2.3106,-2.3106,-2.3106,-2.3106,-2.3106,-2.3106,-2.3106,-2.3106,-2.3106,-2.3106,-2.3106,-2.3106,-2.3106,-2.3106,-2.3106,-2.3106,-2.3106,-2.3106,-2.3106,-2.3106,-2.3106,-2.3106,-1.1052,-1.1453,-1.1869,-1.2087,-1.229,-1.2441,0.0,0.0,-1.2441,-1.2441,-1.2441,-1.2441,-1.2441,-1.2441,-1.2441,0.0,0.0,-1.2441,0.0,0.0,0.0,0.0,0.0,-1.3126,0.0,-1.3589,-1.3929,-1.4284,-1.4695,-1.4931,-1.4931,-1.4931,-1.4931,-1.4931,-1.4931,-1.4931,-1.4931,-1.4931,-1.4931,-1.4931,-1.4931,-1.4931,-1.4931,-1.4931,-1.4931,-1.4931,-1.4931,-1.4931,0.0,-1.4931,-1.4931,-1.4931,-1.4931,-1.4931,-1.4931,-1.4931,-1.4931,-1.4931,-1.4931,-1.4931,-1.4931,-1.4931,-1.5187,-1.5574,-1.5574,-1.5187,-1.4931,-1.5443,-1.5834,-1.6473,-1.7876,-1.8902,-1.9928,-2.1328,-2.1713,-2.1964,-2.2856,-2.3106,-2.3106,-2.3106,-2.3106,-2.3106,-2.3106,-2.3106,-2.3106,-2.3106,-2.3106,-2.3106,-2.3106,-2.3106,-2.3106,-2.3106,-2.3106,-2.3106,-2.3106,-2.3106,-2.3106,-2.3106,-2.3106,-2.3106,-2.3106,-2.3106,-2.3106,-2.3106,-2.3106,-2.3106,-2.3106,-2.3106,-2.3106,-2.3106,-2.3106,-2.3106,-1.0839,-1.135,-1.1869,-1.2087,-1.229,-1.2441,0.0,0.0,-1.2441,-1.2441,-1.2441,-1.2441,-1.2441,-1.2441,-1.2441,-1.2441,0.0,0.0,0.0,0.0,0.0,0.0,0.0,-1.3065,-1.3069,-1.3641,-1.409,-1.4293,-1.4695,0.0,-1.4931,-1.4931,-1.4931,-1.4931,-1.4931,-1.4931,-1.4931,-1.4931,-1.4931,-1.4931,-1.4931,-1.4931,-1.4931,-1.4931,-1.4931,-1.4931,-1.4931,-1.4931,0.0,-1.4931,-1.4931,-1.4931,-1.4931,-1.4931,-1.4931,-1.4931,-1.4931,-1.4931,-1.4931,-1.4931,-1.4931,-1.4931,-1.5829,-1.698,-1.698,-1.5954,-1.5187,-1.6597,-1.7876,-1.9291,-2.0696,-2.1076,-2.1461,-2.2731,-2.3113,-2.3113,-2.3106,-2.3106,-2.3106,-2.3106,-2.3106,-2.3106,-2.3106,-2.3106,-2.3106,-2.3106,-2.3106,-2.3106,-2.3106,-2.3106,-2.3106,-2.3106,-2.3106,-2.3106,-2.3106,-2.3106,-2.3106,-2.3106,-2.3106,-2.3106,-2.3106,-2.3106,-2.3106,-2.3106,-2.3106,-2.3106,-2.3106,-2.3106,-2.3106,-2.3106,-2.3106,-2.3106,-1.0622,-1.1137,-1.1661,-1.1869,-1.2181,-1.2441,-1.2441,0.0,-1.2441,-1.2441,-1.2441,-1.2441,-1.2441,-1.2441,-1.2441,-1.2441,-1.2441,0.0,0.0,0.0,0.0,0.0,-1.2729,-1.3032,0.0,0.0,-1.4095,-1.4293,-1.4695,-1.4931,-1.4931,-1.4931,-1.4931,-1.4931,-1.4931,-1.4931,-1.4931,-1.4931,-1.4931,-1.4931,-1.4931,-1.4931,-1.4931,-1.4931,-1.4931,-1.4931,-1.4931,-1.4931,-1.4931,-1.4931,-1.4931,-1.4931,-1.4931,-1.4931,-1.4931,-1.4931,-1.4931,-1.4931,-1.4931,-1.4931,-1.4931,-1.4931,-1.5829,-1.698,-1.698,-1.7367,-1.7753,-1.8267,-1.9419,-2.0569,-2.0949,-2.1839,-2.2598,-2.2981,-2.3106,-2.3106,-2.3106,-2.3106,-2.3106,-2.3106,-2.3106,-2.3106,-2.3106,-2.3106,-2.3106,-2.3106,-2.3106,-2.3106,-2.3106,-2.3106,-2.3106,-2.3106,-2.3106,-2.3106,-2.3106,-2.3106,-2.3106,-2.3106,-2.3106,-2.3106,-2.3106,-2.3106,-2.3106,-2.3106,-2.3106,-2.3106,-2.3106,-2.3106,-2.3106,-2.3106,-2.3106,-2.3106,0.0,-1.1038,-1.1567,-1.1765,-1.2129,0.0,0.0,0.0,0.0,0.0,-1.2441,-1.2441,-1.2441,-1.2441,-1.2441,-1.2441,-1.2441,0.0,0.0,0.0,0.0,-1.2658,0.0,0.0,0.0,-1.3811,-1.4005,-1.4288,-1.4695,-1.4931,-1.4931,-1.4931,-1.4931,-1.4931,-1.4931,-1.4931,-1.4931,-1.4931,-1.4931,-1.4931,-1.4931,-1.4931,-1.4931,-1.4931,-1.4931,-1.4931,-1.4931,-1.4931,0.0,-1.4931,-1.4931,-1.4931,-1.4931,-1.4931,-1.4931,-1.4931,-1.4931,-1.4931,-1.5574,-1.5699,-1.5829,-1.6213,-1.7367,-1.864,-1.9152,-1.9534,-1.9801,-1.9801,-2.0823,-2.1839,-2.1839,-2.2473,-2.3106,-2.3106,-2.3106,-2.3106,-2.3106,-2.3106,-2.3106,-2.3106,-2.3106,-2.3106,-2.3106,-2.3106,-2.3106,-2.3106,-2.3106,-2.3106,-2.3106,-2.3106,-2.3106,-2.3106,-2.3106,-2.3106,-2.3106,-2.3106,-2.3106,-2.3106,-2.3106,-2.3106,-2.3106,-2.3106,-2.3106,-2.3106,-2.3106,-2.3106,-2.3106,-2.3106,-2.3106,-2.3106,-2.3106,-2.3106,0.0,0.0,0.0,0.0,0.0,0.0,0.0,0.0,0.0,0.0,0.0,0.0,-1.2441,-1.2441,-1.2441,-1.2441,0.0,0.0,0.0,0.0,0.0,0.0,-1.271,0.0,-1.3608,-1.3688,-1.3863,-1.4279,-1.4695,-1.4931,-1.4931,-1.4931,-1.4931,-1.4931,-1.4931,-1.4931,-1.4931,-1.4931,-1.4931,-1.4931,-1.4931,-1.4931,-1.4931,-1.4931,-1.4931,-1.4931,-1.4931,-1.4931,-1.4931,-1.4931,-1.4931,-1.4931,-1.4931,-1.4931,-1.5062,-1.5062,-1.5057,-1.5318,-1.6726,-1.7109,-1.7361,-1.8646,-2.0055,-2.1328,-2.2724,-2.2215,-2.1202,-2.1202,-2.2097,-2.3106,-2.3106,-2.3106,-2.3106,-2.3106,-2.3106,-2.3106,-2.3106,-2.3106,-2.3106,-2.3106,-2.3106,-2.3106,-2.3106,-2.3106,-2.3106,-2.3106,-2.3106,-2.3106,-2.3106,-2.3106,-2.3106,-2.3106,-2.3106,-2.3106,-2.3106,-2.3106,-2.3106,-2.3106,-2.3106,-2.3106,-2.3106,-2.3106,-2.3106,-2.3106,-2.3106,-2.3106,-2.3106,-2.3106,-2.3106,-2.3106,-2.3106,-2.3106,-1.0504,0.0,-1.1359,-1.1723,-1.2129,0.0,0.0,0.0,0.0,0.0,0.0,0.0,0.0,0.0,0.0,0.0,0.0,0.0,-1.2441,0.0,0.0,-1.3036,-1.2843,-1.2951,-1.3622,-1.3688,-1.3863,-1.4279,-1.4695,-1.4931,-1.4931,-1.4931,-1.4931,-1.4931,-1.4931,-1.4931,-1.4931,-1.4931,-1.4931,-1.4931,-1.4931,-1.4931,-1.4931,-1.4931,-1.4931,-1.4931,-1.4931,-1.4931,-1.4931,-1.4931,-1.4931,-1.4931,-1.4931,-1.5574,-1.6467,-1.6467,-1.7109,-1.8139,-1.8396,-1.8524,-1.878,-2.0182,-2.0823,-2.1328,-2.2724,-2.2856,-2.2598,-2.2598,-2.2856,-2.3106,-2.3106,-2.3106,-2.3106,-2.3106,-2.3106,-2.3106,-2.3106,-2.3106,-2.3106,-2.3106,-2.3106,-2.3106,-2.3106,-2.3106,-2.3106,-2.3106,-2.3106,-2.3106,-2.3106,-2.3106,-2.3106,-2.3106,-2.3106,-2.3106,-2.3106,-2.3106,-2.3106,-2.3106,-2.3106,-2.3106,-2.3106,-2.3106,-2.3106,-2.3106,-2.3106,-2.3106,-2.3106,-2.3106,-2.3106,-2.3106,-2.3106,-2.3106,-1.049,-1.0877,-1.1293,-1.1713,-1.2129,-1.2441,0.0,0.0,0.0,0.0,0.0,0.0,0.0,0.0,0.0,0.0,-1.2441,0.0,0.0,0.0,0.0,-1.2918,-1.2833,-1.2975,0.0,-1.3636,-1.3863,-1.4279,-1.4695,-1.4931,-1.4931,-1.4931,-1.4931,-1.4931,-1.4931,-1.4931,-1.4931,-1.4931,-1.4931,-1.4931,-1.4931,-1.5187,-1.5829,-1.5829,-1.6213,-1.6726,-1.6726,-1.6726,-1.6726,-1.6726,-1.6726,-1.6726,-1.6726,-1.7243,-1.7876,-1.7876,-1.8396,-1.9036,-1.9801,-2.0309,-2.1076,-2.1713,-2.1964,-2.209,-2.2856,-2.3106,-2.3106,-2.3106,-2.3106,-2.3106,-2.3106,-2.3106,-2.3106,-2.3106,-2.3106,-2.3106,-2.3106,-2.3106,-2.3106,-2.3106,-2.3106,-2.3106,-2.3106,-2.3106,-2.3106,-2.3106,-2.3106,-2.3106,-2.3106,-2.3106,-2.3106,-2.3106,-2.3106,-2.3106,-2.3106,-2.3106,-2.3106,-2.3106,-2.3106,-2.3106,-2.3106,-2.3106,-2.3106,-2.3106,-2.3106,-2.3106,-2.3106,-2.3106,-2.3106,-2.3106,-2.3106,-2.3106,-1.0456,-1.0853,-1.1255,-1.1704,-1.211,-1.2403,0.0,0.0,0.0,0.0,0.0,0.0,0.0,0.0,0.0,0.0,0.0,0.0,-1.2441,-1.2658,-1.28,-1.2772,-1.2795,0.0,-1.3353,-1.3542,-1.383,-1.4274,-1.479,-1.5154,-1.5187,-1.5443,-1.5448,-1.5187,-1.5187,-1.5062,-1.4931,-1.4931,-1.4931,-1.4931,-1.4931,-1.5699,-1.698,-1.698,-1.7748,-1.9036,-1.9036,0.0,-1.9036,-1.9036,-1.9036,-1.9036,-1.9036,-1.9164,-1.9291,-1.9291,-1.9419,-1.9801,-2.0949,-2.209,-2.3106,-2.3106,-2.3106,-2.3106,-2.3106,-2.3106,-2.3106,-2.3106,-2.3106,-2.3106,-2.3106,-2.3106,-2.3106,-2.3106,-2.3106,-2.3106,-2.3106,-2.3106,-2.3106,-2.3106,-2.3106,-2.3106,-2.3106,-2.3106,-2.3106,-2.3106,-2.3106,-2.3106,-2.3106,-2.3106,-2.3106,-2.3106,-2.3106,-2.3106,-2.3106,-2.3106,-2.3106,-2.3106,-2.3106,-2.3106,-2.3106,-2.3106,-2.3106,-2.3106,-2.3106,-2.3106,-2.3106,-2.3106,-2.3106,-2.3106,-2.3106,-2.3106,-1.0456,-1.0754,-1.108,-1.1671,-1.2002,-1.2228,0.0,0.0,0.0,0.0,0.0,0.0,0.0,0.0,0.0,0.0,0.0,-1.2441,0.0,0.0,-1.2956,-1.2786,0.0,-1.3121,-1.3367,-1.3419,-1.3679,-1.4265,-1.5661,-1.652,-1.6711,-1.7753,-1.7882,-1.6721,-1.6721,-1.6084,-1.4931,-1.4931,-1.4931,-1.4931,-1.4931,-1.5699,-1.698,-1.698,-1.7748,-1.9036,0.0,-1.9036,-1.9036,-1.9036,-1.9036,-1.9036,-1.9036,-1.9674,-2.0823,-2.0823,-2.1461,-2.2473,-2.2724,-2.2981,-2.3106,-2.3106,-2.3106,-2.3106,-2.3106,-2.3106,-2.3106,-2.3106,-2.3106,-2.3106,-2.3106,-2.3106,-2.3106,-2.3106,-2.3106,-2.3106,-2.3106,-2.3106,-2.3106,-2.3106,-2.3106,-2.3106,-2.3106,-2.3106,-2.3106,-2.3106,-2.3106,-2.3106,-2.3106,-2.3106,-2.3106,-2.3106,-2.3106,-2.3106,-2.3106,-2.3106,-2.3106,-2.3106,-2.3106,-2.3106,-2.3106,-2.3106,-2.3106,-2.3106,-2.3106,-2.3106,-2.3106,-2.3106,-2.3106,-2.3106,-2.3106,-2.3106,-1.0456,-1.0645,-1.0901,-1.1633,-1.1983,-1.2191,-1.2394,0.0,0.0,0.0,0.0,0.0,0.0,0.0,-1.2441,-1.2441,0.0,-1.2479,-1.2602,-1.2876,-1.2994,0.0,0.0,-1.3065,-1.3055,-1.3258,-1.3902,-1.4902,-1.6111,-1.7058,-1.7799,-1.8575,-1.839,-1.698,-1.698,-1.6721,-1.6084,-1.6084,-1.6084,-1.6084,-1.6084,-1.7109,-1.9285,-1.9285,-1.9922,-2.1195,0.0,-2.1195,-2.1195,-2.1195,-2.1195,-2.1195,-2.1195,-2.158,-2.2215,-2.2215,-2.2598,-2.3106,-2.3106,-2.3106,-2.3106,-2.3106,-2.3106,-2.3106,-2.3106,-2.3106,-2.3106,-2.3106,-2.3106,-2.3106,-2.3106,-2.3106,-2.3106,-2.3106,-2.3106,-2.3106,-2.3106,-2.3106,-2.3106,-2.3106,-2.3106,-2.3106,-2.3106,-2.3106,-2.3106,-2.3106,-2.3106,-2.3106,-2.3106,-2.3106,-2.3106,-2.3106,-2.3106,-2.3106,-2.3106,-2.3106,-2.3106,-2.3106,-2.3106,-2.3106,-2.3106,-2.3106,-2.3106,-2.3106,-2.3106,-2.3106,-2.3106,-2.3106,-2.3106,-2.3106,-2.3106,-2.3106,-1.0475,-1.0645,-1.0896,-1.1633,0.0,-1.2129,-1.238,0.0,0.0,0.0,0.0,0.0,0.0,0.0,0.0,-1.2441,-1.2441,-1.2517,-1.2739,-1.2942,-1.2994,-1.2791,-1.2947,-1.2989,-1.2786,-1.3322,-1.4224,-1.5553,-1.6736,-1.7882,-1.8875,-1.9588,-1.9218,-1.7999,-1.8005,-1.7748,-1.749,-1.749,-1.749,-1.749,-1.749,-1.8768,-2.1076,-2.1076,-2.1839,-2.3106,-2.3106,-2.3106,-2.3106,-2.3106,-2.3106,-2.3106,-2.3106,-2.3106,-2.3106,-2.3106,-2.3106,-2.3106,-2.3106,-2.3106,-2.3106,-2.3106,-2.3106,-2.3106,-2.3106,-2.3106,-2.3106,-2.3106,-2.3106,-2.3106,-2.3106,-2.3106,-2.3106,-2.3106,-2.3106,-2.3106,-2.3106,-2.3106,-2.3106,-2.3106,-2.3106,-2.3106,-2.3106,-2.3106,-2.3106,-2.3106,-2.3106,-2.3106,-2.3106,-2.3106,-2.3106,-2.3106,-2.3106,-2.3106,-2.3106,-2.3106,-2.3106,-2.3106,-2.3106,-2.3106,-2.3106,-2.3106,-2.3106,-2.3106,-2.3106,-2.3106,-2.3106,-2.3106,-2.3106,-2.3106,-2.3106,-2.3106,-1.0513,-1.0858,-1.1255,-1.1704,-1.1831,0.0,-1.2346,-1.2441,0.0,0.0,0.0,0.0,0.0,-1.2441,-1.2441,-1.2441,-1.2441,-1.2517,-1.2739,0.0,-1.2994,-1.2791,-1.2947,-1.2989,-1.2786,-1.3964,-1.5074,-1.5537,-1.8089,-1.9826,-2.0478,-2.1649,-2.1913,-2.0816,-2.0816,-2.0182,-1.8908,-1.8908,-1.8908,-1.8908,-1.8908,-1.9674,-2.1076,-2.1076,-2.1839,-2.3106,-2.3106,-2.3106,-2.3106,-2.3106,-2.3106,-2.3106,-2.3106,-2.3106,-2.3106,-2.3106,-2.3106,-2.3106,-2.3106,-2.3106,-2.3106,-2.3106,-2.3106,-2.3106,-2.3106,-2.3106,-2.3106,-2.3106,-2.3106,-2.3106,-2.3106,-2.3106,-2.3106,-2.3106,-2.3106,-2.3106,-2.3106,-2.3106,-2.3106,-2.3106,-2.3106,-2.3106,-2.3106,-2.3106,-2.3106,-2.3106,-2.3106,-2.3106,-2.3106,-2.3106,-2.3106,-2.3106,-2.3106,-2.3106,-2.3106,-2.3106,-2.3106,-2.3106,-2.3106,-2.3106,-2.3106,-2.3106,-2.3106,-2.3106,-2.3106,-2.3106,-2.3106,-2.3106,-2.3106,-2.3106,-2.3106,-2.3106,-1.0518,-1.0877,-1.1293,-1.1713,0.0,0.0,0.0,0.0,0.0,0.0,0.0,0.0,0.0,0.0,-1.2441,-1.2441,-1.2441,-1.2774,-1.3902,-1.3581,-1.3373,-1.4076,-1.3468,-1.3272,-1.3581,-1.4415,-1.5609,-1.727,-1.892,-2.023,-2.1188,-2.1995,-2.1868,-2.0788,-2.0802,-2.0638,-2.0309,-2.0309,-2.069,-2.158,-2.0696,-2.1076,-2.2341,-2.2341,-2.2598,-2.3106,-2.3106,-2.3106,-2.3106,-2.3106,-2.3106,-2.3106,-2.3106,-2.3106,-2.3106,-2.3106,-2.3106,-2.3106,-2.3106,-2.3106,-2.3106,-2.3106,-2.3106,-2.3106,-2.3106,-2.3106,-2.3106,-2.3106,-2.3106,-2.3106,-2.3106,-2.3106,-2.3106,-2.3106,-2.3106,-2.3106,-2.3106,-2.3106,-2.3106,-2.3106,-2.3106,-2.3106,-2.3106,-2.3106,-2.3106,-2.3106,-2.3106,-2.3106,-2.3106,-2.3106,-2.3106,-2.3106,-2.3106,-2.3106,-2.3106,-2.3106,-2.3106,-2.3106,-2.3106,-2.3106,-2.3106,-2.3106,-2.3106,-2.3106,-2.3106,-2.3106,-2.3106,-2.3106,-2.3106,-2.3106,-2.3106,-2.3106,-1.0622,-1.1023,-1.1458,0.0,0.0,0.0,0.0,0.0,0.0,0.0,0.0,0.0,0.0,0.0,0.0,0.0,-1.2762,-1.3451,-1.4681,-1.4189,-1.3992,-1.4966,-1.4236,-1.382,-1.4206,-1.522,-1.666,-1.8417,-1.9435,-2.0522,-2.1686,-2.1906,-2.1802,-2.1114,-2.1121,-2.1224,-2.1438,-2.1438,-2.1983,-2.2952,-2.2075,-2.2124,-2.3106,-2.3106,-2.3106,-2.3106,-2.3106,-2.3106,-2.3106,-2.3106,-2.3106,-2.3106,-2.3106,-2.3106,-2.3106,-2.3106,-2.3106,-2.3106,-2.3106,-2.3106,-2.3106,-2.3106,-2.3106,-2.3106,-2.3106,-2.3106,-2.3106,-2.3106,-2.3106,-2.3106,-2.3106,-2.3106,-2.3106,-2.3106,-2.3106,-2.3106,-2.3106,-2.3106,-2.3106,-2.3106,-2.3106,-2.3106,-2.3106,-2.3106,-2.3106,-2.3106,-2.3106,-2.3106,-2.3106,-2.3106,-2.3106,-2.3106,-2.3106,-2.3106,-2.3106,-2.3106,-2.3106,-2.3106,-2.3106,-2.3106,-2.3106,-2.3106,-2.3106,-2.3106,-2.3106,-2.3106,-2.3106,-2.3106,-2.3106,-2.3106,-2.3106,-2.3106,-1.0839,-1.1345,0.0,0.0,0.0,0.0,0.0,0.0,0.0,0.0,0.0,-1.2441,-1.2441,-1.2441,0.0,-1.2441,-1.3413,-1.4331,-1.4901,-1.4864,-1.4966,-1.5313,-1.502,-1.4783,-1.453,-1.6683,-1.811,-1.8507,-1.9849,-2.1006,-2.165,-2.1686,-2.184,-2.2169,-2.2184,-2.2184,-2.2184,-2.2184,-2.233,-2.2615,-2.2615,-2.2791,-2.3106,-2.3106,-2.3106,-2.3106,-2.3106,-2.3106,-2.3106,-2.3106,-2.3106,-2.3106,-2.3106,-2.3106,-2.3106,-2.3106,-2.3106,-2.3106,-2.3106,-2.3106,-2.3106,-2.3106,-2.3106,-2.3106,-2.3106,-2.3106,-2.3106,-2.3106,-2.3106,-2.3106,-2.3106,-2.3106,-2.3106,-2.3106,-2.3106,-2.3106,-2.3106,-2.3106,-2.3106,-2.3106,-2.3106,-2.3106,-2.3106,-2.3106,-2.3106,-2.3106,-2.3106,-2.3106,-2.3106,-2.3106,-2.3106,-2.3106,-2.3106,-2.3106,-2.3106,-2.3106,-2.3106,-2.3106,-2.3106,-2.3106,-2.3106,-2.3106,-2.3106,-2.3106,-2.3106,-2.3106,-2.3106,-2.3106,-2.3106,-2.3106,-2.3106,-2.3106,-1.0877,0.0,0.0,0.0,0.0,0.0,0.0,0.0,0.0,0.0,0.0,-1.2441,-1.2441,-1.2441,0.0,-1.3521,-1.3948,-1.4916,-1.6861,-1.6525,-1.6452,-1.7434,-1.6857,-1.6517,-1.6945,-1.7843,-1.8694,-1.9355,-2.0185,-2.0808,-2.1006,-2.1233,-2.1503,-2.1832,-2.184,-2.195,-2.2184,-2.2184,-2.2228,-2.2315,-2.2315,-2.2593,-2.3106,-2.3106,-2.3106,-2.3106,-2.3106,-2.3106,-2.3106,-2.3106,-2.3106,-2.3106,-2.3106,-2.3106,-2.3106,-2.3106,-2.3106,-2.3106,-2.3106,-2.3106,-2.3106,-2.3106,-2.3106,-2.3106,-2.3106,-2.3106,-2.3106,-2.3106,-2.3106,-2.3106,-2.3106,-2.3106,-2.3106,-2.3106,-2.3106,-2.3106,-2.3106,-2.3106,-2.3106,-2.3106,-2.3106,-2.3106,-2.3106,-2.3106,-2.3106,-2.3106,-2.3106,-2.3106,-2.3106,-2.3106,-2.3106,-2.3106,-2.3106,-2.3106,-2.3106,-2.3106,-2.3106,-2.3106,-2.3106,-2.3106,-2.3106,-2.3106,-2.3106,-2.3106,-2.3106,-2.3106,-2.3106,-2.3106,-2.3106,-2.3106,-2.3106,-2.3106,-1.0995,0.0,0.0,0.0,0.0,0.0,0.0,0.0,0.0,0.0,0.0,-1.33,-1.3722,-1.3403,0.0,-1.4696,-1.5232,-1.6065,-1.7727,-1.7689,-1.7693,-1.8479,-1.8081,-1.7936,-1.826,-1.8844,-1.9365,-1.9967,-2.0311,-2.0589,-2.0713,-2.0911,-2.1167,-2.1496,-2.1503,-2.1598,-2.1796,-2.1796,-2.1862,-2.1986,-2.1986,-2.2257,-2.2747,-2.2864,-2.2915,-2.2923,-2.3054,-2.3106,-2.3106,-2.3106,-2.3106,-2.3106,-2.3106,-2.3106,-2.3106,-2.3106,-2.3106,-2.3106,-2.3106,-2.3106,-2.3106,-2.3106,-2.3106,-2.3106,-2.3106,-2.3106,-2.3106,-2.3106,-2.3106,-2.3106,-2.3106,-2.3106,-2.3106,-2.3106,-2.3106,-2.3106,-2.3106,-2.3106,-2.3106,-2.3106,-2.3106,-2.3106,-2.3106,-2.3106,-2.3106,-2.3106,-2.3106,-2.3106,-2.3106,-2.3106,-2.3106,-2.3106,-2.3106,-2.3106,-2.3106,-2.3106,-2.3106,-2.3106,-2.3106,-2.3106,-2.3106,-2.3106,-2.3106,-2.3106,-2.3106,-2.3106,-2.3106,-2.3106,-2.3106,-2.3106,-2.3106,-2.3106,0.0,0.0,0.0,0.0,0.0,0.0,0.0,0.0,0.0,0.0,0.0,-1.4696,-1.5755,-1.5013,-1.4696,-1.5861,-1.6935,-1.7775,-1.8023,-1.8319,-1.8628,-1.8917,-1.8978,-1.8998,-1.8998,-1.9771,-2.0267,-2.0237,-2.0267,-2.0413,-2.0706,-2.075,-2.0903,-2.1203,-2.1211,-2.1211,-2.1211,-2.1211,-2.1357,-2.165,-2.165,-2.1803,-2.2103,-2.2432,-2.2579,-2.2601,-2.2923,-2.3062,-2.3069,-2.3098,-2.3106,-2.3106,-2.3106,-2.3106,-2.3106,-2.3106,-2.3106,-2.3106,-2.3106,-2.3106,-2.3106,-2.3106,-2.3106,-2.3106,-2.3106,-2.3106,-2.3106,-2.3106,-2.3106,-2.3106,-2.3106,-2.3106,-2.3106,-2.3106,-2.3106,-2.3106,-2.3106,-2.3106,-2.3106,-2.3106,-2.3106,-2.3106,-2.3106,-2.3106,-2.3106,-2.3106,-2.3106,-2.3106,-2.3106,-2.3106,-2.3106,-2.3106,-2.3106,-2.3106,-2.3106,-2.3106,-2.3106,-2.3106,-2.3106,-2.3106,-2.3106,-2.3106,-2.3106,-2.3106,-2.3106,-2.3106,-2.3106,-2.3106,-2.3106,-2.3106,-2.3106,-2.3106,0.0,0.0,0.0,0.0,0.0,0.0,0.0,0.0,0.0,0.0,-1.5541,-1.5648,-1.5861,-1.5648,-1.5861,-1.7041,-1.7477,-1.7918,-1.8933,-1.9326,-1.965,-1.985,-2.0107,-2.0265,-2.0265,-2.0431,-2.0508,-2.0259,-2.0472,-2.0647,-2.072,-2.0969,-2.1137,-2.1203,-2.1211,-2.1211,-2.1211,-2.1211,-2.1247,-2.1313,-2.1313,-2.135,-2.1437,-2.2015,-2.2279,-2.2293,-2.2593,-2.2725,-2.2747,-2.3003,-2.3106,-2.3106,-2.3106,-2.3106,-2.3106,-2.3106,-2.3106,-2.3106,-2.3106,-2.3106,-2.3106,-2.3106,-2.3106,-2.3106,-2.3106,-2.3106,-2.3106,-2.3106,-2.3106,-2.3106,-2.3106,-2.3106,-2.3106,-2.3106,-2.3106,-2.3106,-2.3106,-2.3106,-2.3106,-2.3106,-2.3106,-2.3106,-2.3106,-2.3106,-2.3106,-2.3106,-2.3106,-2.3106,-2.3106,-2.3106,-2.3106,-2.3106,-2.3106,-2.3106,-2.3106,-2.3106,-2.3106,-2.3106,-2.3106,-2.3106,-2.3106,-2.3106,-2.3106,-2.3106,-2.3106,-2.3106,-2.3106,-2.3106,-2.3106,-2.3106,-2.3106,-2.3106,0.0,0.0,0.0,0.0,0.0,0.0,0.0,0.0,0.0,0.0,-1.7035,-1.6929,-1.7463,-1.7035,-1.7041,-1.8213,-1.8429,-1.8639,-1.9168,-1.9557,-1.9828,-1.9989,-2.0296,-2.0552,-2.0706,-2.072,-2.0655,-2.0486,-2.0625,-2.072,-2.072,-2.0889,-2.105,-2.1203,-2.1211,-2.1211,-2.1211,-2.1211,-2.1211,-2.1211,-2.1211,-2.1211,-2.1225,-2.1723,-2.2037,-2.2191,-2.2345,-2.241,-2.2432,-2.2747,-2.2879,-2.2893,-2.3047,-2.3106,-2.3106,-2.3106,-2.3106,-2.3106,-2.3106,-2.3106,-2.3106,-2.3106,-2.3106,-2.3106,-2.3106,-2.3106,-2.3106,-2.3106,-2.3106,-2.3106,-2.3106,-2.3106,-2.3106,-2.3106,-2.3106,-2.3106,-2.3106,-2.3106,-2.3106,-2.3106,-2.3106,-2.3106,-2.3106,-2.3106,-2.3106,-2.3106,-2.3106,-2.3106,-2.3106,-2.3106,-2.3106,-2.3106,-2.3106,-2.3106,-2.3106,-2.3106,-2.3106,-2.3106,-2.3106,-2.3106,-2.3106,-2.3106,-2.3106,-2.3106,-2.3106,-2.3106,-2.3106,-2.3106,-2.3106,-2.3106,-2.3106,-2.3106,0.0,0.0,0.0,0.0,0.0,0.0,0.0,0.0,0.0,-1.9279,-1.8534,-1.8213,-1.9168,-1.8534,-1.822,-1.9168,-1.9279,-1.9279,-1.9279,-1.9506,-1.9696,-1.9755,-1.9996,-2.0281,-2.0603,-2.0691,-2.072,-2.072,-2.0772,-2.0808,-2.0808,-2.0808,-2.0933,-2.1203,-2.1211,-2.1211,-2.1211,-2.1211,-2.1211,-2.1211,-2.1211,-2.1211,-2.1218,-2.1489,-2.1759,-2.2015,-2.2074,-2.2096,-2.2125,-2.2425,-2.255,-2.2571,-2.2842,-2.2981,-2.3025,-2.3025,-2.3062,-2.3106,-2.3106,-2.3106,-2.3106,-2.3106,-2.3106,-2.3106,-2.3106,-2.3106,-2.3106,-2.3106,-2.3106,-2.3106,-2.3106,-2.3106,-2.3106,-2.3106,-2.3106,-2.3106,-2.3106,-2.3106,-2.3106,-2.3106,-2.3106,-2.3106,-2.3106,-2.3106,-2.3106,-2.3106,-2.3106,-2.3106,-2.3106,-2.3106,-2.3106,-2.3106,-2.3106,-2.3106,-2.3106,-2.3106,-2.3106,-2.3106,-2.3106,-2.3106,-2.3106,-2.3106,-2.3106,-2.3106,-2.3106,-2.3106,-2.3106,-2.3106,-2.3106,-2.3106,-2.3106,-2.3106,0.0,0.0,0.0,0.0,0.0,0.0,0.0,0.0,0.0,0.0,-1.9168,-1.9168,-1.9272,-1.9168,-1.9168,-1.9279,-1.9279,-1.9279,-1.9279,-1.9316,-1.9447,-1.9733,-1.9798,-1.9952,-2.0267,-2.0559,-2.072,-2.072,-2.0984,-2.1145,-2.1145,-2.1145,-2.1167,-2.1211,-2.1211,-2.1211,-2.1211,-2.1211,-2.1211,-2.1211,-2.1211,-2.1211,-2.1211,-2.1254,-2.1298,-2.1357,-2.1642,-2.1759,-2.1789,-2.2111,-2.2242,-2.225,-2.2293,-2.2462,-2.2689,-2.2689,-2.2864,-2.3106,-2.3106,-2.3106,-2.3106,-2.3106,-2.3106,-2.3106,-2.3106,-2.3106,-2.3106,-2.3106,-2.3106,-2.3106,-2.3106,-2.3106,-2.3106,-2.3106,-2.3106,-2.3106,-2.3106,-2.3106,-2.3106,-2.3106,-2.3106,-2.3106,-2.3106,-2.3106,-2.3106,-2.3106,-2.3106,-2.3106,-2.3106,-2.3106,-2.3106,-2.3106,-2.3106,-2.3106,-2.3106,-2.3106,-2.3106,-2.3106,-2.3106,-2.3106,-2.3106,-2.3106,-2.3106,-2.3106,-2.3106,-2.3106,-2.3106,-2.3106,-2.3106,-2.3106,-2.3106,-2.3106,0.0,0.0,0.0,0.0,0.0,0.0,0.0,0.0,0.0,-1.9279,-1.9279,-1.9279,-1.9279,-1.9279,-1.9279,-1.9279,-1.9279,-1.9279,-1.9279,-1.9279,-1.933,-1.9477,-1.9491,-1.9616,-1.9938,-2.0098,-2.0333,-2.0691,-2.0859,-2.1013,-2.1203,-2.1211,-2.1211,-2.1211,-2.1211,-2.1211,-2.1211,-2.1211,-2.1211,-2.1211,-2.1211,-2.1211,-2.1211,-2.1211,-2.1211,-2.1218,-2.1364,-2.1423,-2.1452,-2.1774,-2.1913,-2.1928,-2.2111,-2.2264,-2.2374,-2.2374,-2.2469,-2.2593,-2.2593,-2.2593,-2.2615,-2.2784,-2.2835,-2.2871,-2.3054,-2.3106,-2.3106,-2.3106,-2.3106,-2.3106,-2.3106,-2.3106,-2.3106,-2.3106,-2.3106,-2.3106,-2.3106,-2.3106,-2.3106,-2.3106,-2.3106,-2.3106,-2.3106,-2.3106,-2.3106,-2.3106,-2.3106,-2.3106,-2.3106,-2.3106,-2.3106,-2.3106,-2.3106,-2.3106,-2.3106,-2.3106,-2.3106,-2.3106,-2.3106,-2.3106,-2.3106,-2.3106,-2.3106,-2.3106,-2.3106,-2.3106,-2.3106,-2.3106,-2.3106,-2.3106,-2.3106,-2.3106,0.0,0.0,0.0,0.0,0.0,0.0,0.0,0.0,-1.9279,0.0,-1.9279,-1.9279,-1.9279,-1.9279,-1.9279,-1.9279,-1.9279,-1.9279,-1.9279,-1.9279,-1.9279,-1.9279,-1.9279,-1.9374,-1.9616,-1.9711,-1.9967,-2.0442,-2.0552,-2.0742,-2.1072,-2.1086,-2.1123,-2.1203,-2.1211,-2.1211,-2.1211,-2.1211,-2.1211,-2.1211,-2.1211,-2.1211,-2.1211,-2.1211,-2.1211,-2.1211,-2.1211,-2.1211,-2.1233,-2.1474,-2.1576,-2.1598,-2.184,-2.1986,-2.2059,-2.2059,-2.2111,-2.2184,-2.2184,-2.2184,-2.222,-2.244,-2.2513,-2.2557,-2.2798,-2.2871,-2.2886,-2.2959,-2.2988,-2.3003,-2.3091,-2.3047,-2.2988,-2.2988,-2.293,-2.2915,-2.3076,-2.3106,-2.3106,-2.3106,-2.3106,-2.3106,-2.3106,-2.3106,-2.3106,-2.3106,-2.3106,-2.3106,-2.3106,-2.3106,-2.3106,-2.3106,-2.3106,-2.3106,-2.3106,-2.3106,-2.3106,-2.3106,-2.3106,-2.3106,-2.3106,-2.3106,-2.3106,-2.3106,-2.3106,-2.3106,-2.3106,-2.3106,-2.3106,-2.3106,-2.3106,-2.3106,0.0,0.0,0.0,0.0,0.0,0.0,0.0,0.0,0.0,-1.9279,-1.9279,-1.9279,-1.9279,-1.9279,-1.9279,-1.9279,-1.9279,-1.9279,-1.9279,-1.9279,-1.9279,-1.9279,-1.9279,-1.9286,-1.9301,-1.9579,-1.9777,-1.9813,-2.0091,-2.0398,-2.0728,-2.075,-2.0889,-2.1203,-2.1211,-2.1211,-2.1211,-2.1211,-2.1211,-2.1211,-2.1211,-2.1211,-2.1211,-2.1211,-2.1211,-2.1211,-2.1211,-2.1211,-2.1211,-2.1233,-2.1233,-2.124,-2.1254,-2.1452,-2.1723,-2.1723,-2.192,-2.2184,-2.2184,-2.2184,-2.2184,-2.2198,-2.2206,-2.2213,-2.2228,-2.2235,-2.2293,-2.2571,-2.2645,-2.2718,-2.3025,-2.2879,-2.2645,-2.2645,-2.2432,-2.2396,-2.2981,-2.3106,-2.3106,-2.3106,-2.3106,-2.3106,-2.3106,-2.3106,-2.3106,-2.3106,-2.3106,-2.3106,-2.3106,-2.3106,-2.3106,-2.3106,-2.3106,-2.3106,-2.3106,-2.3106,-2.3106,-2.3106,-2.3106,-2.3106,-2.3106,-2.3106,-2.3106,-2.3106,-2.3106,-2.3106,-2.3106,-2.3106,-2.3106,-2.3106,-2.3106,-2.3106,-1.7867,0.0,0.0,0.0,0.0,0.0,0.0,-1.9279,-1.9279,-1.9279,-1.9279,-1.9279,-1.9279,-1.9279,-1.9279,-1.9279,-1.9279,-1.9279,-1.9279,-1.9279,-1.9279,-1.9279,-1.9279,-1.9279,-1.9279,-1.9381,-1.9535,-1.9747,-1.9872,-2.0069,-2.0391,-2.0413,-2.0559,-2.0889,-2.0896,-2.0998,-2.1203,-2.1211,-2.1211,-2.1211,-2.1211,-2.1211,-2.1211,-2.1211,-2.1211,-2.1211,-2.1211,-2.1211,-2.1211,-2.1211,-2.1211,-2.1211,-2.1211,-2.1284,-2.1386,-2.1386,-2.1459,-2.1562,-2.1562,-2.1562,-2.1591,-2.1803,-2.1869,-2.1913,-2.2118,-2.2184,-2.2206,-2.2308,-2.2337,-2.2367,-2.2484,-2.2425,-2.2337,-2.2337,-2.2257,-2.2362,-2.2704,-2.2634,-2.2571,-2.2762,-2.2921,-2.3111,-2.3318,-2.3611,-2.3611,-2.3487,-2.3355,-2.3355,-2.3113,-2.3106,-2.3106,-2.3106,-2.3106,-2.3106,-2.3106,-2.3106,-2.3106,-2.3106,-2.3106,-2.3106,-2.3106,-2.3106,-2.3106,-2.3106,-2.3106,-2.3106,-2.3106,-2.3106,-2.3106,-2.3106,-2.3106,-2.3106,-1.7728,-1.7969,0.0,0.0,0.0,0.0,0.0,0.0,-1.9279,-1.9279,-1.9279,-1.9279,-1.9279,-1.9279,-1.9279,-1.9279,-1.9279,-1.9279,-1.9279,-1.9279,-1.9279,-1.9279,-1.9279,-1.9279,-1.9279,-1.9279,-1.9367,-1.9586,-1.9601,-1.974,-2.0062,-2.0077,-2.023,-2.0545,-2.0669,-2.083,-2.1042,-2.1159,-2.1211,-2.1211,-2.1211,-2.1211,-2.1211,-2.1211,-2.1211,-2.1211,-2.1211,-2.1211,-2.1211,-2.1211,-2.1211,-2.1211,-2.1211,-2.1211,-2.1211,-2.1211,-2.1211,-2.1211,-2.1211,-2.1211,-2.1247,-2.1459,-2.1533,-2.1576,-2.1789,-2.1854,-2.1876,-2.1986,-2.2134,-2.2156,-2.2267,-2.2334,-2.2342,-2.223,-2.2208,-2.2208,-2.2436,-2.2379,-2.2475,-2.2674,-2.2953,-2.318,-2.351,-2.3817,-2.3855,-2.3845,-2.3611,-2.3487,-2.3355,-2.3106,-2.3106,-2.3106,-2.3106,-2.3106,-2.3106,-2.3106,-2.3106,-2.3106,-2.3106,-2.3106,-2.3106,-2.3106,-2.3106,-2.3106,-2.3106,-2.3106,-2.3106,-2.3106,-2.3106,-2.3106,-2.2996,-2.2893,0.0,0.0,0.0,0.0,0.0,0.0,-1.9184,0.0,-1.9264,-1.9279,-1.9279,-1.9279,-1.9279,-1.9279,-1.9279,-1.9279,-1.9279,-1.9279,-1.9279,-1.9279,-1.9279,-1.9279,-1.9279,-1.9279,-1.9279,-1.9279,-1.9279,-1.9279,-1.9279,-1.9411,-1.9733,-1.9755,-1.9908,-2.0216,-2.0537,-2.0713,-2.072,-2.1035,-2.1203,-2.1211,-2.1211,-2.1211,-2.1211,-2.1211,-2.1211,-2.1211,-2.1211,-2.1211,-2.1211,-2.1211,-2.1211,-2.1211,-2.1211,-2.1211,-2.1211,-2.1211,-2.1211,-2.1211,-2.1211,-2.1211,-2.1211,-2.1211,-2.1211,-2.1211,-2.1211,-2.1211,-2.1276,-2.1591,-2.1913,-2.2214,-2.2535,-2.2621,-2.252,-2.2192,-2.2116,-2.2116,-2.2108,-2.2394,-2.2744,-2.2989,-2.3116,-2.3215,-2.3528,-2.3596,-2.3711,-2.4047,-2.3852,-2.3611,-2.3611,-2.3355,-2.3106,-2.3106,-2.3113,-2.3106,-2.3106,-2.3106,-2.3106,-2.3106,-2.3106,-2.3106,-2.3106,-2.3106,-2.3106,-2.3106,-2.3106,-2.3106,-2.3106,-2.3106,-2.3106,-2.3091,-2.2762,-2.2454,-1.7435,0.0,0.0,0.0,0.0,0.0,0.0,0.0,-1.8994,-1.9228,-1.9279,-1.9279,-1.9279,-1.9279,-1.9279,-1.9279,-1.9279,-1.9279,-1.9279,-1.9279,-1.9279,-1.9279,-1.9279,-1.9279,-1.9279,-1.9279,-1.9279,0.0,-1.9279,-1.9316,-1.9403,-1.963,-1.9798,-1.9886,-2.0201,-2.0486,-2.072,-2.0808,-2.0976,-2.1211,-2.1211,-2.1211,-2.1211,-2.1211,-2.1211,-2.1211,-2.1211,-2.1211,-2.1211,-2.1211,-2.1211,-2.1211,-2.1211,-2.1211,-2.1211,-2.1211,-2.1211,-2.1211,-2.1211,-2.1211,-2.1211,-2.1211,-2.1211,-2.1211,-2.1439,-2.1554,-2.1569,-2.1887,-2.2024,-2.2162,-2.2253,-2.2207,-2.223,-2.2131,-2.2116,-2.223,-2.2456,-2.249,-2.2582,-2.2711,-2.2882,-2.3224,-2.3565,-2.4053,-2.4248,-2.4099,-2.4201,-2.4239,-2.3984,-2.3611,-2.3487,-2.3487,-2.323,-2.3106,-2.3106,-2.3106,-2.3106,-2.3106,-2.3106,-2.3106,-2.3106,-2.3106,-2.3106,-2.3106,-2.3106,-2.3106,-2.3106,-2.3106,-2.2988,-2.2747,-2.2447,-2.2257,-1.7326,-1.7465,-1.7647,-1.7786,0.0,0.0,-1.8511,-1.8694,-1.884,0.0,-1.9184,-1.9279,-1.9279,-1.9279,-1.9279,-1.9279,-1.9279,-1.9279,-1.9279,-1.9279,-1.9279,-1.9279,-1.9279,-1.9279,-1.9279,-1.9279,-1.9279,-1.9279,-1.9279,-1.9279,-1.9279,-1.9455,-1.9557,-1.9557,-1.9872,-2.0128,-2.0318,-2.0457,-2.0684,-2.1006,-2.1006,-2.1079,-2.1211,-2.1211,-2.1211,-2.1211,-2.1211,-2.1211,-2.1211,-2.1211,-2.1211,-2.1211,-2.1211,-2.1211,-2.1211,-2.1211,-2.1211,-2.1211,-2.1211,-2.1211,-2.1211,-2.1325,-2.1439,-2.1439,-2.1782,-2.1896,-2.1888,-2.2116,-2.223,-2.2335,-2.2456,-2.2449,-2.2449,-2.2449,-2.2449,-2.2562,-2.2675,-2.2796,-2.2746,-2.2712,-2.2866,-2.3213,-2.345,-2.3905,-2.4126,-2.4291,-2.4381,-2.4324,-2.434,-2.3984,-2.386,-2.386,-2.3611,-2.3487,-2.3355,-2.3362,-2.323,-2.3113,-2.3106,-2.3106,-2.3106,-2.3106,-2.3047,-2.2908,-2.2908,-2.2849,-2.2725,-2.2849,-2.2674,-2.2235,-2.2059,-2.1906,-1.7326,-1.7333,-1.7493,-1.7691,-1.786,0.0,-1.8174,-1.8474,-1.8708,0.0,-1.9023,-1.9235,-1.9264,-1.9279,-1.9279,-1.9279,-1.9279,-1.9279,-1.9279,-1.9279,-1.9279,-1.9279,-1.9279,-1.9279,-1.9279,-1.9279,-1.9279,-1.9279,-1.9279,-1.9279,-1.9279,-1.9279,-1.9279,-1.9279,-1.9557,-1.9725,-1.9762,-2.004,-2.0347,-2.0669,-2.0706,-2.0874,-2.1159,-2.1196,-2.1211,-2.1211,-2.1211,-2.1211,-2.1211,-2.1211,-2.1211,-2.1211,-2.1211,-2.1211,-2.1211,-2.1325,-2.1325,-2.1325,-2.1325,-2.1325,-2.1325,-2.1668,-2.1782,-2.1782,-2.2116,-2.2116,-2.2108,-2.223,-2.2456,-2.2683,-2.2901,-2.3014,-2.3014,-2.3014,-2.3014,-2.3014,-2.3014,-2.3014,-2.3014,-2.3014,-2.3014,-2.3117,-2.3427,-2.3514,-2.3753,-2.4372,-2.4251,-2.4159,-2.4509,-2.4301,-2.407,-2.4108,-2.4108,-2.3984,-2.3611,-2.3611,-2.3487,-2.3238,-2.323,-2.323,-2.3113,-2.3076,-2.2923,-2.263,-2.2593,-2.2425,-2.2245,-2.2389,-2.2235,-2.1693,-2.1657,-2.1489,-1.7714,-1.7807,-1.7916,-1.7804,-1.7905,0.0,-1.8237,-1.8268,-1.8363,0.0,-1.884,-1.8964,-1.9228,-1.9279,-1.9279,-1.9279,-1.9279,-1.9279,-1.9279,-1.9279,-1.9279,-1.9279,-1.9279,-1.9279,-1.9279,-1.9279,-1.9279,-1.9279,-1.9279,-1.9279,-1.9279,-1.9279,-1.9279,-1.9279,-1.9338,-1.9499,-1.9762,-1.9828,-2.0018,-2.0333,-2.0596,-2.0757,-2.083,-2.1086,-2.1211,-2.1211,-2.1211,-2.1211,-2.1211,-2.1439,-2.1439,-2.1211,-2.1554,-2.1554,-2.1668,-2.1888,-2.1888,-2.1888,-2.1888,-2.1888,-2.1888,-2.2002,-2.2002,-2.2116,-2.2456,-2.2456,-2.257,-2.2788,-2.2901,-2.2901,-2.3014,-2.3014,-2.3014,-2.3014,-2.3014,-2.3014,-2.3014,-2.3014,-2.3014,-2.3014,-2.3014,-2.3038,-2.3109,-2.3356,-2.3586,-2.3721,-2.3975,-2.4158,-2.4514,-2.4311,-2.4177,-2.4456,-2.4232,-2.3984,-2.3611,-2.386,-2.386,-2.3487,-2.3736,-2.3736,-2.3479,-2.3227,-2.2933,-2.2623,-2.2389,-2.2349,-2.2485,-2.2083,-2.1818,-2.1686,-2.143,-2.1269,-1.79,-1.7994,-1.8087,-1.79,-1.7994,0.0,0.0,-1.819,-1.8357,-1.885,-1.8981,-1.9088,-1.9413,-1.948,-1.948,-1.9272,-1.9279,-1.9279,-1.9279,-1.9279,-1.9279,-1.9279,-1.9279,-1.9279,-1.9279,-1.9279,-1.9279,-1.9279,-1.9279,-1.9279,-1.9279,-1.9279,-1.9376,-1.948,-1.9383,-1.9457,-1.9724,-1.9626,-1.9788,-2.0212,-2.0273,-2.0523,-2.0944,-2.1114,-2.1284,-2.1439,-2.1546,-2.1546,-2.1439,-2.1782,-2.1668,-2.1439,-2.1774,-2.1888,-2.1888,-2.2002,-2.2116,-2.2116,-2.2116,-2.2116,-2.2116,-2.2343,-2.2343,-2.2456,-2.2683,-2.2796,-2.2796,-2.3014,-2.3014,-2.3014,-2.3014,-2.3014,-2.3014,-2.3014,-2.3014,-2.3014,-2.3014,-2.3014,-2.3014,-2.3014,-2.3014,-2.3014,-2.3014,-2.3165,-2.334,-2.3514,-2.3689,-2.392,-2.4269,-2.4198,-2.4141,-2.4314,-2.4366,-2.4223,-2.3856,-2.414,-2.4232,-2.386,-2.3984,-2.3984,-2.386,-2.3535,-2.3082,-2.264,-2.2326,-2.2195,-2.2145,-2.1799,-2.1683,-2.1683,-2.1406,-2.1211,-1.8279,-1.8225,-1.8272,-1.8179,-1.8179,-1.8179,0.0,0.0,0.0,-1.9033,-1.9162,-1.9385,-1.962,-1.968,0.0,-1.9295,0.0,0.0,0.0,-1.9235,0.0,-1.9279,-1.9279,-1.9279,-1.9279,-1.9279,-1.9279,-1.9279,-1.9279,-1.9279,-1.9279,-1.9279,-1.9376,-1.9576,-1.948,-1.948,-1.968,-1.948,-1.9613,-2.0182,-1.9938,-2.0241,-2.0965,-2.1151,-2.1369,-2.1684,-2.1904,-2.1941,-2.1782,-2.2116,-2.2116,-2.1896,-2.2116,-2.223,-2.223,-2.2222,-2.2222,-2.2222,-2.2222,-2.2222,-2.2343,-2.257,-2.2683,-2.2683,-2.2901,-2.3014,-2.3014,-2.3014,-2.3014,-2.3014,-2.3014,-2.3014,-2.3014,-2.3014,-2.3014,-2.3014,-2.3014,-2.3014,-2.3014,-2.3014,-2.3014,-2.3014,-2.3014,-2.3014,-2.3109,-2.3395,-2.3443,-2.3562,-2.3912,-2.3951,-2.3975,-2.4047,-2.4309,-2.4356,-2.3995,-2.4314,-2.4509,-2.4132,-2.4193,-2.4209,-2.414,-2.3627,-2.3131,-2.2651,-2.2253,-2.1995,-2.1881,-2.166,-2.1554,-2.1554,-2.1325,-2.1211,-1.9004,-1.8777,-1.8643,-1.8473,-1.8558,-1.8651,-1.8473,0.0,-1.8969,-1.9025,0.0,-1.9603,-1.9723,0.0,0.0,-1.8993,-1.9089,-1.9177,-1.8884,-1.9096,-1.9279,-1.9279,-1.9279,-1.9279,-1.9279,-1.9279,-1.9279,-1.9279,-1.9279,-1.9279,-1.9279,-1.9279,-1.9272,-1.9376,-1.9583,-1.968,-1.968,-1.968,-1.9798,-2.0147,-2.0136,-2.0317,-2.0712,-2.1017,-2.1345,-2.1666,-2.1658,-2.1834,-2.2116,-2.2456,-2.257,-2.2456,-2.257,-2.257,-2.257,-2.2788,-2.2901,-2.2901,-2.2901,-2.2901,-2.2901,-2.2901,-2.2901,-2.3014,-2.3014,-2.3014,-2.3014,-2.3014,-2.3014,-2.3014,-2.3014,-2.3014,-2.3014,-2.3014,-2.3014,-2.3014,-2.3014,-2.3014,-2.3014,-2.3014,-2.3014,-2.3014,-2.3014,-2.3014,-2.303,-2.307,-2.3077,-2.3205,-2.3554,-2.3602,-2.3721,-2.4023,-2.4086,-2.4,-2.366,-2.4204,-2.4522,-2.4151,-2.4692,-2.4723,-2.4159,-2.3181,-2.2674,-2.264,-2.2025,-2.1987,-2.2507,-2.1645,-2.1211,-2.1211,-2.1211,-2.1211,-1.9549,-1.9439,-1.9431,-1.9344,-1.9344,-1.9431,-1.9344,-1.9263,-1.9361,-1.981,0.0,0.0,0.0,0.0,0.0,0.0,-1.9487,-1.9428,-1.9287,0.0,-1.968,-1.9376,-1.9279,0.0,-1.9279,-1.9279,-1.9279,-1.9279,-1.9279,-1.9383,-1.948,-1.9376,-1.948,-1.9776,-1.968,-1.9776,-1.9983,-1.9983,-2.0094,-2.0308,-2.0231,-2.0406,-2.0817,-2.0948,-2.1194,-2.1534,-2.1955,-2.2126,-2.205,-2.2597,-2.2796,-2.257,-2.2796,-2.2788,-2.2796,-2.3014,-2.3014,-2.3014,-2.3014,-2.3014,-2.3014,-2.3014,-2.3014,-2.3014,-2.3014,-2.3014,-2.3014,-2.3014,-2.3014,-2.3014,-2.3014,-2.3014,-2.3014,-2.3014,-2.3014,-2.3014,-2.3014,-2.3014,-2.3014,-2.3014,-2.3014,-2.3014,-2.3014,-2.3014,-2.3014,-2.3014,-2.3014,-2.307,-2.322,-2.3236,-2.3292,-2.3435,-2.3634,-2.3644,-2.3535,-2.396,-2.4277,-2.415,-2.4412,-2.4341,-2.3756,-2.3348,-2.3035,-2.2804,-2.2562,-2.2441,-2.2289,-2.1858,-2.1531,-2.1211,-2.1211,-2.1211,-2.0011,-1.994,-1.9868,-1.9868,-1.9868,-1.9868,-1.9868,-1.985,-1.9886,-2.0345,-2.0271,0.0,0.0,0.0,-2.0055,-1.9766,0.0,-1.9746,-1.9663,-1.9922,-1.9983,-1.9583,-1.948,-1.9376,0.0,-1.9376,-1.9376,-1.9376,-1.9376,-1.948,-1.9776,-1.9576,-1.9583,-1.9983,-1.999,-1.999,-2.0078,-2.0189,-2.03,-2.0624,-2.03,-2.0431,-2.0992,-2.0977,-2.1164,-2.1509,-2.1984,-2.2198,-2.2166,-2.2648,-2.2814,-2.2683,-2.2901,-2.3014,-2.3014,-2.3014,-2.3014,-2.3014,-2.3014,-2.3014,-2.3014,-2.3014,-2.3014,-2.3014,-2.3014,-2.3014,-2.3014,-2.3014,-2.3014,-2.3014,-2.3014,-2.3014,-2.3014,-2.3014,-2.3014,-2.3014,-2.3014,-2.3014,-2.3014,-2.3014,-2.3014,-2.3014,-2.3014,-2.3014,-2.3014,-2.3014,-2.3014,-2.3014,-2.3014,-2.3014,-2.3014,-2.3014,-2.3244,-2.3395,-2.3395,-2.3713,-2.3951,-2.4047,-2.3967,-2.38,-2.3554,-2.3451,-2.3276,-2.3022,-2.2909,-2.2659,-2.2297,-2.2108,-2.1911,-2.1476,-2.1332,-2.1211,-2.0377,-2.0122,-1.9868,-1.9868,-1.9868,-1.9868,-1.9868,-2.013,-2.0377,-2.0392,-2.0662,-2.0806,-2.0514,-2.0522,-2.031,-1.9682,-1.988,0.0,0.0,-1.9888,-2.0078,-2.0078,-1.9887,-1.968,-1.968,-1.948,-1.9376,-1.968,-1.948,-1.9576,-2.0078,-1.9879,-1.968,-1.968,-2.0205,-2.0308,-2.0078,-2.0411,-2.0617,-2.0925,-2.0617,-2.0624,-2.0933,-2.0933,-2.1131,-2.136,-2.1481,-2.1862,-2.249,-2.2498,-2.2704,-2.3014,-2.3014,-2.3014,-2.3014,-2.3014,-2.3014,-2.3014,-2.3014,-2.3014,-2.3014,-2.3014,-2.3014,-2.3014,-2.3014,-2.3014,-2.3014,-2.3014,-2.3014,-2.3014,-2.3014,-2.3014,-2.3014,-2.3014,-2.3014,-2.3014,-2.3014,-2.3014,-2.3014,-2.3014,-2.3014,-2.3014,-2.3014,-2.3014,-2.3014,-2.3014,-2.3014,-2.3014,-2.3014,-2.3014,-2.3014,-2.3014,-2.3022,-2.303,-2.303,-2.3356,-2.3705,-2.4031,-2.3745,-2.3554,-2.3546,-2.3213,-2.303,-2.3014,-2.2796,-2.2546,-2.2613,-2.2299,-2.2139,-2.2024,-2.1476,-2.1211,-2.0742,-2.0655,-2.0567,-2.0567,-2.0567,-2.0567,-2.0567,-2.0655,-2.0742,-2.0742,-2.0837,-2.0917,-2.0822,-2.0617,-2.038,-2.0264,-2.0333,-2.0372,0.0,-2.0436,-2.0609,-2.0609,-2.0189,-1.9983,-1.9983,-1.9879,-1.9879,-1.9983,-1.9879,-1.999,-2.0308,-2.0086,-2.0094,-2.0205,-2.0418,-2.0411,-2.0403,-2.0617,-2.0822,-2.0925,-2.0822,-2.0822,-2.0925,-2.0925,-2.0988,-2.1115,-2.1346,-2.1584,-2.1822,-2.2045,-2.2347,-2.2664,-2.2664,-2.2807,-2.3014,-2.3014,-2.3014,-2.3014,-2.3014,-2.3014,-2.3014,-2.3014,-2.3014,-2.3014,-2.3014,-2.3014,-2.3014,-2.3014,-2.3014,-2.3014,-2.3014,-2.3014,-2.3014,-2.3014,-2.3014,-2.3014,-2.3014,-2.3014,-2.3014,-2.3014,-2.3014,-2.3014,-2.3014,-2.3014,-2.3014,-2.3014,-2.3014,-2.3014,-2.3014,-2.3014,-2.3014,-2.3014,-2.3014,-2.3014,-2.3014,-2.3125,-2.3244,-2.3356,-2.3252,-2.3197,-2.3197,-2.3077,-2.3014,-2.3014,-2.2901,-2.2772,-2.2613,-2.2433,-2.2328,-2.2063,-2.1919,-2.1828,-2.0925,-2.0925,-2.0925,-2.0925,-2.0925,-2.0925,-2.0925,-2.0925,-2.0925,-2.0925,-2.0925,-2.0925,-2.0925,-2.0719,-2.0617,-2.0617,-2.0617,-2.0617,0.0,-2.0822,-2.0925,-2.0925,-2.0506,-2.0189,-2.0189,-2.0189,-2.0189,-2.0197,-2.0189,-2.0292,-2.0617,-2.0403,-2.03,-2.0522,-2.0617,-2.0617,-2.0522,-2.0719,-2.0925,-2.0925,-2.0925,-2.0925,-2.0925,-2.0925,-2.0925,-2.0933,-2.1163,-2.1338,-2.1465,-2.1687,-2.1981,-2.2307,-2.2434,-2.2625,-2.2847,-2.2966,-2.3014,-2.3014,-2.3014,-2.3014,-2.3014,-2.3014,-2.3014,-2.3014,-2.3014,-2.3014,-2.3038,-2.3165,-2.3109,-2.3046,-2.3173,-2.3109,-2.3014,-2.3014,-2.3014,-2.3014,-2.3014,-2.3014,-2.3014,-2.3014,-2.3014,-2.3014,-2.3014,-2.3014,-2.3014,-2.3014,-2.3014,-2.3014,-2.3014,-2.3014,-2.3014,-2.3014,-2.3014,-2.3014,-2.3014,-2.3014,-2.3014,-2.3014,-2.3014,-2.3014,-2.3014,-2.3014,-2.3014,-2.3014,-2.3014,-2.2885,-2.2749,-2.2749,-2.262,-2.2469,-2.2469,-2.2387]},{"header":{"parameterUnit":"m.s-1","parameterCategory":1,"la1":30.6,"la2":29.2853,"lo1":-89.7004,"lo2":-87.6739,"dy":0.0162,"dx":0.0183,"nx":112,"ny":82,"refTime":"2023-08-04T06:00:00:Z","depth":0,"parameterNumber":3,"parameterNumberName":"V-component_of_WINDS"},"data":[0.0,0.0,0.0,0.0,0.0,0.0,0.0,0.0,0.0,0.0,0.0,0.0,0.0,0.0,0.0,0.0,0.0,0.0,0.0,0.0,0.0,0.0,0.0,0.0,0.0,0.0,0.0,0.0,0.0,0.0,0.0,0.0,0.0,0.0,0.0,0.0,0.0,0.0,0.0,0.0,0.0,0.0,0.0,0.0,0.0,0.0,0.0,0.0,0.0,0.0,0.0,0.0,0.0,0.0,0.0,0.0,0.0,0.0,0.0,0.0,0.0,0.0,0.0,0.0,0.0,0.0,0.0,0.0,0.0,0.0,0.0,0.0,0.0,0.0,0.0,0.0,0.0,0.0,0.0,0.0,0.0,0.0,0.0,0.0,0.0,0.0,0.0,0.0,0.0,0.0,-4.2189,-4.2176,-4.2699,-4.3044,-4.3044,-4.2868,-4.2776,-4.2794,0.0,0.0,0.0,0.0,0.0,0.0,0.0,0.0,0.0,0.0,0.0,0.0,0.0,0.0,0.0,0.0,0.0,0.0,0.0,0.0,0.0,0.0,0.0,0.0,0.0,0.0,0.0,0.0,0.0,0.0,0.0,0.0,0.0,0.0,0.0,0.0,0.0,0.0,0.0,0.0,0.0,0.0,0.0,0.0,0.0,0.0,0.0,0.0,0.0,0.0,0.0,0.0,0.0,0.0,0.0,0.0,0.0,0.0,0.0,0.0,0.0,0.0,0.0,0.0,0.0,0.0,0.0,0.0,0.0,0.0,0.0,0.0,0.0,0.0,0.0,0.0,0.0,0.0,0.0,0.0,0.0,0.0,0.0,0.0,0.0,0.0,0.0,0.0,0.0,0.0,0.0,0.0,0.0,0.0,0.0,0.0,0.0,0.0,0.0,0.0,0.0,0.0,0.0,0.0,-4.3051,-4.295,-4.2881,-4.285,-4.285,-4.2699,-4.2679,-4.2794,0.0,0.0,0.0,0.0,0.0,0.0,0.0,0.0,0.0,0.0,0.0,0.0,0.0,0.0,0.0,0.0,0.0,0.0,0.0,0.0,0.0,0.0,0.0,0.0,0.0,0.0,0.0,0.0,0.0,0.0,0.0,0.0,0.0,0.0,0.0,0.0,0.0,0.0,0.0,0.0,0.0,0.0,0.0,0.0,0.0,0.0,0.0,0.0,0.0,0.0,0.0,0.0,0.0,0.0,0.0,0.0,0.0,0.0,0.0,0.0,0.0,0.0,0.0,0.0,0.0,0.0,0.0,0.0,0.0,0.0,0.0,0.0,0.0,0.0,0.0,0.0,0.0,0.0,0.0,0.0,0.0,0.0,0.0,0.0,0.0,0.0,0.0,0.0,0.0,0.0,0.0,0.0,0.0,0.0,0.0,0.0,0.0,0.0,0.0,0.0,0.0,0.0,0.0,-4.3593,-4.3971,-4.432,-4.4212,-4.4113,-4.4113,-4.3926,-4.3859,-4.3947,-4.3185,0.0,0.0,0.0,0.0,0.0,0.0,0.0,0.0,0.0,0.0,0.0,0.0,0.0,0.0,0.0,0.0,0.0,0.0,0.0,0.0,0.0,0.0,0.0,0.0,0.0,0.0,0.0,0.0,0.0,0.0,0.0,0.0,0.0,0.0,0.0,0.0,0.0,0.0,0.0,0.0,0.0,0.0,0.0,0.0,0.0,0.0,0.0,0.0,0.0,0.0,0.0,0.0,0.0,0.0,0.0,0.0,0.0,0.0,0.0,0.0,0.0,0.0,0.0,0.0,0.0,0.0,0.0,0.0,0.0,0.0,0.0,0.0,0.0,0.0,0.0,0.0,0.0,0.0,0.0,0.0,0.0,0.0,0.0,0.0,0.0,0.0,0.0,0.0,0.0,0.0,0.0,0.0,0.0,0.0,0.0,0.0,0.0,0.0,0.0,0.0,0.0,0.0,-4.4547,-4.4727,-4.5285,-4.5216,-4.5125,-4.5125,-4.501,-4.4895,-4.4895,-4.4326,0.0,0.0,0.0,0.0,0.0,0.0,0.0,0.0,0.0,0.0,0.0,0.0,0.0,0.0,0.0,0.0,0.0,0.0,0.0,0.0,0.0,0.0,0.0,0.0,0.0,0.0,0.0,0.0,0.0,0.0,0.0,0.0,0.0,0.0,0.0,0.0,0.0,0.0,0.0,0.0,0.0,0.0,0.0,0.0,0.0,0.0,0.0,0.0,0.0,0.0,0.0,0.0,0.0,0.0,0.0,0.0,0.0,0.0,0.0,0.0,0.0,0.0,0.0,0.0,0.0,0.0,0.0,0.0,0.0,0.0,0.0,0.0,0.0,0.0,0.0,0.0,0.0,0.0,0.0,0.0,0.0,0.0,0.0,0.0,0.0,0.0,0.0,0.0,0.0,0.0,0.0,0.0,0.0,0.0,0.0,0.0,0.0,0.0,0.0,0.0,0.0,0.0,-4.5285,-4.5178,-4.5213,-4.5057,-4.4919,-4.4919,-4.4895,-4.4895,-4.4895,-4.4857,0.0,0.0,0.0,0.0,0.0,0.0,0.0,0.0,0.0,0.0,0.0,0.0,0.0,0.0,0.0,0.0,0.0,0.0,0.0,0.0,0.0,0.0,0.0,0.0,0.0,0.0,0.0,0.0,0.0,0.0,0.0,0.0,0.0,0.0,0.0,0.0,0.0,0.0,0.0,0.0,0.0,0.0,0.0,0.0,0.0,0.0,0.0,0.0,0.0,0.0,0.0,0.0,0.0,0.0,0.0,0.0,0.0,0.0,0.0,0.0,0.0,0.0,0.0,0.0,0.0,0.0,0.0,0.0,0.0,0.0,0.0,0.0,0.0,0.0,0.0,0.0,0.0,0.0,0.0,0.0,0.0,0.0,0.0,0.0,0.0,0.0,0.0,0.0,0.0,0.0,0.0,0.0,0.0,0.0,0.0,0.0,0.0,0.0,0.0,0.0,0.0,0.0,-4.5301,-4.5148,-4.5033,-4.4962,-4.4895,-4.4895,-4.4895,-4.4895,-4.4895,0.0,0.0,0.0,0.0,0.0,0.0,0.0,0.0,0.0,0.0,0.0,0.0,0.0,0.0,0.0,0.0,0.0,0.0,0.0,0.0,0.0,0.0,0.0,0.0,0.0,0.0,0.0,0.0,0.0,0.0,0.0,0.0,0.0,0.0,0.0,0.0,0.0,0.0,0.0,0.0,0.0,0.0,0.0,0.0,0.0,0.0,0.0,0.0,0.0,0.0,0.0,0.0,0.0,0.0,0.0,0.0,0.0,0.0,0.0,0.0,0.0,0.0,0.0,0.0,0.0,0.0,0.0,0.0,0.0,0.0,0.0,0.0,0.0,0.0,0.0,0.0,0.0,0.0,0.0,0.0,0.0,0.0,0.0,0.0,0.0,0.0,0.0,0.0,0.0,0.0,0.0,0.0,0.0,0.0,0.0,0.0,0.0,0.0,0.0,0.0,0.0,0.0,-4.5419,-4.5237,-4.5038,-4.4919,-4.4895,-4.4895,-4.4895,-4.4895,-4.4895,-4.4895,0.0,0.0,0.0,0.0,0.0,0.0,0.0,0.0,0.0,0.0,0.0,0.0,0.0,0.0,0.0,0.0,0.0,0.0,0.0,0.0,0.0,0.0,0.0,0.0,0.0,0.0,0.0,0.0,0.0,0.0,0.0,0.0,0.0,0.0,0.0,0.0,0.0,0.0,0.0,0.0,0.0,0.0,0.0,0.0,0.0,0.0,0.0,0.0,0.0,0.0,0.0,0.0,0.0,0.0,0.0,0.0,0.0,0.0,0.0,0.0,0.0,0.0,0.0,0.0,0.0,0.0,0.0,0.0,0.0,0.0,0.0,0.0,0.0,0.0,0.0,0.0,0.0,0.0,0.0,0.0,0.0,0.0,0.0,0.0,0.0,0.0,0.0,0.0,0.0,0.0,0.0,0.0,0.0,0.0,0.0,0.0,0.0,0.0,0.0,0.0,0.0,0.0,-4.5419,-4.5129,-4.4914,-4.4933,-4.4933,-4.4933,-4.4933,-4.4933,-4.4933,0.0,0.0,0.0,0.0,0.0,0.0,0.0,0.0,0.0,0.0,0.0,0.0,0.0,0.0,0.0,0.0,0.0,0.0,0.0,0.0,0.0,0.0,0.0,0.0,0.0,0.0,0.0,0.0,0.0,0.0,0.0,0.0,0.0,0.0,0.0,0.0,0.0,0.0,0.0,0.0,0.0,0.0,0.0,0.0,0.0,0.0,0.0,0.0,0.0,0.0,0.0,0.0,0.0,0.0,0.0,0.0,0.0,0.0,0.0,0.0,0.0,0.0,0.0,0.0,0.0,0.0,0.0,0.0,0.0,0.0,0.0,0.0,0.0,0.0,0.0,0.0,0.0,0.0,0.0,0.0,0.0,0.0,0.0,0.0,0.0,0.0,0.0,0.0,0.0,0.0,0.0,0.0,0.0,0.0,0.0,0.0,0.0,0.0,0.0,0.0,0.0,0.0,0.0,-4.6882,-4.6335,-4.6032,-4.6601,-4.6657,-4.6657,-4.6657,-4.6657,-4.6657,-4.6657,0.0,0.0,0.0,0.0,0.0,0.0,0.0,0.0,0.0,0.0,0.0,0.0,0.0,0.0,0.0,0.0,0.0,0.0,0.0,0.0,0.0,0.0,0.0,0.0,0.0,0.0,0.0,0.0,0.0,0.0,0.0,0.0,0.0,0.0,0.0,0.0,0.0,0.0,0.0,0.0,0.0,0.0,0.0,0.0,0.0,0.0,0.0,0.0,0.0,0.0,0.0,0.0,0.0,0.0,0.0,0.0,0.0,0.0,0.0,0.0,0.0,0.0,0.0,0.0,0.0,0.0,0.0,0.0,0.0,0.0,0.0,0.0,0.0,0.0,0.0,0.0,0.0,0.0,0.0,0.0,0.0,0.0,0.0,0.0,0.0,0.0,0.0,0.0,0.0,0.0,0.0,0.0,0.0,0.0,0.0,0.0,0.0,0.0,0.0,0.0,0.0,0.0,-4.7649,-4.7134,-4.6866,-4.734,-4.7397,-4.7397,-4.7397,-4.7397,-4.7397,-4.7397,0.0,0.0,0.0,0.0,0.0,0.0,0.0,0.0,0.0,0.0,0.0,0.0,0.0,0.0,0.0,0.0,0.0,0.0,0.0,0.0,0.0,0.0,0.0,0.0,0.0,0.0,0.0,0.0,0.0,0.0,0.0,0.0,0.0,0.0,0.0,0.0,0.0,0.0,0.0,0.0,0.0,0.0,0.0,0.0,0.0,0.0,0.0,0.0,0.0,0.0,0.0,0.0,0.0,0.0,0.0,0.0,0.0,0.0,0.0,0.0,0.0,0.0,0.0,0.0,0.0,0.0,0.0,0.0,0.0,0.0,0.0,0.0,0.0,0.0,0.0,0.0,0.0,0.0,0.0,0.0,0.0,0.0,0.0,0.0,0.0,0.0,0.0,0.0,0.0,0.0,0.0,0.0,0.0,0.0,0.0,0.0,0.0,0.0,0.0,0.0,0.0,0.0,-4.8102,-4.7776,-4.7548,-4.7605,-4.7624,-4.7624,-4.7624,-4.7624,-4.7624,-4.7624,0.0,0.0,0.0,0.0,0.0,0.0,0.0,0.0,0.0,0.0,0.0,0.0,0.0,0.0,0.0,0.0,0.0,0.0,0.0,0.0,0.0,0.0,0.0,0.0,0.0,0.0,0.0,0.0,0.0,0.0,0.0,0.0,0.0,0.0,0.0,0.0,0.0,0.0,0.0,0.0,0.0,0.0,0.0,0.0,0.0,0.0,0.0,0.0,0.0,0.0,0.0,0.0,0.0,0.0,0.0,0.0,0.0,0.0,0.0,0.0,-4.2221,-4.2124,0.0,0.0,0.0,0.0,0.0,0.0,0.0,0.0,0.0,0.0,0.0,0.0,0.0,0.0,0.0,0.0,0.0,0.0,0.0,0.0,0.0,0.0,0.0,0.0,0.0,0.0,0.0,0.0,0.0,0.0,0.0,0.0,0.0,0.0,0.0,0.0,0.0,0.0,0.0,0.0,-4.9534,-4.8954,-4.8666,-4.9292,-4.9367,-4.9367,-4.9367,-4.9367,-4.9367,-4.9367,-4.8761,0.0,0.0,0.0,0.0,0.0,0.0,0.0,0.0,0.0,0.0,0.0,0.0,0.0,0.0,0.0,0.0,0.0,0.0,0.0,0.0,0.0,0.0,0.0,0.0,0.0,0.0,0.0,0.0,0.0,0.0,0.0,0.0,0.0,0.0,0.0,0.0,0.0,0.0,0.0,0.0,0.0,0.0,0.0,0.0,0.0,0.0,0.0,0.0,0.0,0.0,0.0,0.0,0.0,0.0,0.0,0.0,0.0,0.0,0.0,-4.3137,-4.2961,0.0,0.0,0.0,0.0,0.0,0.0,0.0,0.0,0.0,0.0,0.0,0.0,0.0,0.0,0.0,0.0,0.0,0.0,0.0,0.0,0.0,0.0,0.0,0.0,0.0,0.0,0.0,0.0,0.0,0.0,0.0,0.0,0.0,0.0,0.0,0.0,0.0,0.0,0.0,0.0,-5.0097,-4.9651,-4.9424,-4.9841,-4.9898,-4.9898,-4.9898,-4.9898,-4.9898,-4.9898,-4.95,0.0,0.0,0.0,0.0,0.0,0.0,0.0,0.0,0.0,0.0,0.0,0.0,0.0,0.0,0.0,0.0,0.0,0.0,0.0,0.0,0.0,0.0,0.0,0.0,0.0,0.0,0.0,0.0,0.0,0.0,0.0,0.0,0.0,0.0,0.0,0.0,0.0,0.0,0.0,0.0,0.0,0.0,0.0,0.0,0.0,0.0,0.0,0.0,0.0,0.0,0.0,0.0,0.0,-4.3532,-4.3805,-4.3858,-4.4403,-4.4754,-4.4812,-4.339,-4.3156,-4.3838,-4.3838,0.0,0.0,0.0,0.0,0.0,0.0,0.0,0.0,0.0,0.0,0.0,0.0,0.0,0.0,0.0,0.0,0.0,0.0,0.0,0.0,0.0,0.0,-4.8392,-4.8392,-4.8527,-4.843,-4.7715,0.0,0.0,0.0,0.0,0.0,0.0,0.0,0.0,0.0,0.0,0.0,-5.0212,-5.0012,-4.9898,-4.9898,-4.9898,-4.9898,-4.9898,-4.9898,-4.9898,-4.9898,-4.9898,-4.9898,0.0,0.0,0.0,0.0,0.0,0.0,0.0,0.0,0.0,0.0,0.0,0.0,0.0,0.0,0.0,0.0,0.0,0.0,0.0,0.0,0.0,0.0,0.0,0.0,0.0,0.0,0.0,0.0,0.0,0.0,0.0,0.0,-3.6604,-3.7292,0.0,0.0,0.0,0.0,0.0,0.0,0.0,0.0,0.0,0.0,0.0,0.0,0.0,-4.3693,-4.435,-4.4355,-4.4811,-4.567,-4.4917,-4.4625,-4.4715,-4.4052,-4.4189,-4.489,-4.4656,0.0,-4.4734,-4.4734,0.0,0.0,0.0,0.0,0.0,0.0,0.0,0.0,0.0,0.0,0.0,0.0,0.0,0.0,0.0,0.0,0.0,0.0,0.0,0.0,0.0,0.0,-4.8392,-4.8392,-4.8972,-4.9494,-4.9378,-4.8856,-4.8361,-4.8172,-4.8754,-4.9238,0.0,0.0,0.0,0.0,0.0,0.0,-5.0188,-5.0012,-4.9898,-4.9898,-4.9898,-4.9898,-4.9898,-4.9898,-4.9898,-4.9898,-4.9898,-4.9898,-4.9898,-4.9784,0.0,0.0,0.0,0.0,0.0,0.0,0.0,0.0,0.0,0.0,0.0,0.0,0.0,0.0,0.0,0.0,0.0,0.0,0.0,0.0,0.0,0.0,0.0,0.0,0.0,0.0,0.0,0.0,0.0,-3.7368,-3.8037,-3.84,-3.926,-3.9883,0.0,0.0,0.0,0.0,0.0,0.0,0.0,0.0,0.0,-4.4392,-4.42,-4.4336,-4.4781,-4.523,-4.5686,-4.6215,-4.675,-4.7042,-4.7072,-4.6702,-4.6722,-4.7092,-4.7092,-4.7092,-4.7053,-4.6566,-4.641,-4.6527,0.0,0.0,0.0,0.0,-4.6415,-4.6367,-4.6367,-4.6568,-4.6903,-4.7315,0.0,0.0,0.0,0.0,0.0,0.0,0.0,-4.9126,-4.9126,-4.9475,-4.9823,-4.9823,-5.0113,-5.0384,-5.0384,-5.0011,-4.9674,-4.9565,-4.9873,-5.0067,-4.9888,-5.0174,0.0,0.0,0.0,-5.0163,-5.0038,-4.9959,-4.9898,-4.9898,-4.9898,-4.9898,-4.9898,-4.9898,-4.9898,-4.9898,-4.9898,-4.9898,-4.9898,-4.9898,-4.9898,0.0,0.0,0.0,0.0,0.0,0.0,0.0,0.0,0.0,0.0,0.0,0.0,0.0,0.0,0.0,0.0,0.0,0.0,0.0,0.0,0.0,0.0,0.0,0.0,0.0,0.0,0.0,0.0,-3.9221,-3.9642,-3.9642,-4.0941,-4.1647,0.0,0.0,0.0,0.0,0.0,0.0,-4.4536,-4.5401,-4.5879,-4.5933,-4.5622,-4.5512,-4.5611,-4.6297,-4.6679,-4.6808,-4.8156,-4.8806,-4.8806,-4.8806,-4.8779,-4.8736,-4.8779,-4.888,-4.8915,-4.8148,-4.8195,-4.8772,-4.8772,-4.8719,-4.8672,-4.8672,-4.8621,-4.8565,-4.8565,-4.8528,-4.8515,-4.88,-4.9013,-4.9143,-4.9193,0.0,0.0,0.0,0.0,-5.0016,-5.0016,-5.0461,-5.0906,-5.0906,-5.0906,-5.089,-5.0858,-5.0773,-5.0682,-5.0625,-5.0586,-5.0506,-5.0313,-5.0272,0.0,-5.0139,-5.0114,-5.0063,-4.9925,-4.9898,-4.9898,-4.9898,-4.9898,-4.9898,-4.9898,-4.9898,-4.9898,-4.9898,-4.9898,-4.9898,-4.9898,-4.9898,-4.9898,-4.9898,0.0,0.0,0.0,0.0,0.0,0.0,0.0,0.0,0.0,0.0,0.0,0.0,0.0,0.0,0.0,0.0,0.0,0.0,0.0,0.0,0.0,0.0,0.0,0.0,0.0,0.0,0.0,0.0,0.0,-4.1361,-4.2183,0.0,0.0,0.0,0.0,-4.524,-4.448,-4.4039,-4.422,-4.5045,-4.5591,-4.5708,-4.726,-4.811,-4.8125,-4.8296,-4.8375,-4.8386,-4.8669,-4.8806,-4.8806,-4.8806,-4.8699,-4.8533,-4.8708,-4.905,-4.9427,-4.8944,-4.8725,-4.8701,-4.8701,-4.8672,-4.8619,-4.8619,-4.8553,-4.8503,-4.8503,-4.8463,-4.8527,-4.9374,-5.0211,-5.0868,-5.0887,-5.0887,0.0,0.0,-5.087,-5.0848,-5.0848,-5.0867,-5.0906,-5.0906,-5.0906,-5.0874,-5.0738,-5.0701,-5.0644,-5.0446,-5.0313,-5.0163,-4.9959,0.0,-4.9906,-4.9925,-4.9925,-4.9906,-4.9879,-4.9898,-4.9898,-4.9898,-4.9898,-4.9898,-4.9898,-4.9898,-4.9898,-4.9898,-4.9898,-4.9898,-4.9898,-4.9898,-4.9898,-4.9898,-4.9898,0.0,0.0,0.0,0.0,0.0,0.0,0.0,0.0,0.0,0.0,0.0,0.0,0.0,0.0,0.0,0.0,0.0,0.0,0.0,0.0,0.0,0.0,0.0,0.0,0.0,0.0,0.0,0.0,-4.2393,-4.3558,0.0,-4.3695,-4.4363,-4.4994,-4.5342,-4.563,-4.6033,-4.6626,-4.7058,-4.733,-4.7376,-4.7975,-4.8303,-4.8303,-4.8846,-4.9201,-4.9345,-4.9973,-5.0325,-5.0404,-5.0404,-5.0369,-5.0315,-5.0369,-5.0499,-5.0655,-5.0477,-5.0343,-5.0245,-5.0296,-5.0275,-5.02,-5.0164,-5.0098,-5.0027,-5.0027,-5.0031,-5.0055,-5.0384,-5.0689,-5.0937,-5.0937,-5.0937,-5.0937,-5.0937,-5.0921,-5.0906,-5.0906,-5.0906,-5.0906,-5.0906,-5.0841,-5.0756,-5.0701,-5.0526,-5.0374,-5.0287,-5.0236,-5.0139,-4.9933,-4.9898,-4.9898,-4.9898,-4.9898,-4.9898,-4.9898,-4.9898,-4.9898,-4.9898,-4.9898,-4.9898,-4.9898,-4.9898,-4.9898,-4.9898,-4.9898,-4.9898,-4.9898,-4.9898,-4.9898,-4.9898,-4.9898,-4.9898,0.0,0.0,0.0,0.0,0.0,0.0,0.0,0.0,0.0,0.0,0.0,0.0,0.0,0.0,0.0,0.0,0.0,0.0,0.0,0.0,0.0,0.0,0.0,0.0,0.0,0.0,-4.4131,-4.331,-4.4685,-4.5373,-4.4532,-4.5468,-4.6137,-4.6137,-4.676,-4.7376,-4.7914,-4.8336,-4.8581,-4.8629,-4.8919,-4.9106,-4.915,-4.9751,-5.0248,-5.0678,-5.1314,-5.1804,-5.2177,-5.2177,-5.2141,-5.2076,-5.2141,-5.2104,-5.2007,-5.2057,-5.1975,-5.1767,-5.1322,-5.1117,-5.103,-5.0976,-5.0952,-5.0906,-5.0906,-5.0906,-5.0906,-5.0906,-5.0906,-5.0906,-5.0906,-5.0906,-5.0906,-5.0906,-5.0906,-5.0983,-5.1254,-5.1351,-5.1393,-5.1614,-5.1604,-5.1511,-5.1411,-5.1193,-5.1021,-5.0945,-5.0488,-5.0063,-4.9906,-4.9898,-4.9898,-4.9898,-4.9898,-4.9898,-4.9898,-4.9898,-4.9898,-4.9898,-4.9898,-4.9898,-4.9898,-4.9898,-4.9898,-4.9898,-4.9898,-4.9898,-4.9898,-4.9898,-4.9898,-4.9898,-4.9898,-4.9898,-4.9898,0.0,0.0,0.0,0.0,0.0,0.0,0.0,0.0,0.0,0.0,0.0,0.0,0.0,0.0,0.0,0.0,0.0,0.0,0.0,0.0,0.0,0.0,0.0,-4.4169,-4.48,-4.501,-4.4188,-4.5545,-4.6233,-4.5449,-4.6863,-4.7857,-4.7857,-4.7876,-4.7895,-4.7895,-4.87,-4.9212,-4.9336,-5.0202,-5.0718,-5.0828,-5.105,-5.161,-5.2445,-5.2553,-5.3065,-5.3883,-5.3883,-5.3779,-5.3604,-5.3779,-5.3697,-5.3394,-5.3527,-5.3432,-5.3044,-5.1676,-5.1081,-5.0967,-5.0967,-5.0967,-5.0967,-5.0967,-5.0967,-5.0967,-5.0967,-5.0967,-5.0967,-5.0967,-5.0967,-5.0967,-5.0967,-5.0967,-5.1161,-5.1992,-5.2221,-5.2384,-5.3051,-5.3205,-5.3084,-5.2761,-5.2705,-5.2627,-5.2428,-5.1092,-4.9974,-4.9974,-4.9974,-4.9974,-4.9974,-4.9974,0.0,-4.9974,-4.9974,-4.9974,-4.9974,-4.9974,-4.9955,-4.9936,-4.9936,-4.9917,-4.9898,-4.9898,-4.9898,-4.9898,-4.9898,-4.9898,-4.9898,-4.9898,-4.9898,-4.9898,0.0,0.0,0.0,0.0,0.0,0.0,0.0,0.0,0.0,0.0,0.0,0.0,0.0,0.0,0.0,0.0,0.0,0.0,0.0,0.0,0.0,0.0,-4.5889,-4.5067,-4.564,-4.608,-4.5851,-4.6787,-4.736,-4.7131,-4.8105,-4.8735,-4.8735,-4.9405,-4.9835,-4.9835,-5.0143,-5.0347,-5.0397,-5.1228,-5.1705,-5.1734,-5.2419,-5.2937,-5.3273,-5.3197,-5.3359,-5.3677,-5.3527,-5.3436,-5.3371,-5.3387,-5.334,-5.3256,-5.3235,-5.3164,-5.3032,-5.2683,-5.2491,-5.2416,-5.2374,-5.2354,-5.2354,-5.2354,-5.2354,-5.2354,-5.2354,-5.2354,-5.2354,-5.2354,-5.2354,-5.2354,-5.2354,-5.2354,-5.2412,-5.2661,-5.2719,-5.2737,-5.2944,-5.2909,-5.281,-5.273,-5.2574,-5.2456,-5.24,-5.204,-5.1717,-5.1717,-5.1717,-5.1717,-5.1717,-5.1717,-5.1717,-5.1717,-5.1717,-5.1717,-5.1717,-5.1717,-5.149,-5.0884,-5.0846,-5.0561,-4.9936,-4.9898,-4.9898,-4.9898,-4.9898,-4.9898,-4.9898,-4.9898,-4.9898,0.0,0.0,0.0,0.0,0.0,0.0,0.0,0.0,0.0,0.0,0.0,0.0,0.0,0.0,0.0,0.0,0.0,0.0,0.0,0.0,0.0,0.0,-4.6748,-4.7016,-4.6901,-4.6978,-4.7054,-4.7054,-4.7818,-4.8334,-4.8334,-4.9117,-4.9595,-4.9595,-5.015,-5.0464,-5.0464,-5.0894,-5.1163,-5.1215,-5.2064,-5.2543,-5.2608,-5.3111,-5.3565,-5.4023,-5.3952,-5.4126,-5.4551,-5.4439,-5.4373,-5.4336,-5.4318,-5.4263,-5.4245,-5.411,-5.4026,0.0,0.0,0.0,0.0,0.0,-5.2893,-5.2893,-5.2893,-5.2893,-5.2893,-5.2893,-5.2893,-5.2893,-5.2893,-5.2893,-5.2893,-5.2893,-5.2893,-5.297,-5.3353,-5.343,-5.3502,-5.3795,-5.3792,-5.3708,-5.362,-5.3528,-5.3461,-5.3461,-5.3461,0.0,-5.3461,-5.2873,-5.24,-5.24,-5.24,-5.24,-5.24,-5.24,-5.24,-5.24,-5.24,-5.221,-5.1755,-5.1717,0.0,0.0,0.0,-5.0277,-4.9917,-4.9898,0.0,0.0,0.0,-4.9898,-4.9898,-4.9898,0.0,0.0,-4.9671,-4.9633,0.0,0.0,0.0,0.0,0.0,0.0,0.0,0.0,0.0,0.0,0.0,0.0,0.0,0.0,0.0,0.0,-4.7952,-4.8258,-4.9098,-4.8563,-4.8086,-4.8086,-4.8754,-4.9232,-4.9232,-4.9882,-5.0302,-5.0302,-5.0402,-5.0482,-5.0482,0.0,0.0,0.0,0.0,-5.3321,-5.3445,-5.3542,-5.4042,-5.4892,-5.4875,-5.5302,-5.6151,-5.6115,-5.6058,-5.6001,-5.6001,-5.5982,-5.5902,-5.5723,-5.5599,-5.5377,-5.3817,-5.3165,-5.313,-5.313,-5.313,-5.313,-5.313,0.0,0.0,-5.313,-5.313,-5.313,-5.313,-5.313,-5.313,-5.313,-5.313,-5.3283,-5.4092,-5.4283,-5.4426,-5.5012,-5.5176,-5.5121,-5.4931,-5.4901,-5.4901,-5.4901,-5.4901,-5.4901,-5.4901,-5.3669,-5.2684,-5.2684,-5.2684,-5.2684,-5.2684,-5.2684,-5.2684,-5.2684,-5.2684,0.0,-5.2551,-5.2551,-5.2513,-5.2419,-5.1736,-5.0997,-5.0201,-5.0088,-5.005,-5.005,-4.9909,-4.9824,-4.9824,-4.9797,-4.9797,-4.9797,-4.9824,-4.9824,0.0,0.0,0.0,0.0,0.0,0.0,0.0,0.0,0.0,0.0,0.0,0.0,0.0,0.0,0.0,-4.8716,-4.885,-4.9137,-4.9958,-4.992,-4.9824,-4.9824,-4.9977,-5.0073,-5.0073,-5.0206,-5.0302,-5.0302,-5.1056,-5.1506,-5.1506,-5.2435,-5.2971,-5.3007,-5.3855,-5.4317,-5.4351,-5.5047,-5.5821,-5.6691,0.0,0.0,-5.767,-5.7435,-5.7328,-5.7328,-5.7294,-5.7221,-5.724,-5.712,-5.7053,-5.6842,-5.518,-5.4515,-5.4506,-5.4506,-5.4506,-5.4506,-5.4506,-5.4506,-5.4506,-5.4506,-5.4506,-5.4506,-5.4506,-5.4506,0.0,-5.4506,-5.4506,-5.4544,-5.4715,-5.4753,-5.4791,-5.4933,-5.496,-5.496,-5.4901,-5.4901,-5.4901,-5.4901,-5.4901,-5.4901,-5.4901,-5.4636,-5.4427,-5.4427,-5.4427,-5.4427,-5.4427,-5.4427,-5.4427,-5.4427,-5.4427,-5.4162,-5.3499,-5.3461,-5.3158,-5.2456,-5.2267,-5.2096,-5.1926,-5.13,-5.0959,-5.0959,-4.9984,-4.9506,-4.9506,-4.9169,-4.9019,-4.9019,-4.9346,-4.9506,0.0,0.0,0.0,0.0,0.0,0.0,0.0,0.0,0.0,0.0,0.0,-4.8067,0.0,0.0,-4.9194,-4.9633,-4.9691,-4.9843,-5.0245,-5.0302,-5.0302,-5.0302,-5.0302,-5.0302,-5.0302,-5.0684,-5.0951,-5.0951,-5.1794,-5.2302,-5.2302,-5.3176,-5.3701,-5.3701,-5.4547,-5.5182,-5.5605,-5.603,-5.6703,-5.7569,-5.7388,-5.7525,-5.7908,-5.7764,-5.7672,-5.7644,-5.7682,-5.7654,-5.7547,-5.7476,-5.7415,-5.7308,-5.6474,-5.6152,-5.6152,-5.6152,-5.6152,-5.6152,-5.6152,-5.6152,-5.6152,-5.6152,-5.6152,-5.6152,-5.6152,-5.6152,-5.6152,-5.6152,-5.6152,-5.6152,-5.6152,-5.6152,-5.6152,-5.6152,-5.6152,-5.6152,-5.6152,-5.6152,-5.6152,-5.6152,-5.6152,-5.6152,-5.6152,-5.6152,-5.5868,-5.5034,-5.4901,-5.4901,-5.4901,-5.4901,-5.4901,-5.4901,-5.4901,-5.475,-5.4333,-5.4295,-5.3935,-5.3101,-5.3063,-5.2854,-5.2419,-5.2021,-5.1812,-5.1812,-5.0818,-5.0188,-4.9997,-4.9375,-4.9005,-4.8816,-4.8834,-4.8956,0.0,0.0,0.0,0.0,0.0,0.0,0.0,0.0,-4.8048,-4.8907,-4.9098,-4.9347,-5.0149,-5.0302,-5.0302,-5.0302,-5.0302,-5.0302,-5.0302,-5.0302,-5.0302,-5.0302,-5.0302,-5.0378,-5.055,-5.12,-5.1658,-5.183,-5.2594,-5.3053,-5.3053,-5.3874,-5.4428,-5.4556,-5.5269,-5.6014,-5.679,-5.6809,-5.7248,-5.8108,-5.7987,-5.8016,-5.8196,-5.8168,-5.8139,-5.8081,-5.8197,-5.8139,-5.7981,-5.7939,-5.7908,-5.7895,-5.7895,-5.7895,-5.7839,-5.7516,-5.7403,-5.7403,-5.7403,-5.7403,-5.7403,-5.7403,-5.7403,-5.7403,-5.7403,-5.7403,-5.7403,-5.7403,-5.7403,-5.7403,-5.7403,-5.7403,-5.7403,-5.7403,-5.7403,-5.7403,-5.7403,-5.7403,-5.7403,-5.7403,-5.7403,-5.7403,-5.7403,-5.7403,-5.6929,-5.5583,-5.5394,-5.5337,-5.5166,-5.5148,-5.5091,-5.492,-5.4901,-5.4901,-5.4901,-5.4901,-5.4617,-5.3973,-5.3935,-5.3583,-5.2805,-5.2605,-5.2481,-5.2383,-5.153,-5.0924,-5.0609,-4.9874,-4.9387,-4.9048,-4.8803,-4.8658,-4.3818,-4.4436,-4.4973,-4.5058,-4.5789,-4.65,0.0,0.0,-4.8048,-4.8907,-4.9098,-4.9347,-5.0149,-5.0302,-5.0302,-5.0302,-5.0302,-5.0302,-5.0302,-5.0302,-5.0302,-5.0302,-5.0302,-5.0608,-5.1391,-5.1544,-5.1907,-5.2614,-5.3473,-5.3951,-5.3951,-5.4791,-5.5568,-5.6213,-5.6389,-5.6828,-5.7567,-5.7567,-5.8006,-5.8864,-5.8806,-5.9206,-6.0027,-5.9881,-5.9832,-5.9832,-5.9771,-5.976,-5.9728,-5.9709,-5.9665,-5.962,-5.962,-5.962,-5.943,-5.7952,-5.7403,-5.7403,-5.7403,-5.7403,-5.7403,-5.7403,-5.7403,-5.7403,-5.7403,-5.7403,-5.7403,-5.7403,-5.7403,-5.7403,-5.7403,-5.7403,-5.7403,-5.7403,-5.7403,-5.7403,-5.7403,-5.7403,-5.7403,-5.7403,-5.7403,-5.7403,-5.7403,-5.7403,-5.7327,-5.7156,-5.7118,-5.6853,-5.6152,-5.6057,-5.5754,-5.4977,-5.4901,-5.4901,-5.4901,-5.4901,-5.4863,-5.4769,-5.4769,-5.4572,-5.4119,-5.3391,-5.2844,-5.2399,-5.1267,-5.063,-5.0609,-5.0227,-4.9998,-4.9973,-4.9949,-4.9318,-4.3791,-4.4454,-4.5125,0.0,-4.6247,-4.7376,-4.785,-4.8636,-4.9366,-4.971,-4.9805,-4.9901,-5.0245,-5.0302,-5.0302,0.0,-5.0302,-5.0302,-5.0302,-5.0302,-5.0493,-5.1009,-5.1066,-5.12,-5.1563,-5.248,-5.3187,-5.3531,-5.4352,-5.4804,-5.474,-5.5553,-5.6183,-5.6499,-5.6984,-5.7633,-5.8444,-5.8463,-5.8902,-5.976,-5.9653,-5.9824,-6.0313,-6.0167,-6.0099,-6.0118,-6.0026,-5.9994,-5.9994,-5.995,-5.9918,-5.9885,-5.9885,-5.9885,-5.9809,-5.9108,-5.8843,-5.8843,-5.8843,-5.8843,-5.8843,-5.8843,-5.8843,-5.8843,-5.8843,-5.8843,-5.8843,-5.8843,-5.8843,-5.8843,-5.8843,-5.8843,-5.8843,-5.8843,-5.8843,-5.8843,-5.8843,-5.8843,-5.8843,-5.8843,-5.8843,-5.8843,-5.8843,-5.8843,-5.8843,-5.8843,-5.8009,-5.727,-5.6929,-5.6891,-5.6569,-5.5754,-5.5659,-5.5451,-5.4939,-5.4901,-5.4901,-5.4901,-5.4901,-5.4822,-5.4648,-5.4096,-5.3721,-5.351,-5.227,-5.1556,-5.1353,-5.0689,-5.0296,-5.009,-5.009,-4.9858,-4.4099,0.0,0.0,-4.5551,-4.6854,-4.8289,-4.8895,-4.9706,-5.0302,-5.0302,-5.0302,-5.0302,-5.0302,-5.0302,-5.0302,-5.0302,-5.0302,-5.0302,-5.0302,-5.0278,-5.0603,-5.1505,-5.1744,-5.1973,-5.227,-5.3397,-5.418,-5.4384,-5.4995,-5.5408,-5.5573,-5.6156,-5.6681,-5.7158,-5.7758,-5.8454,-5.9282,-5.9282,-5.9606,-6.0235,-6.0137,-6.0118,-6.0216,-6.0137,-6.0068,-6.0087,-5.9994,-5.9963,-5.9982,-5.9918,-5.9885,-5.9885,-5.9885,-5.9885,-5.9885,-5.9885,-5.9885,-5.9885,-5.9885,-5.9885,-5.9885,-5.9885,-5.9885,-5.9885,-5.9885,-5.9885,-5.9885,-5.9885,-5.9885,-5.9885,-5.9885,-5.9885,-5.9885,-5.9885,-5.9885,-5.9885,-5.9885,-5.9885,-5.9885,-5.9885,-5.9885,-5.9885,-5.9885,-5.9885,-5.9885,-5.9885,-5.8862,-5.8009,-5.7782,-5.7554,-5.7175,-5.6588,-5.6531,-5.6285,-5.564,-5.5394,-5.5261,-5.5261,-5.4924,-5.468,-5.4565,-5.4193,-5.3925,-5.3814,-5.2915,-5.2302,-5.2066,-5.142,-5.0994,-5.0741,-5.0741,-5.0741,0.0,0.0,-4.6311,-4.6428,-4.7728,-4.901,-4.9075,-4.971,-5.0302,-5.0302,-5.0302,-5.0302,-5.0302,-5.0302,-5.0302,-5.0302,-5.0302,-5.0302,-5.0302,-5.0236,-5.0536,-5.1481,-5.2164,-5.2965,0.0,-5.4065,-5.4403,-5.5115,-5.5183,-5.5618,-5.6511,-5.6534,-5.7215,-5.8767,-5.893,-5.9272,-5.9956,-6.003,-6.0049,-5.9994,-5.9994,-5.9994,-5.9994,-5.9994,-5.9994,-5.9994,-5.9918,-5.9885,-5.9885,-5.9885,-5.9885,-5.9885,-5.9885,-5.9885,-5.9885,-5.9885,-5.9885,-5.9885,-5.9885,-5.9885,-5.9885,-5.9885,-5.9885,-5.9885,-5.9885,-5.9885,-5.9885,-5.9885,-5.9885,-5.9885,-5.9885,-5.9885,-5.9885,-5.9885,-5.9885,-5.9885,-5.9885,-5.9885,-5.9885,-5.9885,-5.9885,-5.9885,-5.9885,-5.9885,-5.9885,-5.9885,-5.9847,-5.9525,-5.8748,-5.7914,-5.7384,-5.7365,-5.7365,-5.7346,-5.7327,-5.6607,-5.6152,-5.6152,-5.4985,-5.4158,-5.3758,-5.3348,-5.2944,-5.2572,-5.2508,-5.249,-5.2508,-5.2472,-5.2426,-5.2426,-5.2426,-5.2426,-4.5235,0.0,-4.6592,-4.7786,-4.8562,-4.9158,-4.9697,-5.0045,-5.0255,-5.0302,-5.0231,-5.0207,-5.0278,-5.0278,-5.0255,-5.0302,-5.0302,-5.0278,-5.0255,-5.0751,-5.1419,-5.2215,-5.3048,0.0,0.0,0.0,0.0,-5.5164,-5.5183,-5.5538,-5.635,-5.6873,-5.7661,-5.8791,-5.9372,-5.9771,-5.9994,-6.0026,-6.0026,-5.9994,-6.0057,-6.0057,-5.9994,-5.9994,-5.9982,-5.9918,-5.9918,-5.9885,-5.9885,-5.9885,-5.9885,-5.9885,-5.9885,-5.9885,-5.9885,-5.9885,-5.9885,-5.9885,-5.9885,-5.9885,-5.9885,-5.9885,-5.9885,-5.9885,-5.9885,-5.9885,-5.9885,-5.9885,-5.9885,-5.9885,-5.9885,-5.9885,-5.9885,-5.9885,-5.9885,-5.9885,-5.9885,-5.9885,-5.9885,-5.9885,-5.9885,-5.9885,-5.9885,-5.9885,-5.9885,-5.9885,-5.9885,-5.9791,-5.9525,-5.9241,-5.8727,-5.7906,-5.7796,-5.7465,-5.6631,-5.6295,-5.6145,-5.6145,-5.5231,-5.4633,-5.45,-5.3603,-5.3054,-5.29,-5.2645,-5.2498,-5.2498,-5.2498,-5.2498,-5.2498,-5.2498,-5.2498,-4.5565,-4.6322,-4.7086,-4.8523,-4.9143,-4.9534,-5.0073,-4.9954,-4.9744,-4.9816,-4.9763,-4.9695,-4.9835,-5.0016,-5.0207,-5.0255,-5.0255,-5.0231,-5.0188,-5.0975,-5.1814,-5.2584,-5.3415,-5.4253,0.0,0.0,0.0,-5.5176,-5.5434,-5.5931,-5.673,-5.7536,-5.8342,-5.9197,-5.9728,-5.9994,-5.9963,-5.9994,-5.9994,-5.9994,-6.0026,-5.9994,-5.9963,-5.9963,-5.995,-5.9885,-5.9885,-5.9885,-5.9885,-5.9885,-5.9885,-5.9885,-5.9885,-5.9885,-5.9885,-5.9885,-5.9885,-5.9885,-5.9885,-5.9885,-5.9885,-5.9885,-5.9885,-5.9885,-5.9885,-5.9885,-5.9885,-5.9885,-5.9885,-5.9885,-5.9885,-5.9885,-5.9885,-5.9885,-5.9885,-5.9885,-5.9885,-5.9885,-5.9885,-5.9885,-5.9767,-5.9628,-5.9628,-5.9524,-5.9453,-5.9453,-5.9453,-5.9489,-5.9628,-5.9524,-5.9119,-5.8315,-5.8202,-5.7881,-5.7063,-5.6707,-5.654,-5.654,-5.5658,-5.5003,-5.4707,-5.3812,-5.3167,-5.2875,-5.2645,-5.2498,-5.2498,-5.2498,-5.2498,-5.2498,-5.2498,-5.2498,-4.5821,-4.686,-4.7751,-4.8713,-4.9537,-5.0108,-5.0163,-4.9567,-4.899,-4.9039,-4.899,-4.899,0.0,0.0,-5.0133,-5.0188,-5.0158,-5.0133,-5.0163,-5.092,-5.1725,0.0,0.0,0.0,0.0,0.0,0.0,-5.5151,0.0,-5.6681,-5.7519,-5.8353,-5.9159,-5.9975,-5.9994,-5.9963,-5.9885,-5.9963,-5.9994,-5.9994,-5.9918,-5.9885,-5.9885,-5.9885,-5.9885,-5.9885,-5.9885,-5.9885,-5.9885,-5.9885,-5.9885,-5.9885,-5.9885,-5.9885,-5.9885,-5.9885,-5.9885,-5.9885,-5.9885,-5.9885,-5.9885,-5.9885,-5.9885,-5.9885,-5.9885,-5.9885,-5.9885,-5.9885,-5.9885,-5.9885,-5.9885,-5.9885,-5.9885,-5.9885,-5.9885,-5.9885,-5.9885,-5.9885,-5.9885,-5.9885,-5.9505,-5.9196,-5.9159,-5.8852,-5.8586,-5.8586,-5.8586,-5.871,-5.914,-5.8831,-5.8586,-5.8586,-5.8545,-5.8545,-5.8545,-5.7761,-5.7297,-5.7297,-5.6172,-5.52,-5.4429,-5.3963,-5.3403,-5.2643,-5.2625,-5.2625,-5.2625,-5.2625,-5.2625,-5.2625,-5.2625,-5.2607,-4.6281,-4.7136,-4.7884,-4.9398,-4.9955,-5.0108,-5.0133,-4.9936,-4.9803,-4.9828,-4.9778,-4.9752,0.0,0.0,0.0,-5.0108,-5.0108,0.0,-5.0057,-5.1338,0.0,-5.2501,0.0,-5.48,-5.5102,-5.5,0.0,0.0,-5.6187,-5.6652,-5.7408,-5.828,-5.9083,-5.9899,-5.9918,-5.9918,-5.9885,-5.9918,-5.9918,-5.9918,-5.9918,-5.9885,-5.9885,-5.9885,-5.9885,-5.9885,-5.9885,-5.9885,-5.9885,-5.9885,-5.9885,-5.9885,-5.9885,-5.9885,-5.9885,-5.9885,-5.9885,-5.9885,-5.9885,-5.9885,-5.9885,-5.9885,-5.9885,-5.9885,-5.9885,-5.9885,-5.9885,-5.9885,-5.9885,-5.9885,-5.9885,-5.9885,-5.9885,-5.9885,-5.9885,-5.9885,-5.9885,-5.9885,-5.9885,-5.9885,-5.9505,-5.9084,-5.8812,-5.8669,-5.8586,-5.8586,-5.8289,-5.8245,-5.8691,-5.8669,-5.8461,-5.8131,-5.8086,-5.7951,-5.7594,-5.7346,-5.7236,-5.7236,-5.6346,-5.5789,-5.5571,-5.4919,-5.4508,-5.4291,-5.4291,-5.4291,-5.4291,-5.4291,-5.4291,-5.4291,-5.4291,-5.4295,-4.6722,-4.7617,-4.8371,-4.9733,-5.0057,-5.0057,-5.0057,-4.9746,-4.9499,-4.9524,-4.9473,0.0,-4.9524,-4.9758,0.0,0.0,0.0,0.0,-5.0005,-5.1152,-5.2121,0.0,-5.3642,0.0,-5.5019,-5.4941,-5.5291,0.0,-5.6603,-5.7142,-5.7914,-5.8767,-5.943,-5.9885,-5.9885,-5.9885,-5.9885,-5.9885,-5.9885,-5.9885,-5.9885,-5.9885,-5.9885,-5.9885,-5.9885,-5.9885,-5.9885,-5.9885,-5.9885,-5.9885,-5.9885,-5.9885,-5.9885,-5.9885,-5.9885,-5.9885,-5.9885,-5.9885,-5.9885,-5.9885,-5.9885,-5.9885,-5.9885,-5.9885,-5.9885,-5.9885,-5.9885,-5.9885,-5.9885,-5.9885,-5.9885,-5.9885,-5.9885,-5.9885,-5.9885,-5.9885,-5.9885,-5.9885,-5.9767,-5.9399,-5.893,-5.8466,-5.8068,-5.7978,-5.7978,-5.7978,-5.7766,-5.769,-5.7932,-5.7978,-5.7886,-5.7642,-5.7594,-5.7516,-5.7239,-5.7188,-5.7188,-5.7188,-5.6772,-5.6355,-5.6011,-5.5595,-5.5233,-5.4907,-5.4907,-5.4907,-5.4907,-5.4907,-5.4907,-5.4907,-5.4907,-5.4882,-4.7098,-4.8074,-4.8979,-4.9796,-5.0005,-5.0005,-5.0005,-4.9402,-4.8882,-4.8934,0.0,-4.8882,-4.8934,-4.9478,-4.9925,-4.9978,0.0,-4.9925,-4.9978,-5.0745,-5.1573,-5.2305,-5.3215,-5.4107,-5.4895,-5.4912,-5.5329,-5.6356,-5.7036,-5.7782,-5.8635,-5.9449,-5.9885,-5.9885,-5.9885,-5.9885,-5.9885,-5.9885,-5.9885,-5.9885,-5.9885,-5.9885,-5.9885,-5.9885,-5.9885,-5.9885,-5.9885,-5.9885,-5.9885,-5.9885,-5.9885,-5.9885,-5.9885,-5.9885,-5.9885,-5.9885,-5.9885,-5.9885,-5.9885,-5.9885,-5.9885,-5.9885,-5.9885,-5.9885,-5.9885,-5.9885,-5.9885,-5.9885,-5.9885,-5.9885,-5.9885,-5.9885,-5.9885,-5.9885,-5.9885,-5.9885,-5.9801,-5.9767,-5.9489,-5.8669,-5.8157,-5.7737,-5.7289,-5.7188,-5.7188,-5.7188,-5.7188,-5.7188,-5.7188,-5.7188,-5.7188,-5.7188,-5.7188,-5.7188,-5.7188,-5.7188,-5.7188,-5.7188,-5.7188,-5.688,-5.6174,-5.6156,-5.5848,-5.5214,-5.5214,-5.5214,-5.5214,-5.5214,-5.5214,-5.5214,-5.5214,-5.5214,-4.715,-4.8144,-4.8979,-4.9796,-5.0005,-4.9978,-4.9925,-4.9838,0.0,0.0,-4.9724,-4.977,-4.9717,-4.9811,-4.9906,-4.9925,0.0,0.0,0.0,0.0,-5.1509,0.0,-5.3177,-5.404,-5.4855,-5.4901,0.0,0.0,-5.7327,-5.7782,-5.8635,-5.9449,-5.9885,-5.9885,-5.9885,-5.9885,-5.9885,-5.9885,-5.9885,-5.9885,-5.9885,-5.9885,-5.9885,-5.9885,-5.9885,-5.9885,-5.9885,0.0,-5.9885,-5.9885,-5.9885,-5.9885,-5.9885,-5.9885,-5.9885,-5.9885,-5.9885,-5.9885,-5.9885,-5.9885,-5.9885,-5.9885,-5.9885,-5.9885,-5.9885,-5.9885,-5.9885,-5.9885,-5.9885,-5.9885,-5.9885,-5.9885,-5.9885,-5.9885,-5.9885,-5.9801,-5.9416,-5.9065,-5.8669,-5.8131,-5.7951,-5.7737,-5.7289,-5.7188,-5.7188,-5.7188,-5.7188,-5.7188,-5.7188,-5.7188,-5.7188,-5.7188,-5.7188,-5.7188,-5.7188,-5.7188,-5.7188,-5.7188,-5.7188,-5.7134,-5.6989,-5.6989,-5.6935,-5.679,-5.679,-5.679,-5.679,-5.679,-5.679,-5.679,-5.679,-5.679,-4.7169,-4.8074,-4.8927,-4.9743,-4.9952,-4.9952,-4.9925,0.0,0.0,0.0,-4.9925,-4.9952,-4.9925,0.0,0.0,0.0,0.0,0.0,0.0,0.0,0.0,-5.2267,-5.2779,-5.3518,0.0,-5.4901,-5.5602,-5.727,-5.7403,-5.7952,-5.926,-5.9677,-5.9885,-5.9885,-5.9885,-5.9885,-5.9885,-5.9885,-5.9885,-5.9885,-5.9885,-5.9885,-5.9885,-5.9885,-5.9885,-5.9885,-5.9885,-5.9885,-5.9885,-5.9885,-5.9885,-5.9885,-5.9885,-5.9885,-5.9885,-5.9885,-5.9885,-5.9885,-5.9885,-5.9885,-5.9885,-5.9885,-5.9885,-5.9885,-5.9885,-5.9885,-5.9885,-5.9885,-5.9885,-5.9885,-5.9885,-5.9885,-5.9885,-5.9885,-5.9715,-5.9434,-5.8969,-5.8526,-5.8157,-5.7951,-5.769,-5.7468,-5.7239,-5.7188,-5.7188,-5.7188,-5.7188,-5.7188,-5.7188,-5.7188,-5.7188,-5.7188,-5.7188,-5.7188,-5.7188,-5.7188,-5.7188,-5.7188,-5.7188,-5.7188,-5.7188,-5.7188,-5.7188,-5.7188,-5.7188,-5.7188,-5.7188,-5.7188,-5.7188,-5.7188,-5.7188,-5.7188,-4.6923,-4.7889,-4.8875,-4.969,-4.9898,-4.9898,-4.9898,-4.9898,0.0,0.0,-4.9898,-4.9898,-4.9898,0.0,-4.9898,0.0,0.0,0.0,0.0,0.0,0.0,0.0,-5.24,0.0,-5.475,-5.4901,0.0,-5.727,-5.7725,-5.8502,-5.9828,-5.9885,-5.9885,-5.9885,-5.9885,-5.9885,-5.9885,-5.9885,-5.9885,-5.9885,-5.9885,-5.9885,-5.9885,-5.9885,-5.9885,-5.9885,-5.9885,-5.9885,-5.9885,-5.9885,-5.9885,-5.9885,-5.9885,-5.9885,-5.9885,-5.9885,-5.9885,-5.9885,-5.9885,-5.9885,-5.9885,-5.9885,-5.9885,-5.9885,-5.9885,-5.9885,-5.9885,-5.9885,-5.9885,-5.9885,-5.9885,-5.9853,-5.9715,-5.9647,-5.9252,-5.8833,-5.8545,-5.8068,-5.7737,-5.7737,-5.7468,-5.7188,-5.7188,-5.7188,-5.7188,-5.7188,-5.7188,-5.7188,-5.7188,-5.7188,-5.7188,-5.7188,-5.7188,-5.7188,-5.7188,-5.7188,-5.7188,-5.7188,-5.7188,-5.7188,-5.7188,-5.7188,-5.7188,-5.7188,-5.7188,-5.7188,-5.7188,-5.7188,-5.7188,-5.7188,-5.7188,-5.7188,-4.607,-4.7472,-4.8875,-4.969,-4.9898,-4.9898,-4.9898,0.0,0.0,-4.9898,-4.9898,-4.9898,-4.9898,-4.9898,-4.9898,0.0,0.0,0.0,0.0,0.0,0.0,0.0,0.0,0.0,-5.475,-5.4901,-5.5602,-5.727,-5.8805,-5.9734,-5.9885,-5.9885,-5.9885,-5.9885,-5.9885,-5.9885,-5.9885,-5.9885,-5.9885,-5.9885,-5.9885,-5.9885,-5.9885,-5.9885,-5.9885,-5.9885,-5.9885,-5.9885,0.0,-5.9885,-5.9885,-5.9885,-5.9885,-5.9885,-5.9885,-5.9885,-5.9885,-5.9885,-5.9885,-5.9885,-5.9885,-5.9885,-5.9885,-5.9885,-5.9885,-5.9885,-5.9885,-5.9885,-5.9885,-5.9885,-5.9885,-5.9594,-5.9178,-5.8831,-5.8375,-5.7996,-5.7996,-5.7594,-5.7239,-5.7239,-5.7239,-5.7188,-5.7188,-5.7188,-5.7188,-5.7188,-5.7188,-5.7188,-5.7188,-5.7188,-5.7188,-5.7188,-5.7188,-5.7188,-5.7188,-5.7188,-5.7188,-5.7188,-5.7188,-5.7188,-5.7188,-5.7188,-5.7188,-5.7188,-5.7188,-5.7188,-5.7188,-5.7188,-5.7188,-5.7188,-5.7188,-5.7188,-4.5179,-4.6639,-4.8117,-4.8969,-4.9538,-4.9898,-4.9898,0.0,-4.9898,-4.9898,-4.9898,-4.9898,-4.9898,-4.9898,-4.9898,0.0,0.0,0.0,0.0,0.0,0.0,0.0,-5.2115,0.0,0.0,0.0,-5.5602,-5.727,-5.8938,-5.9885,-5.9885,-5.9885,-5.9885,-5.9885,-5.9885,-5.9885,-5.9885,-5.9885,-5.9885,-5.9885,-5.9885,-5.9885,-5.9885,-5.9885,-5.9885,-5.9885,-5.9885,-5.9885,0.0,-5.9885,-5.9885,-5.9885,-5.9885,-5.9885,-5.9885,-5.9885,-5.9885,-5.9885,-5.9885,-5.9885,-5.9885,-5.9885,-5.9885,-5.9885,-5.9885,-5.9885,-5.9885,-5.9885,-5.9885,-5.9834,-5.954,-5.914,-5.8732,-5.8289,-5.8041,-5.7812,-5.7546,-5.732,-5.7188,-5.7188,-5.7188,-5.7188,-5.7188,-5.7188,-5.7188,-5.7188,-5.7188,-5.7188,-5.7188,-5.7188,-5.7188,-5.7188,-5.7188,-5.7188,-5.7188,-5.7188,-5.7188,-5.7188,-5.7188,-5.7188,-5.7188,-5.7188,-5.7188,-5.7188,-5.7188,-5.7188,-5.7188,-5.7188,-5.7188,-5.7188,-5.7188,-5.7188,-4.4326,-4.5937,-4.7605,-4.8477,-4.9292,-4.9898,0.0,0.0,-4.9898,-4.9898,-4.9898,-4.9898,-4.9898,-4.9898,-4.9898,0.0,0.0,-4.9898,0.0,0.0,0.0,0.0,0.0,-5.2646,0.0,-5.4503,-5.5868,-5.7289,-5.8938,-5.9885,-5.9885,-5.9885,-5.9885,-5.9885,-5.9885,-5.9885,-5.9885,-5.9885,-5.9885,-5.9885,-5.9885,-5.9885,-5.9885,-5.9885,-5.9885,-5.9885,-5.9885,-5.9885,0.0,-5.9885,-5.9885,-5.9885,-5.9885,-5.9885,-5.9885,-5.9885,-5.9885,-5.9885,-5.9885,-5.9885,-5.9885,-5.9885,-5.9801,-5.9681,-5.9681,-5.9801,-5.9885,-5.9715,-5.9613,-5.9399,-5.893,-5.8609,-5.8289,-5.7812,-5.769,-5.7594,-5.7289,-5.7188,-5.7188,-5.7188,-5.7188,-5.7188,-5.7188,-5.7188,-5.7188,-5.7188,-5.7188,-5.7188,-5.7188,-5.7188,-5.7188,-5.7188,-5.7188,-5.7188,-5.7188,-5.7188,-5.7188,-5.7188,-5.7188,-5.7188,-5.7188,-5.7188,-5.7188,-5.7188,-5.7188,-5.7188,-5.7188,-5.7188,-5.7188,-5.7188,-5.7188,-5.7188,-4.3474,-4.552,-4.7605,-4.8477,-4.9292,-4.9898,0.0,0.0,-4.9898,-4.9898,-4.9898,-4.9898,-4.9898,-4.9898,-4.9898,-4.9898,0.0,0.0,0.0,0.0,0.0,0.0,0.0,-5.24,-5.2419,-5.4712,-5.6512,-5.7327,-5.8938,0.0,-5.9885,-5.9885,-5.9885,-5.9885,-5.9885,-5.9885,-5.9885,-5.9885,-5.9885,-5.9885,-5.9885,-5.9885,-5.9885,-5.9885,-5.9885,-5.9885,-5.9885,-5.9885,0.0,-5.9885,-5.9885,-5.9885,-5.9885,-5.9885,-5.9885,-5.9885,-5.9885,-5.9885,-5.9885,-5.9885,-5.9885,-5.9885,-5.9594,-5.9215,-5.9215,-5.954,-5.9801,-5.9344,-5.893,-5.8503,-5.8041,-5.7905,-5.7784,-5.7338,-5.7206,-5.7206,-5.7188,-5.7188,-5.7188,-5.7188,-5.7188,-5.7188,-5.7188,-5.7188,-5.7188,-5.7188,-5.7188,-5.7188,-5.7188,-5.7188,-5.7188,-5.7188,-5.7188,-5.7188,-5.7188,-5.7188,-5.7188,-5.7188,-5.7188,-5.7188,-5.7188,-5.7188,-5.7188,-5.7188,-5.7188,-5.7188,-5.7188,-5.7188,-5.7188,-5.7188,-5.7188,-5.7188,-4.2602,-4.4668,-4.6771,-4.7605,-4.8856,-4.9898,-4.9898,0.0,-4.9898,-4.9898,-4.9898,-4.9898,-4.9898,-4.9898,-4.9898,-4.9898,-4.9898,0.0,0.0,0.0,0.0,0.0,-5.1054,-5.2267,0.0,0.0,-5.6531,-5.7327,-5.8938,-5.9885,-5.9885,-5.9885,-5.9885,-5.9885,-5.9885,-5.9885,-5.9885,-5.9885,-5.9885,-5.9885,-5.9885,-5.9885,-5.9885,-5.9885,-5.9885,-5.9885,-5.9885,-5.9885,-5.9885,-5.9885,-5.9885,-5.9885,-5.9885,-5.9885,-5.9885,-5.9885,-5.9885,-5.9885,-5.9885,-5.9885,-5.9885,-5.9885,-5.9594,-5.9215,-5.9215,-5.9103,-5.8988,-5.8831,-5.8461,-5.8086,-5.7951,-5.7642,-5.737,-5.7239,-5.7188,-5.7188,-5.7188,-5.7188,-5.7188,-5.7188,-5.7188,-5.7188,-5.7188,-5.7188,-5.7188,-5.7188,-5.7188,-5.7188,-5.7188,-5.7188,-5.7188,-5.7188,-5.7188,-5.7188,-5.7188,-5.7188,-5.7188,-5.7188,-5.7188,-5.7188,-5.7188,-5.7188,-5.7188,-5.7188,-5.7188,-5.7188,-5.7188,-5.7188,-5.7188,-5.7188,-5.7188,-5.7188,0.0,-4.427,-4.6392,-4.7188,-4.8647,0.0,0.0,0.0,0.0,0.0,-4.9898,-4.9898,-4.9898,-4.9898,-4.9898,-4.9898,-4.9898,0.0,0.0,0.0,0.0,-5.077,0.0,0.0,0.0,-5.5394,-5.6171,-5.7308,-5.8938,-5.9885,-5.9885,-5.9885,-5.9885,-5.9885,-5.9885,-5.9885,-5.9885,-5.9885,-5.9885,-5.9885,-5.9885,-5.9885,-5.9885,-5.9885,-5.9885,-5.9885,-5.9885,-5.9885,0.0,-5.9885,-5.9885,-5.9885,-5.9885,-5.9885,-5.9885,-5.9885,-5.9885,-5.9885,-5.9681,-5.9628,-5.9594,-5.947,-5.9103,-5.8673,-5.8508,-5.8381,-5.8332,-5.8332,-5.7996,-5.7642,-5.7642,-5.7419,-5.7188,-5.7188,-5.7188,-5.7188,-5.7188,-5.7188,-5.7188,-5.7188,-5.7188,-5.7188,-5.7188,-5.7188,-5.7188,-5.7188,-5.7188,-5.7188,-5.7188,-5.7188,-5.7188,-5.7188,-5.7188,-5.7188,-5.7188,-5.7188,-5.7188,-5.7188,-5.7188,-5.7188,-5.7188,-5.7188,-5.7188,-5.7188,-5.7188,-5.7188,-5.7188,-5.7188,-5.7188,-5.7188,-5.7188,-5.7188,0.0,0.0,0.0,0.0,0.0,0.0,0.0,0.0,0.0,0.0,0.0,0.0,-4.9898,-4.9898,-4.9898,-4.9898,0.0,0.0,0.0,0.0,0.0,0.0,-5.0978,0.0,-5.4579,-5.4901,-5.5602,-5.727,-5.8938,-5.9885,-5.9885,-5.9885,-5.9885,-5.9885,-5.9885,-5.9885,-5.9885,-5.9885,-5.9885,-5.9885,-5.9885,-5.9885,-5.9885,-5.9885,-5.9885,-5.9885,-5.9885,-5.9885,-5.9885,-5.9885,-5.9885,-5.9885,-5.9885,-5.9885,-5.9853,-5.9853,-5.9834,-5.9767,-5.9307,-5.9178,-5.9084,-5.8691,-5.8245,-5.7812,-5.732,-5.7498,-5.7859,-5.7859,-5.7565,-5.7188,-5.7188,-5.7188,-5.7188,-5.7188,-5.7188,-5.7188,-5.7188,-5.7188,-5.7188,-5.7188,-5.7188,-5.7188,-5.7188,-5.7188,-5.7188,-5.7188,-5.7188,-5.7188,-5.7188,-5.7188,-5.7188,-5.7188,-5.7188,-5.7188,-5.7188,-5.7188,-5.7188,-5.7188,-5.7188,-5.7188,-5.7188,-5.7188,-5.7188,-5.7188,-5.7188,-5.7188,-5.7188,-5.7188,-5.7188,-5.7188,-5.7188,-5.7188,-4.2128,0.0,-4.5558,-4.7018,-4.8647,0.0,0.0,0.0,0.0,0.0,0.0,0.0,0.0,0.0,0.0,0.0,0.0,0.0,-4.9898,0.0,0.0,-5.2286,-5.1509,-5.1945,-5.4636,-5.4901,-5.5602,-5.727,-5.8938,-5.9885,-5.9885,-5.9885,-5.9885,-5.9885,-5.9885,-5.9885,-5.9885,-5.9885,-5.9885,-5.9885,-5.9885,-5.9885,-5.9885,-5.9885,-5.9885,-5.9885,-5.9885,-5.9885,-5.9885,-5.9885,-5.9885,-5.9885,-5.9885,-5.9681,-5.938,-5.938,-5.9178,-5.887,-5.8791,-5.875,-5.8669,-5.8201,-5.7996,-5.7812,-5.732,-5.7289,-5.737,-5.737,-5.7289,-5.7188,-5.7188,-5.7188,-5.7188,-5.7188,-5.7188,-5.7188,-5.7188,-5.7188,-5.7188,-5.7188,-5.7188,-5.7188,-5.7188,-5.7188,-5.7188,-5.7188,-5.7188,-5.7188,-5.7188,-5.7188,-5.7188,-5.7188,-5.7188,-5.7188,-5.7188,-5.7188,-5.7188,-5.7188,-5.7188,-5.7188,-5.7188,-5.7188,-5.7188,-5.7188,-5.7188,-5.7188,-5.7188,-5.7188,-5.7188,-5.7188,-5.7188,-5.7188,-4.2071,-4.3625,-4.5293,-4.698,-4.8647,-4.9898,0.0,0.0,0.0,0.0,0.0,0.0,0.0,0.0,0.0,0.0,-4.9898,0.0,0.0,0.0,0.0,-5.1812,-5.1471,-5.204,0.0,-5.4693,-5.5602,-5.727,-5.8938,-5.9885,-5.9885,-5.9885,-5.9885,-5.9885,-5.9885,-5.9885,-5.9885,-5.9885,-5.9885,-5.9885,-5.9885,-5.9801,-5.9594,-5.9594,-5.947,-5.9307,-5.9307,-5.9307,-5.9307,-5.9307,-5.9307,-5.9307,-5.9307,-5.9159,-5.893,-5.893,-5.8791,-5.8586,-5.8332,-5.8157,-5.7905,-5.769,-5.7594,-5.7546,-5.7289,-5.7188,-5.7188,-5.7188,-5.7188,-5.7188,-5.7188,-5.7188,-5.7188,-5.7188,-5.7188,-5.7188,-5.7188,-5.7188,-5.7188,-5.7188,-5.7188,-5.7188,-5.7188,-5.7188,-5.7188,-5.7188,-5.7188,-5.7188,-5.7188,-5.7188,-5.7188,-5.7188,-5.7188,-5.7188,-5.7188,-5.7188,-5.7188,-5.7188,-5.7188,-5.7188,-5.7188,-5.7188,-5.7188,-5.7188,-5.7188,-5.7188,-5.7188,-5.7188,-5.7188,-5.7188,-5.7188,-5.7188,-4.1939,-4.3531,-4.5141,-4.6942,-4.8572,-4.9746,0.0,0.0,0.0,0.0,0.0,0.0,0.0,0.0,0.0,0.0,0.0,0.0,-4.9898,-5.077,-5.1338,-5.1225,-5.1319,0.0,-5.3556,-5.4314,-5.547,-5.7251,-5.8773,-5.9668,-5.9801,-5.9715,-5.9734,-5.9801,-5.9801,-5.9853,-5.9885,-5.9885,-5.9885,-5.9885,-5.9885,-5.9628,-5.9215,-5.9215,-5.8969,-5.8586,-5.8586,0.0,-5.8586,-5.8586,-5.8586,-5.8586,-5.8586,-5.8545,-5.8503,-5.8503,-5.8461,-5.8332,-5.7951,-5.7546,-5.7188,-5.7188,-5.7188,-5.7188,-5.7188,-5.7188,-5.7188,-5.7188,-5.7188,-5.7188,-5.7188,-5.7188,-5.7188,-5.7188,-5.7188,-5.7188,-5.7188,-5.7188,-5.7188,-5.7188,-5.7188,-5.7188,-5.7188,-5.7188,-5.7188,-5.7188,-5.7188,-5.7188,-5.7188,-5.7188,-5.7188,-5.7188,-5.7188,-5.7188,-5.7188,-5.7188,-5.7188,-5.7188,-5.7188,-5.7188,-5.7188,-5.7188,-5.7188,-5.7188,-5.7188,-5.7188,-5.7188,-5.7188,-5.7188,-5.7188,-5.7188,-5.7188,-4.1939,-4.3133,-4.444,-4.6809,-4.8136,-4.9045,0.0,0.0,0.0,0.0,0.0,0.0,0.0,0.0,0.0,0.0,0.0,-4.9898,0.0,0.0,-5.1964,-5.1282,0.0,-5.2627,-5.3613,-5.3821,-5.4863,-5.7213,-5.794,-5.8574,-5.9251,-5.8988,-5.8949,-5.9289,-5.9289,-5.9505,-5.9885,-5.9885,-5.9885,-5.9885,-5.9885,-5.9628,-5.9215,-5.9215,-5.8969,-5.8586,0.0,-5.8586,-5.8586,-5.8586,-5.8586,-5.8586,-5.8586,-5.8375,-5.7996,-5.7996,-5.7784,-5.7419,-5.732,-5.7239,-5.7188,-5.7188,-5.7188,-5.7188,-5.7188,-5.7188,-5.7188,-5.7188,-5.7188,-5.7188,-5.7188,-5.7188,-5.7188,-5.7188,-5.7188,-5.7188,-5.7188,-5.7188,-5.7188,-5.7188,-5.7188,-5.7188,-5.7188,-5.7188,-5.7188,-5.7188,-5.7188,-5.7188,-5.7188,-5.7188,-5.7188,-5.7188,-5.7188,-5.7188,-5.7188,-5.7188,-5.7188,-5.7188,-5.7188,-5.7188,-5.7188,-5.7188,-5.7188,-5.7188,-5.7188,-5.7188,-5.7188,-5.7188,-5.7188,-5.7188,-5.7188,-5.7188,-4.1939,-4.2697,-4.372,-4.6657,-4.806,-4.8894,-4.9709,0.0,0.0,0.0,0.0,0.0,0.0,0.0,-4.9898,-4.9898,0.0,-5.005,-5.0542,-5.1642,-5.2115,0.0,0.0,-5.24,-5.2362,-5.3177,-5.4243,-5.5616,-5.7127,-5.8053,-5.8219,-5.8468,-5.8772,-5.9215,-5.9215,-5.9289,-5.9505,-5.9505,-5.9505,-5.9505,-5.9505,-5.9178,-5.8484,-5.8484,-5.827,-5.784,0.0,-5.784,-5.784,-5.784,-5.784,-5.784,-5.784,-5.7719,-5.7498,-5.7498,-5.737,-5.7188,-5.7188,-5.7188,-5.7188,-5.7188,-5.7188,-5.7188,-5.7188,-5.7188,-5.7188,-5.7188,-5.7188,-5.7188,-5.7188,-5.7188,-5.7188,-5.7188,-5.7188,-5.7188,-5.7188,-5.7188,-5.7188,-5.7188,-5.7188,-5.7188,-5.7188,-5.7188,-5.7188,-5.7188,-5.7188,-5.7188,-5.7188,-5.7188,-5.7188,-5.7188,-5.7188,-5.7188,-5.7188,-5.7188,-5.7188,-5.7188,-5.7188,-5.7188,-5.7188,-5.7188,-5.7188,-5.7188,-5.7188,-5.7188,-5.7188,-5.7188,-5.7188,-5.7188,-5.7188,-5.7188,-4.2014,-4.2697,-4.3701,-4.6657,0.0,-4.8647,-4.9652,0.0,0.0,0.0,0.0,0.0,0.0,0.0,0.0,-4.9898,-4.9898,-5.0201,-5.1092,-5.1907,-5.2115,-5.13,-5.1926,-5.2096,-5.1282,-5.2456,-5.3553,-5.424,-5.6051,-5.715,-5.7241,-5.7703,-5.828,-5.8872,-5.8891,-5.8969,-5.9046,-5.9046,-5.9046,-5.9046,-5.9046,-5.8632,-5.7905,-5.7905,-5.7642,-5.7188,-5.7188,-5.7188,-5.7188,-5.7188,-5.7188,-5.7188,-5.7188,-5.7188,-5.7188,-5.7188,-5.7188,-5.7188,-5.7188,-5.7188,-5.7188,-5.7188,-5.7188,-5.7188,-5.7188,-5.7188,-5.7188,-5.7188,-5.7188,-5.7188,-5.7188,-5.7188,-5.7188,-5.7188,-5.7188,-5.7188,-5.7188,-5.7188,-5.7188,-5.7188,-5.7188,-5.7188,-5.7188,-5.7188,-5.7188,-5.7188,-5.7188,-5.7188,-5.7188,-5.7188,-5.7188,-5.7188,-5.7188,-5.7188,-5.7188,-5.7188,-5.7188,-5.7188,-5.7188,-5.7188,-5.7188,-5.7188,-5.7188,-5.7188,-5.7188,-5.7188,-5.7188,-5.7188,-5.7188,-5.7188,-5.7188,-5.7188,-4.2166,-4.3549,-4.5141,-4.6942,-4.7453,0.0,-4.9519,-4.9898,0.0,0.0,0.0,0.0,0.0,-4.9898,-4.9898,-4.9898,-4.9898,-5.0201,-5.1092,0.0,-5.2115,-5.13,-5.1926,-5.2096,-5.1282,-5.1662,-5.2569,-5.4183,-5.4457,-5.522,-5.6646,-5.6398,-5.6715,-5.7978,-5.7978,-5.8201,-5.8628,-5.8628,-5.8628,-5.8628,-5.8628,-5.8375,-5.7905,-5.7905,-5.7642,-5.7188,-5.7188,-5.7188,-5.7188,-5.7188,-5.7188,-5.7188,-5.7188,-5.7188,-5.7188,-5.7188,-5.7188,-5.7188,-5.7188,-5.7188,-5.7188,-5.7188,-5.7188,-5.7188,-5.7188,-5.7188,-5.7188,-5.7188,-5.7188,-5.7188,-5.7188,-5.7188,-5.7188,-5.7188,-5.7188,-5.7188,-5.7188,-5.7188,-5.7188,-5.7188,-5.7188,-5.7188,-5.7188,-5.7188,-5.7188,-5.7188,-5.7188,-5.7188,-5.7188,-5.7188,-5.7188,-5.7188,-5.7188,-5.7188,-5.7188,-5.7188,-5.7188,-5.7188,-5.7188,-5.7188,-5.7188,-5.7188,-5.7188,-5.7188,-5.7188,-5.7188,-5.7188,-5.7188,-5.7188,-5.7188,-5.7188,-5.7188,-4.2185,-4.3625,-4.5293,-4.698,0.0,0.0,0.0,0.0,0.0,0.0,0.0,0.0,0.0,0.0,-4.9898,-4.9898,-4.9898,-5.0298,-5.1435,-5.2046,-5.2181,-5.1631,-5.2076,-5.1783,-5.0248,-5.1112,-5.1862,-5.1992,-5.3429,-5.447,-5.4838,-5.513,-5.5873,-5.7116,-5.7152,-5.7481,-5.8157,-5.8157,-5.8023,-5.7719,-5.8041,-5.7905,-5.7449,-5.7449,-5.737,-5.7188,-5.7188,-5.7188,-5.7188,-5.7188,-5.7188,-5.7188,-5.7188,-5.7188,-5.7188,-5.7188,-5.7188,-5.7188,-5.7188,-5.7188,-5.7188,-5.7188,-5.7188,-5.7188,-5.7188,-5.7188,-5.7188,-5.7188,-5.7188,-5.7188,-5.7188,-5.7188,-5.7188,-5.7188,-5.7188,-5.7188,-5.7188,-5.7188,-5.7188,-5.7188,-5.7188,-5.7188,-5.7188,-5.7188,-5.7188,-5.7188,-5.7188,-5.7188,-5.7188,-5.7188,-5.7188,-5.7188,-5.7188,-5.7188,-5.7188,-5.7188,-5.7188,-5.7188,-5.7188,-5.7188,-5.7188,-5.7188,-5.7188,-5.7188,-5.7188,-5.7188,-5.7188,-5.7188,-5.7188,-5.7188,-5.7188,-5.7188,-4.2602,-4.4213,-4.5956,0.0,0.0,0.0,0.0,0.0,0.0,0.0,0.0,0.0,0.0,0.0,0.0,0.0,-4.9797,-5.0202,-5.1625,-5.2046,-5.222,-5.2193,-5.2215,-5.1579,-4.9953,-5.0572,-5.0897,-5.06,-5.2328,-5.3462,-5.3675,-5.4218,-5.4996,-5.6099,-5.6118,-5.6392,-5.6959,-5.6959,-5.6897,-5.6808,-5.7134,-5.7261,-5.7188,-5.7188,-5.7188,-5.7188,-5.7188,-5.7188,-5.7188,-5.7188,-5.7188,-5.7188,-5.7188,-5.7188,-5.7188,-5.7188,-5.7188,-5.7188,-5.7188,-5.7188,-5.7188,-5.7188,-5.7188,-5.7188,-5.7188,-5.7188,-5.7188,-5.7188,-5.7188,-5.7188,-5.7188,-5.7188,-5.7188,-5.7188,-5.7188,-5.7188,-5.7188,-5.7188,-5.7188,-5.7188,-5.7188,-5.7188,-5.7188,-5.7188,-5.7188,-5.7188,-5.7188,-5.7188,-5.7188,-5.7188,-5.7188,-5.7188,-5.7188,-5.7188,-5.7188,-5.7188,-5.7188,-5.7188,-5.7188,-5.7188,-5.7188,-5.7188,-5.7188,-5.7188,-5.7188,-5.7188,-5.7188,-5.7188,-5.7188,-5.7188,-5.7188,-5.7188,-4.3474,-4.5501,0.0,0.0,0.0,0.0,0.0,0.0,0.0,0.0,0.0,-4.9898,-4.9898,-4.9898,0.0,-4.9898,-4.9625,-4.9978,-5.1541,-5.1837,-5.2193,-5.2967,-5.2381,-5.1555,-5.0673,-4.9861,-4.9756,-5.0505,-5.1042,-5.1991,-5.3585,-5.3675,-5.4055,-5.487,-5.4907,-5.4907,-5.4907,-5.4907,-5.5269,-5.5975,-5.5975,-5.641,-5.7188,-5.7188,-5.7188,-5.7188,-5.7188,-5.7188,-5.7188,-5.7188,-5.7188,-5.7188,-5.7188,-5.7188,-5.7188,-5.7188,-5.7188,-5.7188,-5.7188,-5.7188,-5.7188,-5.7188,-5.7188,-5.7188,-5.7188,-5.7188,-5.7188,-5.7188,-5.7188,-5.7188,-5.7188,-5.7188,-5.7188,-5.7188,-5.7188,-5.7188,-5.7188,-5.7188,-5.7188,-5.7188,-5.7188,-5.7188,-5.7188,-5.7188,-5.7188,-5.7188,-5.7188,-5.7188,-5.7188,-5.7188,-5.7188,-5.7188,-5.7188,-5.7188,-5.7188,-5.7188,-5.7188,-5.7188,-5.7188,-5.7188,-5.7188,-5.7188,-5.7188,-5.7188,-5.7188,-5.7188,-5.7188,-5.7188,-5.7188,-5.7188,-5.7188,-5.7188,-4.3625,0.0,0.0,0.0,0.0,0.0,0.0,0.0,0.0,0.0,0.0,-4.9898,-4.9898,-4.9898,0.0,-4.9596,-4.9457,-4.9562,-5.0028,-5.0859,-5.1396,-5.136,-5.1881,-5.16,-4.9917,-5.0039,-4.9998,-4.9452,-5.0595,-5.1502,-5.1991,-5.2552,-5.3222,-5.4037,-5.4055,-5.4327,-5.4907,-5.4907,-5.5015,-5.5233,-5.5233,-5.5921,-5.7188,-5.7188,-5.7188,-5.7188,-5.7188,-5.7188,-5.7188,-5.7188,-5.7188,-5.7188,-5.7188,-5.7188,-5.7188,-5.7188,-5.7188,-5.7188,-5.7188,-5.7188,-5.7188,-5.7188,-5.7188,-5.7188,-5.7188,-5.7188,-5.7188,-5.7188,-5.7188,-5.7188,-5.7188,-5.7188,-5.7188,-5.7188,-5.7188,-5.7188,-5.7188,-5.7188,-5.7188,-5.7188,-5.7188,-5.7188,-5.7188,-5.7188,-5.7188,-5.7188,-5.7188,-5.7188,-5.7188,-5.7188,-5.7188,-5.7188,-5.7188,-5.7188,-5.7188,-5.7188,-5.7188,-5.7188,-5.7188,-5.7188,-5.7188,-5.7188,-5.7188,-5.7188,-5.7188,-5.7188,-5.7188,-5.7188,-5.7188,-5.7188,-5.7188,-5.7188,-4.4099,0.0,0.0,0.0,0.0,0.0,0.0,0.0,0.0,0.0,0.0,-4.9636,-4.948,-4.9588,0.0,-4.922,-4.9057,-4.9078,-4.9375,-5.0301,-5.1023,-5.1118,-5.1777,-5.1724,-5.0512,-5.0401,-5.0119,-4.942,-5.0271,-5.0959,-5.1267,-5.1756,-5.2389,-5.3204,-5.3222,-5.3458,-5.3947,-5.3947,-5.411,-5.4418,-5.4418,-5.5088,-5.6301,-5.6591,-5.6717,-5.6736,-5.7062,-5.7188,-5.7188,-5.7188,-5.7188,-5.7188,-5.7188,-5.7188,-5.7188,-5.7188,-5.7188,-5.7188,-5.7188,-5.7188,-5.7188,-5.7188,-5.7188,-5.7188,-5.7188,-5.7188,-5.7188,-5.7188,-5.7188,-5.7188,-5.7188,-5.7188,-5.7188,-5.7188,-5.7188,-5.7188,-5.7188,-5.7188,-5.7188,-5.7188,-5.7188,-5.7188,-5.7188,-5.7188,-5.7188,-5.7188,-5.7188,-5.7188,-5.7188,-5.7188,-5.7188,-5.7188,-5.7188,-5.7188,-5.7188,-5.7188,-5.7188,-5.7188,-5.7188,-5.7188,-5.7188,-5.7188,-5.7188,-5.7188,-5.7188,-5.7188,-5.7188,-5.7188,-5.7188,-5.7188,-5.7188,-5.7188,0.0,0.0,0.0,0.0,0.0,0.0,0.0,0.0,0.0,0.0,0.0,-4.922,-4.885,-4.9104,-4.922,-4.8816,-4.8495,-4.8506,-4.9184,-4.9991,-5.0835,-5.1623,-5.1789,-5.1844,-5.1844,-5.0842,-5.0162,-5.009,-5.0162,-5.0524,-5.1249,-5.1357,-5.1737,-5.248,-5.2498,-5.2498,-5.2498,-5.2498,-5.286,-5.3585,-5.3585,-5.3965,-5.4707,-5.5522,-5.5884,-5.5939,-5.6736,-5.708,-5.7098,-5.717,-5.7188,-5.7188,-5.7188,-5.7188,-5.7188,-5.7188,-5.7188,-5.7188,-5.7188,-5.7188,-5.7188,-5.7188,-5.7188,-5.7188,-5.7188,-5.7188,-5.7188,-5.7188,-5.7188,-5.7188,-5.7188,-5.7188,-5.7188,-5.7188,-5.7188,-5.7188,-5.7188,-5.7188,-5.7188,-5.7188,-5.7188,-5.7188,-5.7188,-5.7188,-5.7188,-5.7188,-5.7188,-5.7188,-5.7188,-5.7188,-5.7188,-5.7188,-5.7188,-5.7188,-5.7188,-5.7188,-5.7188,-5.7188,-5.7188,-5.7188,-5.7188,-5.7188,-5.7188,-5.7188,-5.7188,-5.7188,-5.7188,-5.7188,-5.7188,-5.7188,-5.7188,-5.7188,0.0,0.0,0.0,0.0,0.0,0.0,0.0,0.0,0.0,0.0,-4.8919,-4.8885,-4.8816,-4.8885,-4.8816,-4.8458,-4.8344,-4.8245,-4.8065,-4.875,-4.9567,-5.0391,-5.1046,-5.1445,-5.1445,-5.1211,-5.076,-5.0144,-5.0669,-5.1104,-5.1285,-5.19,-5.2317,-5.248,-5.2498,-5.2498,-5.2498,-5.2498,-5.2589,-5.2752,-5.2752,-5.2842,-5.3059,-5.449,-5.5142,-5.5178,-5.5921,-5.6247,-5.6301,-5.6935,-5.7188,-5.7188,-5.7188,-5.7188,-5.7188,-5.7188,-5.7188,-5.7188,-5.7188,-5.7188,-5.7188,-5.7188,-5.7188,-5.7188,-5.7188,-5.7188,-5.7188,-5.7188,-5.7188,-5.7188,-5.7188,-5.7188,-5.7188,-5.7188,-5.7188,-5.7188,-5.7188,-5.7188,-5.7188,-5.7188,-5.7188,-5.7188,-5.7188,-5.7188,-5.7188,-5.7188,-5.7188,-5.7188,-5.7188,-5.7188,-5.7188,-5.7188,-5.7188,-5.7188,-5.7188,-5.7188,-5.7188,-5.7188,-5.7188,-5.7188,-5.7188,-5.7188,-5.7188,-5.7188,-5.7188,-5.7188,-5.7188,-5.7188,-5.7188,-5.7188,-5.7188,-5.7188,0.0,0.0,0.0,0.0,0.0,0.0,0.0,0.0,0.0,0.0,-4.844,-4.8477,-4.8307,-4.844,-4.8458,-4.8072,-4.801,-4.7929,-4.7741,-4.8405,-4.9075,-4.9474,-5.0234,-5.0868,-5.1249,-5.1285,-5.1122,-5.0705,-5.1049,-5.1285,-5.1285,-5.1701,-5.21,-5.248,-5.2498,-5.2498,-5.2498,-5.2498,-5.2498,-5.2498,-5.2498,-5.2498,-5.2534,-5.3766,-5.4544,-5.4925,-5.5305,-5.5468,-5.5522,-5.6301,-5.6627,-5.6663,-5.7043,-5.7188,-5.7188,-5.7188,-5.7188,-5.7188,-5.7188,-5.7188,-5.7188,-5.7188,-5.7188,-5.7188,-5.7188,-5.7188,-5.7188,-5.7188,-5.7188,-5.7188,-5.7188,-5.7188,-5.7188,-5.7188,-5.7188,-5.7188,-5.7188,-5.7188,-5.7188,-5.7188,-5.7188,-5.7188,-5.7188,-5.7188,-5.7188,-5.7188,-5.7188,-5.7188,-5.7188,-5.7188,-5.7188,-5.7188,-5.7188,-5.7188,-5.7188,-5.7188,-5.7188,-5.7188,-5.7188,-5.7188,-5.7188,-5.7188,-5.7188,-5.7188,-5.7188,-5.7188,-5.7188,-5.7188,-5.7188,-5.7188,-5.7188,-5.7188,0.0,0.0,0.0,0.0,0.0,0.0,0.0,0.0,0.0,-4.7717,-4.797,-4.8072,-4.7741,-4.797,-4.809,-4.7741,-4.7717,-4.7717,-4.7717,-4.8279,-4.8749,-4.8894,-4.9492,-5.0198,-5.0995,-5.1212,-5.1285,-5.1285,-5.1411,-5.1502,-5.1502,-5.1502,-5.181,-5.248,-5.2498,-5.2498,-5.2498,-5.2498,-5.2498,-5.2498,-5.2498,-5.2498,-5.2516,-5.3186,-5.3856,-5.449,-5.4635,-5.4689,-5.4762,-5.5504,-5.5812,-5.5866,-5.6536,-5.688,-5.6989,-5.6989,-5.708,-5.7188,-5.7188,-5.7188,-5.7188,-5.7188,-5.7188,-5.7188,-5.7188,-5.7188,-5.7188,-5.7188,-5.7188,-5.7188,-5.7188,-5.7188,-5.7188,-5.7188,-5.7188,-5.7188,-5.7188,-5.7188,-5.7188,-5.7188,-5.7188,-5.7188,-5.7188,-5.7188,-5.7188,-5.7188,-5.7188,-5.7188,-5.7188,-5.7188,-5.7188,-5.7188,-5.7188,-5.7188,-5.7188,-5.7188,-5.7188,-5.7188,-5.7188,-5.7188,-5.7188,-5.7188,-5.7188,-5.7188,-5.7188,-5.7188,-5.7188,-5.7188,-5.7188,-5.7188,-5.7188,-5.7188,0.0,0.0,0.0,0.0,0.0,0.0,0.0,0.0,0.0,0.0,-4.7741,-4.7741,-4.7699,-4.7741,-4.7741,-4.7717,-4.7717,-4.7717,-4.7717,-4.7808,-4.8134,-4.884,-4.9003,-4.9383,-5.0162,-5.0886,-5.1285,-5.1285,-5.1937,-5.2335,-5.2335,-5.2335,-5.2389,-5.2498,-5.2498,-5.2498,-5.2498,-5.2498,-5.2498,-5.2498,-5.2498,-5.2498,-5.2498,-5.2607,-5.2715,-5.286,-5.3566,-5.3856,-5.3929,-5.4725,-5.5051,-5.507,-5.5178,-5.5595,-5.6156,-5.6156,-5.6591,-5.7188,-5.7188,-5.7188,-5.7188,-5.7188,-5.7188,-5.7188,-5.7188,-5.7188,-5.7188,-5.7188,-5.7188,-5.7188,-5.7188,-5.7188,-5.7188,-5.7188,-5.7188,-5.7188,-5.7188,-5.7188,-5.7188,-5.7188,-5.7188,-5.7188,-5.7188,-5.7188,-5.7188,-5.7188,-5.7188,-5.7188,-5.7188,-5.7188,-5.7188,-5.7188,-5.7188,-5.7188,-5.7188,-5.7188,-5.7188,-5.7188,-5.7188,-5.7188,-5.7188,-5.7188,-5.7188,-5.7188,-5.7188,-5.7188,-5.7188,-5.7188,-5.7188,-5.7188,-5.7188,-5.7188,0.0,0.0,0.0,0.0,0.0,0.0,0.0,0.0,0.0,-4.7717,-4.7717,-4.7717,-4.7717,-4.7717,-4.7717,-4.7717,-4.7717,-4.7717,-4.7717,-4.7717,-4.7844,-4.8206,-4.8242,-4.855,-4.9347,-4.9745,-5.0325,-5.1212,-5.1629,-5.2009,-5.248,-5.2498,-5.2498,-5.2498,-5.2498,-5.2498,-5.2498,-5.2498,-5.2498,-5.2498,-5.2498,-5.2498,-5.2498,-5.2498,-5.2498,-5.2516,-5.2878,-5.3023,-5.3096,-5.3892,-5.4237,-5.4273,-5.4725,-5.5106,-5.5377,-5.5377,-5.5613,-5.5921,-5.5921,-5.5921,-5.5975,-5.6391,-5.6518,-5.6609,-5.7062,-5.7188,-5.7188,-5.7188,-5.7188,-5.7188,-5.7188,-5.7188,-5.7188,-5.7188,-5.7188,-5.7188,-5.7188,-5.7188,-5.7188,-5.7188,-5.7188,-5.7188,-5.7188,-5.7188,-5.7188,-5.7188,-5.7188,-5.7188,-5.7188,-5.7188,-5.7188,-5.7188,-5.7188,-5.7188,-5.7188,-5.7188,-5.7188,-5.7188,-5.7188,-5.7188,-5.7188,-5.7188,-5.7188,-5.7188,-5.7188,-5.7188,-5.7188,-5.7188,-5.7188,-5.7188,-5.7188,-5.7188,0.0,0.0,0.0,0.0,0.0,0.0,0.0,0.0,-4.7717,0.0,-4.7717,-4.7717,-4.7717,-4.7717,-4.7717,-4.7717,-4.7717,-4.7717,-4.7717,-4.7717,-4.7717,-4.7717,-4.7717,-4.7953,-4.855,-4.8786,-4.942,-5.0597,-5.0868,-5.1339,-5.2154,-5.219,-5.2281,-5.248,-5.2498,-5.2498,-5.2498,-5.2498,-5.2498,-5.2498,-5.2498,-5.2498,-5.2498,-5.2498,-5.2498,-5.2498,-5.2498,-5.2498,-5.2552,-5.315,-5.3403,-5.3458,-5.4055,-5.4418,-5.4599,-5.4599,-5.4725,-5.4907,-5.4907,-5.4907,-5.4997,-5.554,-5.5721,-5.583,-5.6428,-5.6609,-5.6645,-5.6826,-5.6899,-5.6935,-5.7152,-5.7043,-5.6899,-5.6899,-5.6754,-5.6717,-5.7116,-5.7188,-5.7188,-5.7188,-5.7188,-5.7188,-5.7188,-5.7188,-5.7188,-5.7188,-5.7188,-5.7188,-5.7188,-5.7188,-5.7188,-5.7188,-5.7188,-5.7188,-5.7188,-5.7188,-5.7188,-5.7188,-5.7188,-5.7188,-5.7188,-5.7188,-5.7188,-5.7188,-5.7188,-5.7188,-5.7188,-5.7188,-5.7188,-5.7188,-5.7188,-5.7188,0.0,0.0,0.0,0.0,0.0,0.0,0.0,0.0,0.0,-4.7717,-4.7717,-4.7717,-4.7717,-4.7717,-4.7717,-4.7717,-4.7717,-4.7717,-4.7717,-4.7717,-4.7717,-4.7717,-4.7717,-4.7735,-4.7772,-4.846,-4.8949,-4.9039,-4.9727,-5.0488,-5.1303,-5.1357,-5.1701,-5.248,-5.2498,-5.2498,-5.2498,-5.2498,-5.2498,-5.2498,-5.2498,-5.2498,-5.2498,-5.2498,-5.2498,-5.2498,-5.2498,-5.2498,-5.2498,-5.2552,-5.2552,-5.257,-5.2607,-5.3096,-5.3766,-5.3766,-5.4255,-5.4907,-5.4907,-5.4907,-5.4907,-5.4943,-5.4961,-5.4979,-5.5015,-5.5033,-5.5178,-5.5866,-5.6047,-5.6228,-5.6989,-5.6627,-5.6047,-5.6047,-5.5522,-5.5432,-5.688,-5.7188,-5.7188,-5.7188,-5.7188,-5.7188,-5.7188,-5.7188,-5.7188,-5.7188,-5.7188,-5.7188,-5.7188,-5.7188,-5.7188,-5.7188,-5.7188,-5.7188,-5.7188,-5.7188,-5.7188,-5.7188,-5.7188,-5.7188,-5.7188,-5.7188,-5.7188,-5.7188,-5.7188,-5.7188,-5.7188,-5.7188,-5.7188,-5.7188,-5.7188,-5.7188,-4.4222,0.0,0.0,0.0,0.0,0.0,0.0,-4.7717,-4.7717,-4.7717,-4.7717,-4.7717,-4.7717,-4.7717,-4.7717,-4.7717,-4.7717,-4.7717,-4.7717,-4.7717,-4.7717,-4.7717,-4.7717,-4.7717,-4.7717,-4.7971,-4.8351,-4.8876,-4.9184,-4.9673,-5.047,-5.0524,-5.0886,-5.1701,-5.1719,-5.1973,-5.248,-5.2498,-5.2498,-5.2498,-5.2498,-5.2498,-5.2498,-5.2498,-5.2498,-5.2498,-5.2498,-5.2498,-5.2498,-5.2498,-5.2498,-5.2498,-5.2498,-5.2679,-5.2933,-5.2933,-5.3114,-5.3367,-5.3367,-5.3367,-5.344,-5.3965,-5.4128,-5.4237,-5.4744,-5.4907,-5.4961,-5.5214,-5.5287,-5.5359,-5.5649,-5.5504,-5.5287,-5.5287,-5.5088,-5.5003,-5.5496,-5.5672,-5.5866,-5.6337,-5.6378,-5.649,-5.6997,-5.7003,-5.7003,-5.7054,-5.7087,-5.7087,-5.7206,-5.7188,-5.7188,-5.7188,-5.7188,-5.7188,-5.7188,-5.7188,-5.7188,-5.7188,-5.7188,-5.7188,-5.7188,-5.7188,-5.7188,-5.7188,-5.7188,-5.7188,-5.7188,-5.7188,-5.7188,-5.7188,-5.7188,-5.7188,-4.3878,-4.4476,0.0,0.0,0.0,0.0,0.0,0.0,-4.7717,-4.7717,-4.7717,-4.7717,-4.7717,-4.7717,-4.7717,-4.7717,-4.7717,-4.7717,-4.7717,-4.7717,-4.7717,-4.7717,-4.7717,-4.7717,-4.7717,-4.7717,-4.7935,-4.8478,-4.8514,-4.8858,-4.9655,-4.9691,-5.0071,-5.085,-5.1158,-5.1556,-5.2082,-5.2371,-5.2498,-5.2498,-5.2498,-5.2498,-5.2498,-5.2498,-5.2498,-5.2498,-5.2498,-5.2498,-5.2498,-5.2498,-5.2498,-5.2498,-5.2498,-5.2498,-5.2498,-5.2498,-5.2498,-5.2498,-5.2498,-5.2498,-5.2589,-5.3114,-5.3295,-5.3403,-5.3929,-5.4092,-5.4146,-5.4418,-5.4442,-5.4496,-5.4768,-5.4592,-5.4273,-5.4002,-5.3947,-5.3947,-5.3832,-5.4363,-5.4936,-5.5424,-5.5415,-5.5617,-5.641,-5.6451,-5.6541,-5.6863,-5.7003,-5.7054,-5.7087,-5.7188,-5.7188,-5.7188,-5.7188,-5.7188,-5.7188,-5.7188,-5.7188,-5.7188,-5.7188,-5.7188,-5.7188,-5.7188,-5.7188,-5.7188,-5.7188,-5.7188,-5.7188,-5.7188,-5.7188,-5.7188,-5.6917,-5.6663,0.0,0.0,0.0,0.0,0.0,0.0,-4.7482,0.0,-4.7681,-4.7717,-4.7717,-4.7717,-4.7717,-4.7717,-4.7717,-4.7717,-4.7717,-4.7717,-4.7717,-4.7717,-4.7717,-4.7717,-4.7717,-4.7717,-4.7717,-4.7717,-4.7717,-4.7717,-4.7717,-4.8043,-4.884,-4.8894,-4.9275,-5.0035,-5.0832,-5.1267,-5.1285,-5.2063,-5.248,-5.2498,-5.2498,-5.2498,-5.2498,-5.2498,-5.2498,-5.2498,-5.2498,-5.2498,-5.2498,-5.2498,-5.2498,-5.2498,-5.2498,-5.2498,-5.2498,-5.2498,-5.2498,-5.2498,-5.2498,-5.2498,-5.2498,-5.2498,-5.2498,-5.2498,-5.2498,-5.2498,-5.2661,-5.344,-5.3562,-5.3628,-5.4404,-5.3945,-5.3055,-5.2282,-5.2102,-5.2102,-5.2084,-5.3405,-5.4571,-5.4489,-5.4457,-5.4691,-5.5428,-5.559,-5.5859,-5.665,-5.6881,-5.7003,-5.7003,-5.7087,-5.7188,-5.7188,-5.7206,-5.7188,-5.7188,-5.7188,-5.7188,-5.7188,-5.7188,-5.7188,-5.7188,-5.7188,-5.7188,-5.7188,-5.7188,-5.7188,-5.7188,-5.7188,-5.7188,-5.7152,-5.6337,-5.5577,-4.3154,0.0,0.0,0.0,0.0,0.0,0.0,0.0,-4.7011,-4.7591,-4.7717,-4.7717,-4.7717,-4.7717,-4.7717,-4.7717,-4.7717,-4.7717,-4.7717,-4.7717,-4.7717,-4.7717,-4.7717,-4.7717,-4.7717,-4.7717,-4.7717,0.0,-4.7717,-4.7808,-4.8025,-4.8586,-4.9003,-4.922,-4.9999,-5.0705,-5.1285,-5.1502,-5.1919,-5.2498,-5.2498,-5.2498,-5.2498,-5.2498,-5.2498,-5.2498,-5.2498,-5.2498,-5.2498,-5.2498,-5.2498,-5.2498,-5.2498,-5.2498,-5.2498,-5.2498,-5.2498,-5.2498,-5.2498,-5.2498,-5.2498,-5.2498,-5.2498,-5.2498,-5.2405,-5.2358,-5.2394,-5.2516,-5.2522,-5.2528,-5.2744,-5.2636,-5.2372,-5.2138,-5.2102,-5.2054,-5.1956,-5.2346,-5.288,-5.3504,-5.358,-5.3731,-5.452,-5.4989,-5.5436,-5.5757,-5.633,-5.676,-5.6847,-5.7003,-5.7054,-5.7054,-5.7138,-5.7188,-5.7188,-5.7188,-5.7188,-5.7188,-5.7188,-5.7188,-5.7188,-5.7188,-5.7188,-5.7188,-5.7188,-5.7188,-5.7188,-5.7188,-5.6899,-5.6301,-5.5558,-5.5088,-4.2882,-4.3226,-4.3679,-4.4023,0.0,0.0,-4.5816,-4.6269,-4.6631,0.0,-4.7482,-4.7717,-4.7717,-4.7717,-4.7717,-4.7717,-4.7717,-4.7717,-4.7717,-4.7717,-4.7717,-4.7717,-4.7717,-4.7717,-4.7717,-4.7717,-4.7717,-4.7717,-4.7717,-4.7717,-4.7717,-4.8152,-4.8405,-4.8405,-4.9184,-4.9818,-5.0289,-5.0633,-5.1194,-5.1991,-5.1991,-5.2172,-5.2498,-5.2498,-5.2498,-5.2498,-5.2498,-5.2498,-5.2498,-5.2498,-5.2498,-5.2498,-5.2498,-5.2498,-5.2498,-5.2498,-5.2498,-5.2498,-5.2498,-5.2498,-5.2498,-5.2452,-5.2405,-5.2405,-5.2264,-5.2216,-5.2198,-5.2102,-5.2054,-5.1987,-5.1956,-5.1938,-5.1938,-5.1938,-5.1938,-5.1889,-5.184,-5.1808,-5.2001,-5.2548,-5.2588,-5.2755,-5.3611,-5.4008,-5.4509,-5.5205,-5.5741,-5.6277,-5.6653,-5.6847,-5.6899,-5.6899,-5.7003,-5.7054,-5.7087,-5.7105,-5.7138,-5.7206,-5.7188,-5.7188,-5.7188,-5.7188,-5.7043,-5.6699,-5.6699,-5.6554,-5.6247,-5.6554,-5.612,-5.5033,-5.4599,-5.4218,-4.2882,-4.29,-4.3025,-4.3788,-4.393,0.0,-4.4983,-4.5725,-4.6305,0.0,-4.7083,-4.7609,-4.7681,-4.7717,-4.7717,-4.7717,-4.7717,-4.7717,-4.7717,-4.7717,-4.7717,-4.7717,-4.7717,-4.7717,-4.7717,-4.7717,-4.7717,-4.7717,-4.7717,-4.7717,-4.7717,-4.7717,-4.7717,-4.7717,-4.8405,-4.8822,-4.8912,-4.9601,-5.0361,-5.1158,-5.1249,-5.1665,-5.2371,-5.2462,-5.2498,-5.2498,-5.2498,-5.2498,-5.2498,-5.2498,-5.2498,-5.2498,-5.2498,-5.2498,-5.2498,-5.2452,-5.2452,-5.2452,-5.2452,-5.2452,-5.2452,-5.2311,-5.2264,-5.2264,-5.2102,-5.2102,-5.2084,-5.2054,-5.1956,-5.1858,-5.174,-5.169,-5.169,-5.169,-5.169,-5.169,-5.169,-5.169,-5.169,-5.169,-5.169,-5.1922,-5.2618,-5.2814,-5.335,-5.4741,-5.5115,-5.5561,-5.6367,-5.6563,-5.6704,-5.6794,-5.6794,-5.6847,-5.7003,-5.7003,-5.7054,-5.7156,-5.7138,-5.7138,-5.7206,-5.7116,-5.6736,-5.6011,-5.5921,-5.5504,-5.4713,-5.5414,-5.5033,-5.3693,-5.3603,-5.3186,-4.2765,-4.2727,-4.2724,-4.2982,-4.2961,0.0,-4.4029,-4.4375,-4.4885,0.0,-4.6631,-4.6939,-4.7591,-4.7717,-4.7717,-4.7717,-4.7717,-4.7717,-4.7717,-4.7717,-4.7717,-4.7717,-4.7717,-4.7717,-4.7717,-4.7717,-4.7717,-4.7717,-4.7717,-4.7717,-4.7717,-4.7717,-4.7717,-4.7717,-4.7862,-4.8261,-4.8912,-4.9075,-4.9546,-5.0325,-5.0977,-5.1375,-5.1556,-5.219,-5.2498,-5.2498,-5.2498,-5.2498,-5.2498,-5.2405,-5.2405,-5.2498,-5.2358,-5.2358,-5.2311,-5.2198,-5.2198,-5.2198,-5.2198,-5.2198,-5.2198,-5.215,-5.215,-5.2102,-5.1956,-5.1956,-5.1907,-5.179,-5.174,-5.174,-5.169,-5.169,-5.169,-5.169,-5.169,-5.169,-5.169,-5.169,-5.169,-5.169,-5.169,-5.1744,-5.1904,-5.2457,-5.2975,-5.3278,-5.3849,-5.458,-5.5384,-5.558,-5.5936,-5.6582,-5.6742,-5.6847,-5.7003,-5.6899,-5.6899,-5.7054,-5.6951,-5.6951,-5.7036,-5.6422,-5.6057,-5.5993,-5.5414,-5.4628,-5.3621,-5.3978,-5.4001,-5.3675,-5.3041,-5.2643,-4.2688,-4.2649,-4.2609,-4.2688,-4.2649,0.0,0.0,-4.3646,-4.4317,-4.5508,-4.6109,-4.6657,-4.7452,-4.7615,-4.7615,-4.7699,-4.7717,-4.7717,-4.7717,-4.7717,-4.7717,-4.7717,-4.7717,-4.7717,-4.7717,-4.7717,-4.7717,-4.7717,-4.7717,-4.7717,-4.7717,-4.7717,-4.7657,-4.7615,-4.7675,-4.7856,-4.8211,-4.8272,-4.867,-4.9404,-4.9864,-5.048,-5.1194,-5.161,-5.2025,-5.2405,-5.234,-5.234,-5.2405,-5.2264,-5.2311,-5.2405,-5.2246,-5.2198,-5.2198,-5.215,-5.2102,-5.2102,-5.2102,-5.2102,-5.2102,-5.2005,-5.2005,-5.1956,-5.1858,-5.1808,-5.1808,-5.169,-5.169,-5.169,-5.169,-5.169,-5.169,-5.169,-5.169,-5.169,-5.169,-5.169,-5.169,-5.169,-5.169,-5.169,-5.169,-5.2029,-5.2422,-5.2814,-5.3207,-5.3724,-5.4509,-5.4669,-5.4865,-5.5258,-5.5705,-5.6044,-5.6201,-5.6526,-5.6742,-5.6899,-5.6847,-5.6847,-5.6899,-5.6124,-5.5382,-5.4657,-5.3899,-5.3255,-5.281,-5.2954,-5.3002,-5.3002,-5.2651,-5.2498,-4.2803,-4.2677,-4.253,-4.257,-4.257,-4.257,0.0,0.0,0.0,-4.4839,-4.5696,-4.6513,-4.7367,-4.7511,0.0,-4.7458,0.0,0.0,0.0,-4.7609,0.0,-4.7717,-4.7717,-4.7717,-4.7717,-4.7717,-4.7717,-4.7717,-4.7717,-4.7717,-4.7717,-4.7717,-4.7657,-4.7554,-4.7615,-4.7615,-4.7511,-4.7615,-4.794,-4.8424,-4.8735,-4.9477,-5.0615,-5.0749,-5.1272,-5.2029,-5.1916,-5.2006,-5.2264,-5.2102,-5.2102,-5.2216,-5.2102,-5.2054,-5.2054,-5.2036,-5.2036,-5.2036,-5.2036,-5.2036,-5.2005,-5.1907,-5.1858,-5.1858,-5.174,-5.169,-5.169,-5.169,-5.169,-5.169,-5.169,-5.169,-5.169,-5.169,-5.169,-5.169,-5.169,-5.169,-5.169,-5.169,-5.169,-5.169,-5.169,-5.169,-5.1904,-5.2547,-5.2654,-5.2921,-5.3706,-5.3796,-5.3849,-5.401,-5.4598,-5.5026,-5.5185,-5.5919,-5.6367,-5.6508,-5.6652,-5.6688,-5.6526,-5.5662,-5.4493,-5.3041,-5.2426,-5.2132,-5.218,-5.2293,-5.2358,-5.2358,-5.2452,-5.2498,-4.3447,-4.2928,-4.2369,-4.2486,-4.2427,-4.2387,-4.2486,0.0,-4.3888,-4.4821,0.0,-4.6464,-4.7324,0.0,0.0,-4.6716,-4.7246,-4.7464,-4.6739,-4.7265,-4.7717,-4.7717,-4.7717,-4.7717,-4.7717,-4.7717,-4.7717,-4.7717,-4.7717,-4.7717,-4.7717,-4.7717,-4.7699,-4.7657,-4.7572,-4.7511,-4.7511,-4.7511,-4.7504,-4.7463,-4.8315,-4.8748,-4.8794,-4.9513,-5.0286,-5.1041,-5.1023,-5.1437,-5.2102,-5.1956,-5.1907,-5.1956,-5.1907,-5.1907,-5.1907,-5.179,-5.174,-5.174,-5.174,-5.174,-5.174,-5.174,-5.174,-5.169,-5.169,-5.169,-5.169,-5.169,-5.169,-5.169,-5.169,-5.169,-5.169,-5.169,-5.169,-5.169,-5.169,-5.169,-5.169,-5.169,-5.169,-5.169,-5.169,-5.169,-5.1726,-5.1815,-5.1833,-5.2118,-5.2903,-5.301,-5.3278,-5.3956,-5.4099,-5.4223,-5.4414,-5.5008,-5.5402,-5.5543,-5.6116,-5.6188,-5.5561,-5.4281,-5.3095,-5.2068,-5.2204,-5.2114,-5.1764,-5.2257,-5.2498,-5.2498,-5.2498,-5.2498,-4.4168,-4.3918,-4.3643,-4.3703,-4.3703,-4.3643,-4.3703,-4.4038,-4.4527,-4.529,0.0,0.0,0.0,0.0,0.0,0.0,-4.7337,-4.7488,-4.7145,0.0,-4.7511,-4.7657,-4.7717,0.0,-4.7717,-4.7717,-4.7717,-4.7717,-4.7717,-4.7675,-4.7615,-4.7657,-4.7615,-4.745,-4.7511,-4.745,-4.7363,-4.7363,-4.7338,-4.7267,-4.7661,-4.8075,-4.8452,-4.8757,-4.9331,-5.0121,-5.0492,-5.0886,-5.1323,-5.1661,-5.1808,-5.1907,-5.1808,-5.179,-5.1808,-5.169,-5.169,-5.169,-5.169,-5.169,-5.169,-5.169,-5.169,-5.169,-5.169,-5.169,-5.169,-5.169,-5.169,-5.169,-5.169,-5.169,-5.169,-5.169,-5.169,-5.169,-5.169,-5.169,-5.169,-5.169,-5.169,-5.169,-5.169,-5.169,-5.169,-5.169,-5.169,-5.1815,-5.2154,-5.219,-5.2315,-5.2636,-5.3082,-5.3419,-5.3488,-5.4133,-5.4527,-5.4562,-5.483,-5.467,-5.3989,-5.3379,-5.2663,-5.1826,-5.1889,-5.192,-5.1879,-5.2126,-5.2304,-5.2498,-5.2498,-5.2498,-4.4946,-4.4785,-4.4624,-4.4624,-4.4624,-4.4624,-4.4624,-4.4846,-4.5193,-4.5695,-4.6069,0.0,0.0,0.0,-4.7248,-4.7137,0.0,-4.7378,-4.718,-4.7219,-4.7363,-4.7572,-4.7615,-4.7657,0.0,-4.7657,-4.7657,-4.7657,-4.7657,-4.7615,-4.745,-4.7554,-4.7572,-4.7363,-4.7381,-4.7381,-4.7302,-4.7276,-4.7249,-4.7151,-4.7249,-4.7555,-4.7992,-4.7957,-4.8386,-4.9173,-4.9668,-5.0151,-5.0677,-5.1169,-5.1544,-5.1858,-5.174,-5.169,-5.169,-5.169,-5.169,-5.169,-5.169,-5.169,-5.169,-5.169,-5.169,-5.169,-5.169,-5.169,-5.169,-5.169,-5.169,-5.169,-5.169,-5.169,-5.169,-5.169,-5.169,-5.169,-5.169,-5.169,-5.169,-5.169,-5.169,-5.169,-5.169,-5.169,-5.169,-5.169,-5.169,-5.169,-5.169,-5.169,-5.169,-5.169,-5.2208,-5.2547,-5.2547,-5.326,-5.3796,-5.401,-5.3831,-5.3457,-5.2903,-5.2671,-5.2279,-5.1708,-5.1758,-5.1804,-5.1897,-5.2084,-5.2252,-5.2495,-5.247,-5.2498,-4.5766,-4.5195,-4.4624,-4.4624,-4.4624,-4.4624,-4.4624,-4.5213,-4.5766,-4.5802,-4.6409,-4.7007,-4.7178,-4.7196,-4.699,-4.6367,-4.6834,0.0,0.0,-4.6852,-4.7302,-4.7302,-4.7425,-4.7511,-4.7511,-4.7615,-4.7657,-4.7511,-4.7615,-4.7554,-4.7302,-4.7407,-4.7511,-4.7511,-4.7312,-4.7267,-4.7302,-4.7223,-4.7133,-4.6998,-4.7133,-4.7151,-4.7015,-4.7015,-4.7461,-4.8258,-4.8247,-4.9103,-5.0513,-5.053,-5.0994,-5.169,-5.169,-5.169,-5.169,-5.169,-5.169,-5.169,-5.169,-5.169,-5.169,-5.169,-5.169,-5.169,-5.169,-5.169,-5.169,-5.169,-5.169,-5.169,-5.169,-5.169,-5.169,-5.169,-5.169,-5.169,-5.169,-5.169,-5.169,-5.169,-5.169,-5.169,-5.169,-5.169,-5.169,-5.169,-5.169,-5.169,-5.169,-5.169,-5.169,-5.169,-5.1708,-5.1726,-5.1726,-5.2457,-5.3242,-5.3974,-5.3332,-5.2903,-5.2886,-5.2136,-5.1726,-5.169,-5.1808,-5.1853,-5.1697,-5.2215,-5.2474,-5.2522,-5.2495,-5.2498,-4.6587,-4.6391,-4.6195,-4.6195,-4.6195,-4.6195,-4.6195,-4.6391,-4.6587,-4.6587,-4.6801,-4.698,-4.7043,-4.7133,-4.7151,-4.6882,-4.7044,-4.7133,0.0,-4.6999,-4.7116,-4.7116,-4.7276,-4.7363,-4.7363,-4.7407,-4.7407,-4.7363,-4.7407,-4.7381,-4.7267,-4.732,-4.7338,-4.7312,-4.7241,-4.7223,-4.7205,-4.7133,-4.7043,-4.6998,-4.7043,-4.7043,-4.6998,-4.6998,-4.714,-4.7426,-4.7943,-4.8478,-4.9014,-4.9513,-5.0191,-5.0905,-5.0905,-5.1226,-5.169,-5.169,-5.169,-5.169,-5.169,-5.169,-5.169,-5.169,-5.169,-5.169,-5.169,-5.169,-5.169,-5.169,-5.169,-5.169,-5.169,-5.169,-5.169,-5.169,-5.169,-5.169,-5.169,-5.169,-5.169,-5.169,-5.169,-5.169,-5.169,-5.169,-5.169,-5.169,-5.169,-5.169,-5.169,-5.169,-5.169,-5.169,-5.169,-5.169,-5.169,-5.194,-5.2208,-5.2457,-5.2225,-5.2101,-5.2101,-5.1833,-5.169,-5.169,-5.174,-5.1754,-5.1697,-5.1902,-5.1969,-5.1976,-5.1952,-5.2054,-4.6998,-4.6998,-4.6998,-4.6998,-4.6998,-4.6998,-4.6998,-4.6998,-4.6998,-4.6998,-4.6998,-4.6998,-4.6998,-4.7088,-4.7133,-4.7133,-4.7133,-4.7133,0.0,-4.7043,-4.6998,-4.6998,-4.716,-4.7276,-4.7276,-4.7276,-4.7276,-4.7294,-4.7276,-4.7232,-4.7133,-4.7205,-4.7249,-4.7196,-4.7133,-4.7133,-4.7196,-4.7088,-4.6998,-4.6998,-4.6998,-4.6998,-4.6998,-4.6998,-4.6998,-4.7015,-4.7533,-4.7925,-4.8211,-4.871,-4.9371,-5.0102,-5.0388,-5.0816,-5.1315,-5.1583,-5.169,-5.169,-5.169,-5.169,-5.169,-5.169,-5.169,-5.169,-5.169,-5.169,-5.1744,-5.2029,-5.1904,-5.1762,-5.2047,-5.1904,-5.169,-5.169,-5.169,-5.169,-5.169,-5.169,-5.169,-5.169,-5.169,-5.169,-5.169,-5.169,-5.169,-5.169,-5.169,-5.169,-5.169,-5.169,-5.169,-5.169,-5.169,-5.169,-5.169,-5.169,-5.169,-5.169,-5.169,-5.169,-5.169,-5.169,-5.169,-5.169,-5.169,-5.1705,-5.1701,-5.1701,-5.1714,-5.1674,-5.1674,-5.1795]}]]